<?xml version="1.0" encoding="UTF-8" standalone="no" ?>
<gpx xmlns="http://www.topografix.com/GPX/1/1" xmlns:xsi="http://www.w3.org/2001/XMLSchema-instance" xsi:schemaLocation="http://www.topografix.com/GPX/1/1 http://www.topografix.com/GPX/1/1/gpx.xsd" version="1.1" creator="VisuGPX - https://www.visugpx.com">
  <metadata>
    <name>L'étoile de lanrodec 92.3 Km</name>
  </metadata>
  <trk>
    <name><![CDATA[randonnée 90-20057090]]></name>
    <extensions>
      <line xmlns="http://www.topografix.com/GPX/gpx_style/0/2">
        <color>0000FF</color>
        <width>4</width>
      </line>
    </extensions>
    <trkseg>
      <trkpt lat="48.5329" lon="-3.0361">
        <ele>159</ele>
        <time>2025-02-28T16:57:50Z</time>
      </trkpt>
      <trkpt lat="48.53294" lon="-3.03609">
        <ele>158</ele>
        <time>2025-02-28T16:57:51Z</time>
      </trkpt>
      <trkpt lat="48.53182" lon="-3.03491">
        <ele>158</ele>
        <time>2025-02-28T16:58:15Z</time>
      </trkpt>
      <trkpt lat="48.53142" lon="-3.03455">
        <ele>156</ele>
        <time>2025-02-28T16:58:23Z</time>
      </trkpt>
      <trkpt lat="48.53116" lon="-3.03436">
        <ele>155</ele>
        <time>2025-02-28T16:58:28Z</time>
      </trkpt>
      <trkpt lat="48.53081" lon="-3.03415">
        <ele>155</ele>
        <time>2025-02-28T16:58:35Z</time>
      </trkpt>
      <trkpt lat="48.53045" lon="-3.03399">
        <ele>154</ele>
        <time>2025-02-28T16:58:42Z</time>
      </trkpt>
      <trkpt lat="48.53008" lon="-3.03389">
        <ele>154</ele>
        <time>2025-02-28T16:58:49Z</time>
      </trkpt>
      <trkpt lat="48.52979" lon="-3.03383">
        <ele>154</ele>
        <time>2025-02-28T16:58:54Z</time>
      </trkpt>
      <trkpt lat="48.52812" lon="-3.03362">
        <ele>151</ele>
        <time>2025-02-28T16:59:24Z</time>
      </trkpt>
      <trkpt lat="48.52718" lon="-3.03347">
        <ele>153</ele>
        <time>2025-02-28T16:59:40Z</time>
      </trkpt>
      <trkpt lat="48.52651" lon="-3.03331">
        <ele>154</ele>
        <time>2025-02-28T16:59:52Z</time>
      </trkpt>
      <trkpt lat="48.5263" lon="-3.03323">
        <ele>155</ele>
        <time>2025-02-28T16:59:56Z</time>
      </trkpt>
      <trkpt lat="48.5262" lon="-3.03319">
        <ele>156</ele>
        <time>2025-02-28T16:59:58Z</time>
      </trkpt>
      <trkpt lat="48.52528" lon="-3.03277">
        <ele>156</ele>
        <time>2025-02-28T17:00:15Z</time>
      </trkpt>
      <trkpt lat="48.52442" lon="-3.03242">
        <ele>157</ele>
        <time>2025-02-28T17:00:31Z</time>
      </trkpt>
      <trkpt lat="48.52411" lon="-3.03232">
        <ele>158</ele>
        <time>2025-02-28T17:00:37Z</time>
      </trkpt>
      <trkpt lat="48.52268" lon="-3.03202">
        <ele>161</ele>
        <time>2025-02-28T17:01:02Z</time>
      </trkpt>
      <trkpt lat="48.52228" lon="-3.03196">
        <ele>162</ele>
        <time>2025-02-28T17:01:10Z</time>
      </trkpt>
      <trkpt lat="48.52192" lon="-3.03198">
        <ele>163</ele>
        <time>2025-02-28T17:01:16Z</time>
      </trkpt>
      <trkpt lat="48.52106" lon="-3.03225">
        <ele>167</ele>
        <time>2025-02-28T17:01:32Z</time>
      </trkpt>
      <trkpt lat="48.52082" lon="-3.03231">
        <ele>169</ele>
        <time>2025-02-28T17:01:36Z</time>
      </trkpt>
      <trkpt lat="48.52049" lon="-3.03233">
        <ele>172</ele>
        <time>2025-02-28T17:01:42Z</time>
      </trkpt>
      <trkpt lat="48.5203" lon="-3.03228">
        <ele>173</ele>
        <time>2025-02-28T17:01:45Z</time>
      </trkpt>
      <trkpt lat="48.51971" lon="-3.03205">
        <ele>177</ele>
        <time>2025-02-28T17:01:56Z</time>
      </trkpt>
      <trkpt lat="48.51943" lon="-3.03198">
        <ele>179</ele>
        <time>2025-02-28T17:02:01Z</time>
      </trkpt>
      <trkpt lat="48.51929" lon="-3.03195">
        <ele>180</ele>
        <time>2025-02-28T17:02:04Z</time>
      </trkpt>
      <trkpt lat="48.51895" lon="-3.03189">
        <ele>183</ele>
        <time>2025-02-28T17:02:10Z</time>
      </trkpt>
      <trkpt lat="48.51876" lon="-3.03182">
        <ele>185</ele>
        <time>2025-02-28T17:02:13Z</time>
      </trkpt>
      <trkpt lat="48.51857" lon="-3.03171">
        <ele>187</ele>
        <time>2025-02-28T17:02:17Z</time>
      </trkpt>
      <trkpt lat="48.51834" lon="-3.03159">
        <ele>190</ele>
        <time>2025-02-28T17:02:21Z</time>
      </trkpt>
      <trkpt lat="48.51838" lon="-3.03122">
        <ele>188</ele>
        <time>2025-02-28T17:02:26Z</time>
      </trkpt>
      <trkpt lat="48.51843" lon="-3.03073">
        <ele>185</ele>
        <time>2025-02-28T17:02:31Z</time>
      </trkpt>
      <trkpt lat="48.51851" lon="-3.03005">
        <ele>179</ele>
        <time>2025-02-28T17:02:40Z</time>
      </trkpt>
      <trkpt lat="48.51859" lon="-3.02978">
        <ele>176</ele>
        <time>2025-02-28T17:02:43Z</time>
      </trkpt>
      <trkpt lat="48.51864" lon="-3.02961">
        <ele>175</ele>
        <time>2025-02-28T17:02:45Z</time>
      </trkpt>
      <trkpt lat="48.51895" lon="-3.029">
        <ele>169</ele>
        <time>2025-02-28T17:02:54Z</time>
      </trkpt>
      <trkpt lat="48.51961" lon="-3.02796">
        <ele>166</ele>
        <time>2025-02-28T17:03:11Z</time>
      </trkpt>
      <trkpt lat="48.51973" lon="-3.02779">
        <ele>166</ele>
        <time>2025-02-28T17:03:14Z</time>
      </trkpt>
      <trkpt lat="48.5201" lon="-3.02734">
        <ele>164</ele>
        <time>2025-02-28T17:03:23Z</time>
      </trkpt>
      <trkpt lat="48.5211" lon="-3.02665">
        <ele>159</ele>
        <time>2025-02-28T17:03:42Z</time>
      </trkpt>
      <trkpt lat="48.52151" lon="-3.02625">
        <ele>159</ele>
        <time>2025-02-28T17:03:51Z</time>
      </trkpt>
      <trkpt lat="48.52174" lon="-3.02599">
        <ele>159</ele>
        <time>2025-02-28T17:03:56Z</time>
      </trkpt>
      <trkpt lat="48.52185" lon="-3.02587">
        <ele>159</ele>
        <time>2025-02-28T17:03:58Z</time>
      </trkpt>
      <trkpt lat="48.52211" lon="-3.0255">
        <ele>158</ele>
        <time>2025-02-28T17:04:05Z</time>
      </trkpt>
      <trkpt lat="48.52319" lon="-3.02387">
        <ele>155</ele>
        <time>2025-02-28T17:04:32Z</time>
      </trkpt>
      <trkpt lat="48.52391" lon="-3.02279">
        <ele>154</ele>
        <time>2025-02-28T17:04:50Z</time>
      </trkpt>
      <trkpt lat="48.52572" lon="-3.02">
        <ele>155</ele>
        <time>2025-02-28T17:05:36Z</time>
      </trkpt>
      <trkpt lat="48.52686" lon="-3.01824">
        <ele>152</ele>
        <time>2025-02-28T17:06:05Z</time>
      </trkpt>
      <trkpt lat="48.52799" lon="-3.01655">
        <ele>150</ele>
        <time>2025-02-28T17:06:33Z</time>
      </trkpt>
      <trkpt lat="48.52837" lon="-3.01606">
        <ele>150</ele>
        <time>2025-02-28T17:06:42Z</time>
      </trkpt>
      <trkpt lat="48.52923" lon="-3.01514">
        <ele>149</ele>
        <time>2025-02-28T17:07:01Z</time>
      </trkpt>
      <trkpt lat="48.52949" lon="-3.01472">
        <ele>148</ele>
        <time>2025-02-28T17:07:08Z</time>
      </trkpt>
      <trkpt lat="48.52954" lon="-3.01464">
        <ele>147</ele>
        <time>2025-02-28T17:07:09Z</time>
      </trkpt>
      <trkpt lat="48.5302" lon="-3.01306">
        <ele>143</ele>
        <time>2025-02-28T17:07:31Z</time>
      </trkpt>
      <trkpt lat="48.53053" lon="-3.01244">
        <ele>143</ele>
        <time>2025-02-28T17:07:40Z</time>
      </trkpt>
      <trkpt lat="48.53252" lon="-3.00903">
        <ele>137</ele>
        <time>2025-02-28T17:08:34Z</time>
      </trkpt>
      <trkpt lat="48.53261" lon="-3.00888">
        <ele>137</ele>
        <time>2025-02-28T17:08:36Z</time>
      </trkpt>
      <trkpt lat="48.53275" lon="-3.00867">
        <ele>137</ele>
        <time>2025-02-28T17:08:40Z</time>
      </trkpt>
      <trkpt lat="48.5329" lon="-3.00844">
        <ele>137</ele>
        <time>2025-02-28T17:08:44Z</time>
      </trkpt>
      <trkpt lat="48.53309" lon="-3.00815">
        <ele>137</ele>
        <time>2025-02-28T17:08:49Z</time>
      </trkpt>
      <trkpt lat="48.53331" lon="-3.00781">
        <ele>137</ele>
        <time>2025-02-28T17:08:54Z</time>
      </trkpt>
      <trkpt lat="48.53351" lon="-3.00745">
        <ele>137</ele>
        <time>2025-02-28T17:09:00Z</time>
      </trkpt>
      <trkpt lat="48.53365" lon="-3.0071">
        <ele>137</ele>
        <time>2025-02-28T17:09:04Z</time>
      </trkpt>
      <trkpt lat="48.53445" lon="-3.00434">
        <ele>134</ele>
        <time>2025-02-28T17:09:40Z</time>
      </trkpt>
      <trkpt lat="48.53466" lon="-3.00374">
        <ele>135</ele>
        <time>2025-02-28T17:09:48Z</time>
      </trkpt>
      <trkpt lat="48.5348" lon="-3.00344">
        <ele>135</ele>
        <time>2025-02-28T17:09:52Z</time>
      </trkpt>
      <trkpt lat="48.53507" lon="-3.00297">
        <ele>136</ele>
        <time>2025-02-28T17:10:00Z</time>
      </trkpt>
      <trkpt lat="48.53528" lon="-3.00266">
        <ele>136</ele>
        <time>2025-02-28T17:10:05Z</time>
      </trkpt>
      <trkpt lat="48.53548" lon="-3.00238">
        <ele>137</ele>
        <time>2025-02-28T17:10:10Z</time>
      </trkpt>
      <trkpt lat="48.53563" lon="-3.00224">
        <ele>138</ele>
        <time>2025-02-28T17:10:13Z</time>
      </trkpt>
      <trkpt lat="48.53571" lon="-3.00219">
        <ele>138</ele>
        <time>2025-02-28T17:10:14Z</time>
      </trkpt>
      <trkpt lat="48.53575" lon="-3.00216">
        <ele>138</ele>
        <time>2025-02-28T17:10:15Z</time>
      </trkpt>
      <trkpt lat="48.5359" lon="-3.00214">
        <ele>139</ele>
        <time>2025-02-28T17:10:18Z</time>
      </trkpt>
      <trkpt lat="48.53592" lon="-3.00205">
        <ele>139</ele>
        <time>2025-02-28T17:10:19Z</time>
      </trkpt>
      <trkpt lat="48.53595" lon="-3.00198">
        <ele>139</ele>
        <time>2025-02-28T17:10:20Z</time>
      </trkpt>
      <trkpt lat="48.536" lon="-3.00193">
        <ele>139</ele>
        <time>2025-02-28T17:10:21Z</time>
      </trkpt>
      <trkpt lat="48.53604" lon="-3.0019">
        <ele>139</ele>
        <time>2025-02-28T17:10:22Z</time>
      </trkpt>
      <trkpt lat="48.53613" lon="-3.00191">
        <ele>139</ele>
        <time>2025-02-28T17:10:23Z</time>
      </trkpt>
      <trkpt lat="48.5362" lon="-3.00197">
        <ele>139</ele>
        <time>2025-02-28T17:10:25Z</time>
      </trkpt>
      <trkpt lat="48.53623" lon="-3.00202">
        <ele>139</ele>
        <time>2025-02-28T17:10:26Z</time>
      </trkpt>
      <trkpt lat="48.53626" lon="-3.00212">
        <ele>139</ele>
        <time>2025-02-28T17:10:27Z</time>
      </trkpt>
      <trkpt lat="48.53627" lon="-3.00222">
        <ele>139</ele>
        <time>2025-02-28T17:10:28Z</time>
      </trkpt>
      <trkpt lat="48.53624" lon="-3.00232">
        <ele>139</ele>
        <time>2025-02-28T17:10:29Z</time>
      </trkpt>
      <trkpt lat="48.5362" lon="-3.0024">
        <ele>139</ele>
        <time>2025-02-28T17:10:31Z</time>
      </trkpt>
      <trkpt lat="48.53612" lon="-3.00245">
        <ele>139</ele>
        <time>2025-02-28T17:10:32Z</time>
      </trkpt>
      <trkpt lat="48.53607" lon="-3.0027">
        <ele>139</ele>
        <time>2025-02-28T17:10:35Z</time>
      </trkpt>
      <trkpt lat="48.53619" lon="-3.00296">
        <ele>139</ele>
        <time>2025-02-28T17:10:39Z</time>
      </trkpt>
      <trkpt lat="48.53623" lon="-3.00311">
        <ele>139</ele>
        <time>2025-02-28T17:10:41Z</time>
      </trkpt>
      <trkpt lat="48.53621" lon="-3.00527">
        <ele>140</ele>
        <time>2025-02-28T17:11:06Z</time>
      </trkpt>
      <trkpt lat="48.5362" lon="-3.00586">
        <ele>140</ele>
        <time>2025-02-28T17:11:13Z</time>
      </trkpt>
      <trkpt lat="48.5362" lon="-3.00662">
        <ele>139</ele>
        <time>2025-02-28T17:11:22Z</time>
      </trkpt>
      <trkpt lat="48.5362" lon="-3.00678">
        <ele>139</ele>
        <time>2025-02-28T17:11:24Z</time>
      </trkpt>
      <trkpt lat="48.53618" lon="-3.00806">
        <ele>137</ele>
        <time>2025-02-28T17:11:39Z</time>
      </trkpt>
      <trkpt lat="48.53616" lon="-3.01059">
        <ele>140</ele>
        <time>2025-02-28T17:12:09Z</time>
      </trkpt>
      <trkpt lat="48.53618" lon="-3.01629">
        <ele>136</ele>
        <time>2025-02-28T17:13:16Z</time>
      </trkpt>
      <trkpt lat="48.5362" lon="-3.01821">
        <ele>136</ele>
        <time>2025-02-28T17:13:39Z</time>
      </trkpt>
      <trkpt lat="48.53623" lon="-3.01868">
        <ele>136</ele>
        <time>2025-02-28T17:13:44Z</time>
      </trkpt>
      <trkpt lat="48.5363" lon="-3.01928">
        <ele>135</ele>
        <time>2025-02-28T17:13:52Z</time>
      </trkpt>
      <trkpt lat="48.53639" lon="-3.01983">
        <ele>135</ele>
        <time>2025-02-28T17:13:58Z</time>
      </trkpt>
      <trkpt lat="48.53651" lon="-3.02073">
        <ele>134</ele>
        <time>2025-02-28T17:14:09Z</time>
      </trkpt>
      <trkpt lat="48.53667" lon="-3.0229">
        <ele>134</ele>
        <time>2025-02-28T17:14:35Z</time>
      </trkpt>
      <trkpt lat="48.53676" lon="-3.02451">
        <ele>135</ele>
        <time>2025-02-28T17:14:54Z</time>
      </trkpt>
      <trkpt lat="48.53682" lon="-3.02589">
        <ele>137</ele>
        <time>2025-02-28T17:15:10Z</time>
      </trkpt>
      <trkpt lat="48.53683" lon="-3.02649">
        <ele>137</ele>
        <time>2025-02-28T17:15:17Z</time>
      </trkpt>
      <trkpt lat="48.53683" lon="-3.02662">
        <ele>137</ele>
        <time>2025-02-28T17:15:19Z</time>
      </trkpt>
      <trkpt lat="48.53658" lon="-3.03082">
        <ele>142</ele>
        <time>2025-02-28T17:16:08Z</time>
      </trkpt>
      <trkpt lat="48.53639" lon="-3.03372">
        <ele>149</ele>
        <time>2025-02-28T17:16:43Z</time>
      </trkpt>
      <trkpt lat="48.5364" lon="-3.03418">
        <ele>149</ele>
        <time>2025-02-28T17:16:48Z</time>
      </trkpt>
      <trkpt lat="48.53644" lon="-3.0347">
        <ele>150</ele>
        <time>2025-02-28T17:16:54Z</time>
      </trkpt>
      <trkpt lat="48.53653" lon="-3.03521">
        <ele>151</ele>
        <time>2025-02-28T17:17:00Z</time>
      </trkpt>
      <trkpt lat="48.53662" lon="-3.03554">
        <ele>151</ele>
        <time>2025-02-28T17:17:05Z</time>
      </trkpt>
      <trkpt lat="48.53678" lon="-3.03601">
        <ele>152</ele>
        <time>2025-02-28T17:17:11Z</time>
      </trkpt>
      <trkpt lat="48.53712" lon="-3.0369">
        <ele>153</ele>
        <time>2025-02-28T17:17:23Z</time>
      </trkpt>
      <trkpt lat="48.53722" lon="-3.0372">
        <ele>153</ele>
        <time>2025-02-28T17:17:27Z</time>
      </trkpt>
      <trkpt lat="48.5373" lon="-3.03754">
        <ele>152</ele>
        <time>2025-02-28T17:17:31Z</time>
      </trkpt>
      <trkpt lat="48.53737" lon="-3.03799">
        <ele>152</ele>
        <time>2025-02-28T17:17:37Z</time>
      </trkpt>
      <trkpt lat="48.5374" lon="-3.03837">
        <ele>151</ele>
        <time>2025-02-28T17:17:41Z</time>
      </trkpt>
      <trkpt lat="48.53768" lon="-3.0383">
        <ele>151</ele>
        <time>2025-02-28T17:17:46Z</time>
      </trkpt>
      <trkpt lat="48.53777" lon="-3.03826">
        <ele>150</ele>
        <time>2025-02-28T17:17:48Z</time>
      </trkpt>
      <trkpt lat="48.53786" lon="-3.03817">
        <ele>150</ele>
        <time>2025-02-28T17:17:50Z</time>
      </trkpt>
      <trkpt lat="48.53808" lon="-3.03771">
        <ele>149</ele>
        <time>2025-02-28T17:17:56Z</time>
      </trkpt>
      <trkpt lat="48.53852" lon="-3.03658">
        <ele>146</ele>
        <time>2025-02-28T17:18:12Z</time>
      </trkpt>
      <trkpt lat="48.53865" lon="-3.03633">
        <ele>146</ele>
        <time>2025-02-28T17:18:16Z</time>
      </trkpt>
      <trkpt lat="48.53882" lon="-3.03616">
        <ele>145</ele>
        <time>2025-02-28T17:18:19Z</time>
      </trkpt>
      <trkpt lat="48.53918" lon="-3.0359">
        <ele>144</ele>
        <time>2025-02-28T17:18:26Z</time>
      </trkpt>
      <trkpt lat="48.53971" lon="-3.03554">
        <ele>143</ele>
        <time>2025-02-28T17:18:37Z</time>
      </trkpt>
      <trkpt lat="48.53996" lon="-3.03538">
        <ele>142</ele>
        <time>2025-02-28T17:18:42Z</time>
      </trkpt>
      <trkpt lat="48.54056" lon="-3.03488">
        <ele>141</ele>
        <time>2025-02-28T17:18:54Z</time>
      </trkpt>
      <trkpt lat="48.54096" lon="-3.03455">
        <ele>140</ele>
        <time>2025-02-28T17:19:02Z</time>
      </trkpt>
      <trkpt lat="48.54161" lon="-3.03394">
        <ele>140</ele>
        <time>2025-02-28T17:19:15Z</time>
      </trkpt>
      <trkpt lat="48.54178" lon="-3.03367">
        <ele>140</ele>
        <time>2025-02-28T17:19:20Z</time>
      </trkpt>
      <trkpt lat="48.5419" lon="-3.03344">
        <ele>139</ele>
        <time>2025-02-28T17:19:23Z</time>
      </trkpt>
      <trkpt lat="48.542" lon="-3.03312">
        <ele>140</ele>
        <time>2025-02-28T17:19:28Z</time>
      </trkpt>
      <trkpt lat="48.54273" lon="-3.03034">
        <ele>138</ele>
        <time>2025-02-28T17:20:03Z</time>
      </trkpt>
      <trkpt lat="48.54287" lon="-3.02971">
        <ele>139</ele>
        <time>2025-02-28T17:20:11Z</time>
      </trkpt>
      <trkpt lat="48.54299" lon="-3.02877">
        <ele>139</ele>
        <time>2025-02-28T17:20:22Z</time>
      </trkpt>
      <trkpt lat="48.54304" lon="-3.02854">
        <ele>139</ele>
        <time>2025-02-28T17:20:25Z</time>
      </trkpt>
      <trkpt lat="48.5431" lon="-3.02841">
        <ele>139</ele>
        <time>2025-02-28T17:20:27Z</time>
      </trkpt>
      <trkpt lat="48.54321" lon="-3.02827">
        <ele>138</ele>
        <time>2025-02-28T17:20:29Z</time>
      </trkpt>
      <trkpt lat="48.54338" lon="-3.02818">
        <ele>138</ele>
        <time>2025-02-28T17:20:32Z</time>
      </trkpt>
      <trkpt lat="48.54382" lon="-3.02803">
        <ele>137</ele>
        <time>2025-02-28T17:20:40Z</time>
      </trkpt>
      <trkpt lat="48.54392" lon="-3.02803">
        <ele>137</ele>
        <time>2025-02-28T17:20:42Z</time>
      </trkpt>
      <trkpt lat="48.54399" lon="-3.02804">
        <ele>137</ele>
        <time>2025-02-28T17:20:43Z</time>
      </trkpt>
      <trkpt lat="48.5441" lon="-3.0281">
        <ele>137</ele>
        <time>2025-02-28T17:20:45Z</time>
      </trkpt>
      <trkpt lat="48.54438" lon="-3.0284">
        <ele>137</ele>
        <time>2025-02-28T17:20:52Z</time>
      </trkpt>
      <trkpt lat="48.54482" lon="-3.02878">
        <ele>137</ele>
        <time>2025-02-28T17:21:01Z</time>
      </trkpt>
      <trkpt lat="48.54557" lon="-3.02938">
        <ele>136</ele>
        <time>2025-02-28T17:21:16Z</time>
      </trkpt>
      <trkpt lat="48.54581" lon="-3.02945">
        <ele>136</ele>
        <time>2025-02-28T17:21:20Z</time>
      </trkpt>
      <trkpt lat="48.54606" lon="-3.02946">
        <ele>136</ele>
        <time>2025-02-28T17:21:24Z</time>
      </trkpt>
      <trkpt lat="48.5467" lon="-3.02926">
        <ele>135</ele>
        <time>2025-02-28T17:21:36Z</time>
      </trkpt>
      <trkpt lat="48.54699" lon="-3.02925">
        <ele>135</ele>
        <time>2025-02-28T17:21:41Z</time>
      </trkpt>
      <trkpt lat="48.54712" lon="-3.0293">
        <ele>136</ele>
        <time>2025-02-28T17:21:44Z</time>
      </trkpt>
      <trkpt lat="48.54822" lon="-3.0299">
        <ele>135</ele>
        <time>2025-02-28T17:22:04Z</time>
      </trkpt>
      <trkpt lat="48.54829" lon="-3.02993">
        <ele>135</ele>
        <time>2025-02-28T17:22:06Z</time>
      </trkpt>
      <trkpt lat="48.5486" lon="-3.03033">
        <ele>135</ele>
        <time>2025-02-28T17:22:13Z</time>
      </trkpt>
      <trkpt lat="48.54916" lon="-3.03121">
        <ele>134</ele>
        <time>2025-02-28T17:22:27Z</time>
      </trkpt>
      <trkpt lat="48.54964" lon="-3.03165">
        <ele>133</ele>
        <time>2025-02-28T17:22:37Z</time>
      </trkpt>
      <trkpt lat="48.54995" lon="-3.03196">
        <ele>133</ele>
        <time>2025-02-28T17:22:44Z</time>
      </trkpt>
      <trkpt lat="48.55009" lon="-3.03219">
        <ele>132</ele>
        <time>2025-02-28T17:22:48Z</time>
      </trkpt>
      <trkpt lat="48.55033" lon="-3.0327">
        <ele>132</ele>
        <time>2025-02-28T17:22:55Z</time>
      </trkpt>
      <trkpt lat="48.55073" lon="-3.03321">
        <ele>133</ele>
        <time>2025-02-28T17:23:04Z</time>
      </trkpt>
      <trkpt lat="48.55092" lon="-3.03341">
        <ele>133</ele>
        <time>2025-02-28T17:23:08Z</time>
      </trkpt>
      <trkpt lat="48.55112" lon="-3.03356">
        <ele>133</ele>
        <time>2025-02-28T17:23:12Z</time>
      </trkpt>
      <trkpt lat="48.55143" lon="-3.03372">
        <ele>134</ele>
        <time>2025-02-28T17:23:18Z</time>
      </trkpt>
      <trkpt lat="48.55184" lon="-3.0339">
        <ele>135</ele>
        <time>2025-02-28T17:23:26Z</time>
      </trkpt>
      <trkpt lat="48.55268" lon="-3.03415">
        <ele>136</ele>
        <time>2025-02-28T17:23:41Z</time>
      </trkpt>
      <trkpt lat="48.55295" lon="-3.03416">
        <ele>136</ele>
        <time>2025-02-28T17:23:46Z</time>
      </trkpt>
      <trkpt lat="48.5532" lon="-3.03414">
        <ele>136</ele>
        <time>2025-02-28T17:23:50Z</time>
      </trkpt>
      <trkpt lat="48.55333" lon="-3.03414">
        <ele>136</ele>
        <time>2025-02-28T17:23:53Z</time>
      </trkpt>
      <trkpt lat="48.55416" lon="-3.03441">
        <ele>136</ele>
        <time>2025-02-28T17:24:08Z</time>
      </trkpt>
      <trkpt lat="48.55483" lon="-3.03456">
        <ele>134</ele>
        <time>2025-02-28T17:24:20Z</time>
      </trkpt>
      <trkpt lat="48.55571" lon="-3.03444">
        <ele>135</ele>
        <time>2025-02-28T17:24:36Z</time>
      </trkpt>
      <trkpt lat="48.55601" lon="-3.03449">
        <ele>135</ele>
        <time>2025-02-28T17:24:41Z</time>
      </trkpt>
      <trkpt lat="48.55618" lon="-3.0346">
        <ele>135</ele>
        <time>2025-02-28T17:24:44Z</time>
      </trkpt>
      <trkpt lat="48.55635" lon="-3.03474">
        <ele>135</ele>
        <time>2025-02-28T17:24:48Z</time>
      </trkpt>
      <trkpt lat="48.55647" lon="-3.03494">
        <ele>135</ele>
        <time>2025-02-28T17:24:51Z</time>
      </trkpt>
      <trkpt lat="48.55659" lon="-3.03526">
        <ele>135</ele>
        <time>2025-02-28T17:24:55Z</time>
      </trkpt>
      <trkpt lat="48.5567" lon="-3.03574">
        <ele>134</ele>
        <time>2025-02-28T17:25:01Z</time>
      </trkpt>
      <trkpt lat="48.55684" lon="-3.0362">
        <ele>134</ele>
        <time>2025-02-28T17:25:07Z</time>
      </trkpt>
      <trkpt lat="48.55705" lon="-3.03677">
        <ele>134</ele>
        <time>2025-02-28T17:25:15Z</time>
      </trkpt>
      <trkpt lat="48.55734" lon="-3.03743">
        <ele>136</ele>
        <time>2025-02-28T17:25:24Z</time>
      </trkpt>
      <trkpt lat="48.55757" lon="-3.03842">
        <ele>135</ele>
        <time>2025-02-28T17:25:37Z</time>
      </trkpt>
      <trkpt lat="48.55784" lon="-3.03992">
        <ele>136</ele>
        <time>2025-02-28T17:25:55Z</time>
      </trkpt>
      <trkpt lat="48.55798" lon="-3.04052">
        <ele>137</ele>
        <time>2025-02-28T17:26:02Z</time>
      </trkpt>
      <trkpt lat="48.55822" lon="-3.04132">
        <ele>137</ele>
        <time>2025-02-28T17:26:13Z</time>
      </trkpt>
      <trkpt lat="48.55845" lon="-3.04155">
        <ele>136</ele>
        <time>2025-02-28T17:26:18Z</time>
      </trkpt>
      <trkpt lat="48.5589" lon="-3.04194">
        <ele>137</ele>
        <time>2025-02-28T17:26:27Z</time>
      </trkpt>
      <trkpt lat="48.55921" lon="-3.04231">
        <ele>137</ele>
        <time>2025-02-28T17:26:34Z</time>
      </trkpt>
      <trkpt lat="48.5594" lon="-3.0426">
        <ele>137</ele>
        <time>2025-02-28T17:26:39Z</time>
      </trkpt>
      <trkpt lat="48.55976" lon="-3.04331">
        <ele>137</ele>
        <time>2025-02-28T17:26:49Z</time>
      </trkpt>
      <trkpt lat="48.55987" lon="-3.04362">
        <ele>137</ele>
        <time>2025-02-28T17:26:53Z</time>
      </trkpt>
      <trkpt lat="48.55993" lon="-3.0441">
        <ele>136</ele>
        <time>2025-02-28T17:26:59Z</time>
      </trkpt>
      <trkpt lat="48.55993" lon="-3.04436">
        <ele>136</ele>
        <time>2025-02-28T17:27:02Z</time>
      </trkpt>
      <trkpt lat="48.55984" lon="-3.04544">
        <ele>136</ele>
        <time>2025-02-28T17:27:15Z</time>
      </trkpt>
      <trkpt lat="48.55986" lon="-3.04603">
        <ele>136</ele>
        <time>2025-02-28T17:27:22Z</time>
      </trkpt>
      <trkpt lat="48.55999" lon="-3.04665">
        <ele>136</ele>
        <time>2025-02-28T17:27:30Z</time>
      </trkpt>
      <trkpt lat="48.5602" lon="-3.04726">
        <ele>135</ele>
        <time>2025-02-28T17:27:38Z</time>
      </trkpt>
      <trkpt lat="48.56052" lon="-3.04823">
        <ele>134</ele>
        <time>2025-02-28T17:27:50Z</time>
      </trkpt>
      <trkpt lat="48.56068" lon="-3.04871">
        <ele>134</ele>
        <time>2025-02-28T17:27:57Z</time>
      </trkpt>
      <trkpt lat="48.56082" lon="-3.04906">
        <ele>134</ele>
        <time>2025-02-28T17:28:02Z</time>
      </trkpt>
      <trkpt lat="48.56165" lon="-3.0507">
        <ele>133</ele>
        <time>2025-02-28T17:28:26Z</time>
      </trkpt>
      <trkpt lat="48.56258" lon="-3.05275">
        <ele>133</ele>
        <time>2025-02-28T17:28:55Z</time>
      </trkpt>
      <trkpt lat="48.56296" lon="-3.05359">
        <ele>133</ele>
        <time>2025-02-28T17:29:07Z</time>
      </trkpt>
      <trkpt lat="48.56329" lon="-3.05429">
        <ele>133</ele>
        <time>2025-02-28T17:29:17Z</time>
      </trkpt>
      <trkpt lat="48.56391" lon="-3.05538">
        <ele>132</ele>
        <time>2025-02-28T17:29:34Z</time>
      </trkpt>
      <trkpt lat="48.56471" lon="-3.05674">
        <ele>129</ele>
        <time>2025-02-28T17:29:56Z</time>
      </trkpt>
      <trkpt lat="48.56491" lon="-3.05707">
        <ele>129</ele>
        <time>2025-02-28T17:30:01Z</time>
      </trkpt>
      <trkpt lat="48.5651" lon="-3.05738">
        <ele>129</ele>
        <time>2025-02-28T17:30:06Z</time>
      </trkpt>
      <trkpt lat="48.56522" lon="-3.05755">
        <ele>129</ele>
        <time>2025-02-28T17:30:09Z</time>
      </trkpt>
      <trkpt lat="48.56597" lon="-3.05835">
        <ele>126</ele>
        <time>2025-02-28T17:30:25Z</time>
      </trkpt>
      <trkpt lat="48.56622" lon="-3.05872">
        <ele>126</ele>
        <time>2025-02-28T17:30:31Z</time>
      </trkpt>
      <trkpt lat="48.56641" lon="-3.05892">
        <ele>126</ele>
        <time>2025-02-28T17:30:35Z</time>
      </trkpt>
      <trkpt lat="48.56668" lon="-3.0591">
        <ele>127</ele>
        <time>2025-02-28T17:30:41Z</time>
      </trkpt>
      <trkpt lat="48.5668" lon="-3.05921">
        <ele>127</ele>
        <time>2025-02-28T17:30:43Z</time>
      </trkpt>
      <trkpt lat="48.56691" lon="-3.05934">
        <ele>127</ele>
        <time>2025-02-28T17:30:46Z</time>
      </trkpt>
      <trkpt lat="48.56705" lon="-3.05955">
        <ele>126</ele>
        <time>2025-02-28T17:30:49Z</time>
      </trkpt>
      <trkpt lat="48.56714" lon="-3.05974">
        <ele>126</ele>
        <time>2025-02-28T17:30:52Z</time>
      </trkpt>
      <trkpt lat="48.56734" lon="-3.06019">
        <ele>125</ele>
        <time>2025-02-28T17:30:58Z</time>
      </trkpt>
      <trkpt lat="48.56756" lon="-3.06084">
        <ele>125</ele>
        <time>2025-02-28T17:31:07Z</time>
      </trkpt>
      <trkpt lat="48.56768" lon="-3.06107">
        <ele>125</ele>
        <time>2025-02-28T17:31:10Z</time>
      </trkpt>
      <trkpt lat="48.56816" lon="-3.06175">
        <ele>124</ele>
        <time>2025-02-28T17:31:22Z</time>
      </trkpt>
      <trkpt lat="48.56859" lon="-3.06223">
        <ele>124</ele>
        <time>2025-02-28T17:31:32Z</time>
      </trkpt>
      <trkpt lat="48.56899" lon="-3.06259">
        <ele>124</ele>
        <time>2025-02-28T17:31:40Z</time>
      </trkpt>
      <trkpt lat="48.56935" lon="-3.06285">
        <ele>124</ele>
        <time>2025-02-28T17:31:47Z</time>
      </trkpt>
      <trkpt lat="48.56956" lon="-3.063">
        <ele>124</ele>
        <time>2025-02-28T17:31:51Z</time>
      </trkpt>
      <trkpt lat="48.5699" lon="-3.06323">
        <ele>123</ele>
        <time>2025-02-28T17:31:58Z</time>
      </trkpt>
      <trkpt lat="48.57011" lon="-3.06332">
        <ele>123</ele>
        <time>2025-02-28T17:32:02Z</time>
      </trkpt>
      <trkpt lat="48.57031" lon="-3.06338">
        <ele>122</ele>
        <time>2025-02-28T17:32:05Z</time>
      </trkpt>
      <trkpt lat="48.57057" lon="-3.06346">
        <ele>122</ele>
        <time>2025-02-28T17:32:10Z</time>
      </trkpt>
      <trkpt lat="48.57094" lon="-3.06351">
        <ele>121</ele>
        <time>2025-02-28T17:32:17Z</time>
      </trkpt>
      <trkpt lat="48.57177" lon="-3.06356">
        <ele>119</ele>
        <time>2025-02-28T17:32:31Z</time>
      </trkpt>
      <trkpt lat="48.5721" lon="-3.06365">
        <ele>120</ele>
        <time>2025-02-28T17:32:37Z</time>
      </trkpt>
      <trkpt lat="48.57235" lon="-3.06377">
        <ele>120</ele>
        <time>2025-02-28T17:32:42Z</time>
      </trkpt>
      <trkpt lat="48.5735" lon="-3.06459">
        <ele>117</ele>
        <time>2025-02-28T17:33:05Z</time>
      </trkpt>
      <trkpt lat="48.57371" lon="-3.0648">
        <ele>116</ele>
        <time>2025-02-28T17:33:09Z</time>
      </trkpt>
      <trkpt lat="48.57389" lon="-3.06514">
        <ele>115</ele>
        <time>2025-02-28T17:33:14Z</time>
      </trkpt>
      <trkpt lat="48.57412" lon="-3.06571">
        <ele>113</ele>
        <time>2025-02-28T17:33:22Z</time>
      </trkpt>
      <trkpt lat="48.57427" lon="-3.06599">
        <ele>113</ele>
        <time>2025-02-28T17:33:26Z</time>
      </trkpt>
      <trkpt lat="48.57455" lon="-3.06645">
        <ele>113</ele>
        <time>2025-02-28T17:33:34Z</time>
      </trkpt>
      <trkpt lat="48.57461" lon="-3.06654">
        <ele>113</ele>
        <time>2025-02-28T17:33:35Z</time>
      </trkpt>
      <trkpt lat="48.57499" lon="-3.06721">
        <ele>114</ele>
        <time>2025-02-28T17:33:46Z</time>
      </trkpt>
      <trkpt lat="48.57512" lon="-3.0674">
        <ele>115</ele>
        <time>2025-02-28T17:33:49Z</time>
      </trkpt>
      <trkpt lat="48.57518" lon="-3.06746">
        <ele>115</ele>
        <time>2025-02-28T17:33:50Z</time>
      </trkpt>
      <trkpt lat="48.57534" lon="-3.06753">
        <ele>115</ele>
        <time>2025-02-28T17:33:53Z</time>
      </trkpt>
      <trkpt lat="48.57568" lon="-3.06761">
        <ele>115</ele>
        <time>2025-02-28T17:33:59Z</time>
      </trkpt>
      <trkpt lat="48.57619" lon="-3.06771">
        <ele>116</ele>
        <time>2025-02-28T17:34:08Z</time>
      </trkpt>
      <trkpt lat="48.57667" lon="-3.06763">
        <ele>116</ele>
        <time>2025-02-28T17:34:17Z</time>
      </trkpt>
      <trkpt lat="48.5773" lon="-3.06789">
        <ele>116</ele>
        <time>2025-02-28T17:34:28Z</time>
      </trkpt>
      <trkpt lat="48.57752" lon="-3.06795">
        <ele>116</ele>
        <time>2025-02-28T17:34:32Z</time>
      </trkpt>
      <trkpt lat="48.57802" lon="-3.06794">
        <ele>116</ele>
        <time>2025-02-28T17:34:41Z</time>
      </trkpt>
      <trkpt lat="48.57823" lon="-3.06673">
        <ele>115</ele>
        <time>2025-02-28T17:34:56Z</time>
      </trkpt>
      <trkpt lat="48.57844" lon="-3.06566">
        <ele>113</ele>
        <time>2025-02-28T17:35:09Z</time>
      </trkpt>
      <trkpt lat="48.57869" lon="-3.06453">
        <ele>111</ele>
        <time>2025-02-28T17:35:23Z</time>
      </trkpt>
      <trkpt lat="48.5789" lon="-3.06388">
        <ele>109</ele>
        <time>2025-02-28T17:35:32Z</time>
      </trkpt>
      <trkpt lat="48.57952" lon="-3.06236">
        <ele>103</ele>
        <time>2025-02-28T17:35:53Z</time>
      </trkpt>
      <trkpt lat="48.57955" lon="-3.06217">
        <ele>102</ele>
        <time>2025-02-28T17:35:55Z</time>
      </trkpt>
      <trkpt lat="48.57955" lon="-3.06213">
        <ele>102</ele>
        <time>2025-02-28T17:35:56Z</time>
      </trkpt>
      <trkpt lat="48.57955" lon="-3.06199">
        <ele>102</ele>
        <time>2025-02-28T17:35:57Z</time>
      </trkpt>
      <trkpt lat="48.57954" lon="-3.06184">
        <ele>102</ele>
        <time>2025-02-28T17:35:59Z</time>
      </trkpt>
      <trkpt lat="48.57948" lon="-3.0611">
        <ele>104</ele>
        <time>2025-02-28T17:36:08Z</time>
      </trkpt>
      <trkpt lat="48.57943" lon="-3.06075">
        <ele>105</ele>
        <time>2025-02-28T17:36:12Z</time>
      </trkpt>
      <trkpt lat="48.57919" lon="-3.06">
        <ele>108</ele>
        <time>2025-02-28T17:36:22Z</time>
      </trkpt>
      <trkpt lat="48.57916" lon="-3.05973">
        <ele>107</ele>
        <time>2025-02-28T17:36:25Z</time>
      </trkpt>
      <trkpt lat="48.57918" lon="-3.05898">
        <ele>106</ele>
        <time>2025-02-28T17:36:34Z</time>
      </trkpt>
      <trkpt lat="48.57914" lon="-3.05845">
        <ele>105</ele>
        <time>2025-02-28T17:36:40Z</time>
      </trkpt>
      <trkpt lat="48.57908" lon="-3.05826">
        <ele>105</ele>
        <time>2025-02-28T17:36:43Z</time>
      </trkpt>
      <trkpt lat="48.57898" lon="-3.05814">
        <ele>105</ele>
        <time>2025-02-28T17:36:45Z</time>
      </trkpt>
      <trkpt lat="48.57734" lon="-3.05725">
        <ele>109</ele>
        <time>2025-02-28T17:37:16Z</time>
      </trkpt>
      <trkpt lat="48.57772" lon="-3.05641">
        <ele>108</ele>
        <time>2025-02-28T17:37:28Z</time>
      </trkpt>
      <trkpt lat="48.57786" lon="-3.05621">
        <ele>107</ele>
        <time>2025-02-28T17:37:31Z</time>
      </trkpt>
      <trkpt lat="48.57801" lon="-3.05614">
        <ele>107</ele>
        <time>2025-02-28T17:37:34Z</time>
      </trkpt>
      <trkpt lat="48.57847" lon="-3.05614">
        <ele>107</ele>
        <time>2025-02-28T17:37:42Z</time>
      </trkpt>
      <trkpt lat="48.57896" lon="-3.05608">
        <ele>106</ele>
        <time>2025-02-28T17:37:51Z</time>
      </trkpt>
      <trkpt lat="48.5791" lon="-3.05602">
        <ele>105</ele>
        <time>2025-02-28T17:37:54Z</time>
      </trkpt>
      <trkpt lat="48.57917" lon="-3.05596">
        <ele>105</ele>
        <time>2025-02-28T17:37:55Z</time>
      </trkpt>
      <trkpt lat="48.57931" lon="-3.05578">
        <ele>105</ele>
        <time>2025-02-28T17:37:58Z</time>
      </trkpt>
      <trkpt lat="48.5795" lon="-3.05528">
        <ele>105</ele>
        <time>2025-02-28T17:38:05Z</time>
      </trkpt>
      <trkpt lat="48.57944" lon="-3.0551">
        <ele>105</ele>
        <time>2025-02-28T17:38:07Z</time>
      </trkpt>
      <trkpt lat="48.57938" lon="-3.05458">
        <ele>105</ele>
        <time>2025-02-28T17:38:14Z</time>
      </trkpt>
      <trkpt lat="48.57932" lon="-3.05448">
        <ele>105</ele>
        <time>2025-02-28T17:38:15Z</time>
      </trkpt>
      <trkpt lat="48.57923" lon="-3.05438">
        <ele>105</ele>
        <time>2025-02-28T17:38:17Z</time>
      </trkpt>
      <trkpt lat="48.57878" lon="-3.05414">
        <ele>105</ele>
        <time>2025-02-28T17:38:26Z</time>
      </trkpt>
      <trkpt lat="48.57766" lon="-3.05327">
        <ele>107</ele>
        <time>2025-02-28T17:38:48Z</time>
      </trkpt>
      <trkpt lat="48.57751" lon="-3.05318">
        <ele>107</ele>
        <time>2025-02-28T17:38:51Z</time>
      </trkpt>
      <trkpt lat="48.57712" lon="-3.05311">
        <ele>109</ele>
        <time>2025-02-28T17:38:58Z</time>
      </trkpt>
      <trkpt lat="48.57673" lon="-3.05292">
        <ele>110</ele>
        <time>2025-02-28T17:39:05Z</time>
      </trkpt>
      <trkpt lat="48.57659" lon="-3.05289">
        <ele>110</ele>
        <time>2025-02-28T17:39:08Z</time>
      </trkpt>
      <trkpt lat="48.57649" lon="-3.05295">
        <ele>110</ele>
        <time>2025-02-28T17:39:10Z</time>
      </trkpt>
      <trkpt lat="48.57634" lon="-3.05313">
        <ele>111</ele>
        <time>2025-02-28T17:39:13Z</time>
      </trkpt>
      <trkpt lat="48.57627" lon="-3.05317">
        <ele>111</ele>
        <time>2025-02-28T17:39:14Z</time>
      </trkpt>
      <trkpt lat="48.57619" lon="-3.05319">
        <ele>111</ele>
        <time>2025-02-28T17:39:16Z</time>
      </trkpt>
      <trkpt lat="48.57609" lon="-3.05314">
        <ele>111</ele>
        <time>2025-02-28T17:39:18Z</time>
      </trkpt>
      <trkpt lat="48.57561" lon="-3.05281">
        <ele>110</ele>
        <time>2025-02-28T17:39:27Z</time>
      </trkpt>
      <trkpt lat="48.57515" lon="-3.05258">
        <ele>111</ele>
        <time>2025-02-28T17:39:36Z</time>
      </trkpt>
      <trkpt lat="48.57472" lon="-3.0523">
        <ele>112</ele>
        <time>2025-02-28T17:39:44Z</time>
      </trkpt>
      <trkpt lat="48.57437" lon="-3.05194">
        <ele>113</ele>
        <time>2025-02-28T17:39:52Z</time>
      </trkpt>
      <trkpt lat="48.57422" lon="-3.05177">
        <ele>113</ele>
        <time>2025-02-28T17:39:55Z</time>
      </trkpt>
      <trkpt lat="48.57477" lon="-3.05051">
        <ele>110</ele>
        <time>2025-02-28T17:40:13Z</time>
      </trkpt>
      <trkpt lat="48.57546" lon="-3.04916">
        <ele>106</ele>
        <time>2025-02-28T17:40:33Z</time>
      </trkpt>
      <trkpt lat="48.57558" lon="-3.04893">
        <ele>106</ele>
        <time>2025-02-28T17:40:36Z</time>
      </trkpt>
      <trkpt lat="48.57568" lon="-3.04863">
        <ele>106</ele>
        <time>2025-02-28T17:40:40Z</time>
      </trkpt>
      <trkpt lat="48.57578" lon="-3.04795">
        <ele>108</ele>
        <time>2025-02-28T17:40:48Z</time>
      </trkpt>
      <trkpt lat="48.57646" lon="-3.0458">
        <ele>108</ele>
        <time>2025-02-28T17:41:16Z</time>
      </trkpt>
      <trkpt lat="48.57652" lon="-3.04563">
        <ele>108</ele>
        <time>2025-02-28T17:41:19Z</time>
      </trkpt>
      <trkpt lat="48.57686" lon="-3.04403">
        <ele>108</ele>
        <time>2025-02-28T17:41:39Z</time>
      </trkpt>
      <trkpt lat="48.57723" lon="-3.04274">
        <ele>106</ele>
        <time>2025-02-28T17:41:55Z</time>
      </trkpt>
      <trkpt lat="48.57777" lon="-3.04154">
        <ele>105</ele>
        <time>2025-02-28T17:42:12Z</time>
      </trkpt>
      <trkpt lat="48.57804" lon="-3.04109">
        <ele>105</ele>
        <time>2025-02-28T17:42:19Z</time>
      </trkpt>
      <trkpt lat="48.57872" lon="-3.03986">
        <ele>105</ele>
        <time>2025-02-28T17:42:38Z</time>
      </trkpt>
      <trkpt lat="48.57929" lon="-3.03897">
        <ele>104</ele>
        <time>2025-02-28T17:42:53Z</time>
      </trkpt>
      <trkpt lat="48.57939" lon="-3.03876">
        <ele>104</ele>
        <time>2025-02-28T17:42:56Z</time>
      </trkpt>
      <trkpt lat="48.57944" lon="-3.03851">
        <ele>104</ele>
        <time>2025-02-28T17:42:59Z</time>
      </trkpt>
      <trkpt lat="48.5797" lon="-3.03623">
        <ele>100</ele>
        <time>2025-02-28T17:43:26Z</time>
      </trkpt>
      <trkpt lat="48.57987" lon="-3.03535">
        <ele>99</ele>
        <time>2025-02-28T17:43:37Z</time>
      </trkpt>
      <trkpt lat="48.58009" lon="-3.03461">
        <ele>98</ele>
        <time>2025-02-28T17:43:46Z</time>
      </trkpt>
      <trkpt lat="48.5806" lon="-3.03349">
        <ele>97</ele>
        <time>2025-02-28T17:44:02Z</time>
      </trkpt>
      <trkpt lat="48.58075" lon="-3.03296">
        <ele>98</ele>
        <time>2025-02-28T17:44:09Z</time>
      </trkpt>
      <trkpt lat="48.58077" lon="-3.03218">
        <ele>99</ele>
        <time>2025-02-28T17:44:18Z</time>
      </trkpt>
      <trkpt lat="48.58087" lon="-3.03132">
        <ele>100</ele>
        <time>2025-02-28T17:44:29Z</time>
      </trkpt>
      <trkpt lat="48.58083" lon="-3.03131">
        <ele>100</ele>
        <time>2025-02-28T17:44:29Z</time>
      </trkpt>
      <trkpt lat="48.58087" lon="-3.03132">
        <ele>100</ele>
        <time>2025-02-28T17:44:30Z</time>
      </trkpt>
      <trkpt lat="48.58108" lon="-3.03134">
        <ele>100</ele>
        <time>2025-02-28T17:44:34Z</time>
      </trkpt>
      <trkpt lat="48.58182" lon="-3.03136">
        <ele>99</ele>
        <time>2025-02-28T17:44:47Z</time>
      </trkpt>
      <trkpt lat="48.58291" lon="-3.03153">
        <ele>96</ele>
        <time>2025-02-28T17:45:07Z</time>
      </trkpt>
      <trkpt lat="48.58349" lon="-3.03156">
        <ele>95</ele>
        <time>2025-02-28T17:45:17Z</time>
      </trkpt>
      <trkpt lat="48.58416" lon="-3.03122">
        <ele>95</ele>
        <time>2025-02-28T17:45:29Z</time>
      </trkpt>
      <trkpt lat="48.58473" lon="-3.03097">
        <ele>95</ele>
        <time>2025-02-28T17:45:40Z</time>
      </trkpt>
      <trkpt lat="48.58537" lon="-3.03081">
        <ele>94</ele>
        <time>2025-02-28T17:45:52Z</time>
      </trkpt>
      <trkpt lat="48.58597" lon="-3.0305">
        <ele>92</ele>
        <time>2025-02-28T17:46:03Z</time>
      </trkpt>
      <trkpt lat="48.5862" lon="-3.03033">
        <ele>92</ele>
        <time>2025-02-28T17:46:07Z</time>
      </trkpt>
      <trkpt lat="48.58629" lon="-3.03026">
        <ele>92</ele>
        <time>2025-02-28T17:46:09Z</time>
      </trkpt>
      <trkpt lat="48.58657" lon="-3.03023">
        <ele>91</ele>
        <time>2025-02-28T17:46:14Z</time>
      </trkpt>
      <trkpt lat="48.58752" lon="-3.03024">
        <ele>92</ele>
        <time>2025-02-28T17:46:31Z</time>
      </trkpt>
      <trkpt lat="48.58764" lon="-3.03024">
        <ele>92</ele>
        <time>2025-02-28T17:46:33Z</time>
      </trkpt>
      <trkpt lat="48.58811" lon="-3.03017">
        <ele>92</ele>
        <time>2025-02-28T17:46:42Z</time>
      </trkpt>
      <trkpt lat="48.58847" lon="-3.02957">
        <ele>93</ele>
        <time>2025-02-28T17:46:51Z</time>
      </trkpt>
      <trkpt lat="48.58938" lon="-3.02762">
        <ele>86</ele>
        <time>2025-02-28T17:47:19Z</time>
      </trkpt>
      <trkpt lat="48.58973" lon="-3.02724">
        <ele>82</ele>
        <time>2025-02-28T17:47:27Z</time>
      </trkpt>
      <trkpt lat="48.59004" lon="-3.02733">
        <ele>79</ele>
        <time>2025-02-28T17:47:33Z</time>
      </trkpt>
      <trkpt lat="48.59043" lon="-3.02757">
        <ele>77</ele>
        <time>2025-02-28T17:47:40Z</time>
      </trkpt>
      <trkpt lat="48.59084" lon="-3.02772">
        <ele>75</ele>
        <time>2025-02-28T17:47:48Z</time>
      </trkpt>
      <trkpt lat="48.59132" lon="-3.02741">
        <ele>75</ele>
        <time>2025-02-28T17:47:57Z</time>
      </trkpt>
      <trkpt lat="48.59167" lon="-3.0273">
        <ele>75</ele>
        <time>2025-02-28T17:48:03Z</time>
      </trkpt>
      <trkpt lat="48.59268" lon="-3.02771">
        <ele>74</ele>
        <time>2025-02-28T17:48:22Z</time>
      </trkpt>
      <trkpt lat="48.59313" lon="-3.02792">
        <ele>76</ele>
        <time>2025-02-28T17:48:30Z</time>
      </trkpt>
      <trkpt lat="48.59353" lon="-3.02816">
        <ele>76</ele>
        <time>2025-02-28T17:48:38Z</time>
      </trkpt>
      <trkpt lat="48.59407" lon="-3.02849">
        <ele>75</ele>
        <time>2025-02-28T17:48:48Z</time>
      </trkpt>
      <trkpt lat="48.59448" lon="-3.02855">
        <ele>74</ele>
        <time>2025-02-28T17:48:56Z</time>
      </trkpt>
      <trkpt lat="48.59481" lon="-3.02847">
        <ele>74</ele>
        <time>2025-02-28T17:49:02Z</time>
      </trkpt>
      <trkpt lat="48.59528" lon="-3.02828">
        <ele>76</ele>
        <time>2025-02-28T17:49:10Z</time>
      </trkpt>
      <trkpt lat="48.59544" lon="-3.02816">
        <ele>77</ele>
        <time>2025-02-28T17:49:13Z</time>
      </trkpt>
      <trkpt lat="48.5958" lon="-3.02788">
        <ele>80</ele>
        <time>2025-02-28T17:49:21Z</time>
      </trkpt>
      <trkpt lat="48.59594" lon="-3.02777">
        <ele>81</ele>
        <time>2025-02-28T17:49:23Z</time>
      </trkpt>
      <trkpt lat="48.59624" lon="-3.02715">
        <ele>85</ele>
        <time>2025-02-28T17:49:32Z</time>
      </trkpt>
      <trkpt lat="48.5964" lon="-3.02636">
        <ele>88</ele>
        <time>2025-02-28T17:49:42Z</time>
      </trkpt>
      <trkpt lat="48.59652" lon="-3.02562">
        <ele>92</ele>
        <time>2025-02-28T17:49:51Z</time>
      </trkpt>
      <trkpt lat="48.59669" lon="-3.02529">
        <ele>93</ele>
        <time>2025-02-28T17:49:56Z</time>
      </trkpt>
      <trkpt lat="48.59677" lon="-3.02526">
        <ele>93</ele>
        <time>2025-02-28T17:49:57Z</time>
      </trkpt>
      <trkpt lat="48.59706" lon="-3.02506">
        <ele>94</ele>
        <time>2025-02-28T17:50:03Z</time>
      </trkpt>
      <trkpt lat="48.59847" lon="-3.0241">
        <ele>93</ele>
        <time>2025-02-28T17:50:31Z</time>
      </trkpt>
      <trkpt lat="48.59869" lon="-3.02391">
        <ele>93</ele>
        <time>2025-02-28T17:50:35Z</time>
      </trkpt>
      <trkpt lat="48.59888" lon="-3.0236">
        <ele>93</ele>
        <time>2025-02-28T17:50:40Z</time>
      </trkpt>
      <trkpt lat="48.59921" lon="-3.02311">
        <ele>93</ele>
        <time>2025-02-28T17:50:48Z</time>
      </trkpt>
      <trkpt lat="48.59988" lon="-3.02203">
        <ele>93</ele>
        <time>2025-02-28T17:51:06Z</time>
      </trkpt>
      <trkpt lat="48.60024" lon="-3.02124">
        <ele>92</ele>
        <time>2025-02-28T17:51:17Z</time>
      </trkpt>
      <trkpt lat="48.60034" lon="-3.0211">
        <ele>92</ele>
        <time>2025-02-28T17:51:19Z</time>
      </trkpt>
      <trkpt lat="48.60046" lon="-3.02101">
        <ele>93</ele>
        <time>2025-02-28T17:51:22Z</time>
      </trkpt>
      <trkpt lat="48.60119" lon="-3.0206">
        <ele>93</ele>
        <time>2025-02-28T17:51:36Z</time>
      </trkpt>
      <trkpt lat="48.60158" lon="-3.02031">
        <ele>94</ele>
        <time>2025-02-28T17:51:43Z</time>
      </trkpt>
      <trkpt lat="48.60231" lon="-3.01961">
        <ele>94</ele>
        <time>2025-02-28T17:51:59Z</time>
      </trkpt>
      <trkpt lat="48.60237" lon="-3.01954">
        <ele>94</ele>
        <time>2025-02-28T17:52:00Z</time>
      </trkpt>
      <trkpt lat="48.60332" lon="-3.01858">
        <ele>93</ele>
        <time>2025-02-28T17:52:21Z</time>
      </trkpt>
      <trkpt lat="48.6027" lon="-3.01753">
        <ele>94</ele>
        <time>2025-02-28T17:52:37Z</time>
      </trkpt>
      <trkpt lat="48.60211" lon="-3.01641">
        <ele>95</ele>
        <time>2025-02-28T17:52:54Z</time>
      </trkpt>
      <trkpt lat="48.60193" lon="-3.01614">
        <ele>95</ele>
        <time>2025-02-28T17:52:58Z</time>
      </trkpt>
      <trkpt lat="48.60078" lon="-3.01454">
        <ele>99</ele>
        <time>2025-02-28T17:53:26Z</time>
      </trkpt>
      <trkpt lat="48.60056" lon="-3.01415">
        <ele>100</ele>
        <time>2025-02-28T17:53:32Z</time>
      </trkpt>
      <trkpt lat="48.59998" lon="-3.01317">
        <ele>99</ele>
        <time>2025-02-28T17:53:48Z</time>
      </trkpt>
      <trkpt lat="48.59905" lon="-3.01192">
        <ele>100</ele>
        <time>2025-02-28T17:54:10Z</time>
      </trkpt>
      <trkpt lat="48.59891" lon="-3.01174">
        <ele>100</ele>
        <time>2025-02-28T17:54:13Z</time>
      </trkpt>
      <trkpt lat="48.59861" lon="-3.0113">
        <ele>101</ele>
        <time>2025-02-28T17:54:21Z</time>
      </trkpt>
      <trkpt lat="48.59784" lon="-3.01009">
        <ele>100</ele>
        <time>2025-02-28T17:54:40Z</time>
      </trkpt>
      <trkpt lat="48.59733" lon="-3.00945">
        <ele>101</ele>
        <time>2025-02-28T17:54:52Z</time>
      </trkpt>
      <trkpt lat="48.597" lon="-3.00926">
        <ele>102</ele>
        <time>2025-02-28T17:54:58Z</time>
      </trkpt>
      <trkpt lat="48.59637" lon="-3.00917">
        <ele>102</ele>
        <time>2025-02-28T17:55:10Z</time>
      </trkpt>
      <trkpt lat="48.59579" lon="-3.00926">
        <ele>101</ele>
        <time>2025-02-28T17:55:20Z</time>
      </trkpt>
      <trkpt lat="48.5952" lon="-3.00914">
        <ele>100</ele>
        <time>2025-02-28T17:55:31Z</time>
      </trkpt>
      <trkpt lat="48.59513" lon="-3.00913">
        <ele>100</ele>
        <time>2025-02-28T17:55:32Z</time>
      </trkpt>
      <trkpt lat="48.59462" lon="-3.00889">
        <ele>100</ele>
        <time>2025-02-28T17:55:41Z</time>
      </trkpt>
      <trkpt lat="48.59311" lon="-3.00727">
        <ele>101</ele>
        <time>2025-02-28T17:56:14Z</time>
      </trkpt>
      <trkpt lat="48.59221" lon="-3.00637">
        <ele>101</ele>
        <time>2025-02-28T17:56:34Z</time>
      </trkpt>
      <trkpt lat="48.59135" lon="-3.00597">
        <ele>101</ele>
        <time>2025-02-28T17:56:50Z</time>
      </trkpt>
      <trkpt lat="48.59012" lon="-3.00508">
        <ele>102</ele>
        <time>2025-02-28T17:57:14Z</time>
      </trkpt>
      <trkpt lat="48.5896" lon="-3.00468">
        <ele>102</ele>
        <time>2025-02-28T17:57:24Z</time>
      </trkpt>
      <trkpt lat="48.58889" lon="-3.00462">
        <ele>101</ele>
        <time>2025-02-28T17:57:37Z</time>
      </trkpt>
      <trkpt lat="48.5881" lon="-3.00437">
        <ele>100</ele>
        <time>2025-02-28T17:57:51Z</time>
      </trkpt>
      <trkpt lat="48.58729" lon="-3.00429">
        <ele>100</ele>
        <time>2025-02-28T17:58:06Z</time>
      </trkpt>
      <trkpt lat="48.58683" lon="-3.00432">
        <ele>101</ele>
        <time>2025-02-28T17:58:14Z</time>
      </trkpt>
      <trkpt lat="48.58391" lon="-3.00554">
        <ele>103</ele>
        <time>2025-02-28T17:59:08Z</time>
      </trkpt>
      <trkpt lat="48.58291" lon="-3.00615">
        <ele>104</ele>
        <time>2025-02-28T17:59:27Z</time>
      </trkpt>
      <trkpt lat="48.58272" lon="-3.00613">
        <ele>104</ele>
        <time>2025-02-28T17:59:30Z</time>
      </trkpt>
      <trkpt lat="48.58149" lon="-3.00555">
        <ele>104</ele>
        <time>2025-02-28T17:59:53Z</time>
      </trkpt>
      <trkpt lat="48.58097" lon="-3.00533">
        <ele>105</ele>
        <time>2025-02-28T18:00:03Z</time>
      </trkpt>
      <trkpt lat="48.58035" lon="-3.00511">
        <ele>106</ele>
        <time>2025-02-28T18:00:14Z</time>
      </trkpt>
      <trkpt lat="48.5787" lon="-3.00468">
        <ele>109</ele>
        <time>2025-02-28T18:00:44Z</time>
      </trkpt>
      <trkpt lat="48.57843" lon="-3.00467">
        <ele>110</ele>
        <time>2025-02-28T18:00:49Z</time>
      </trkpt>
      <trkpt lat="48.57801" lon="-3.00474">
        <ele>110</ele>
        <time>2025-02-28T18:00:56Z</time>
      </trkpt>
      <trkpt lat="48.57783" lon="-3.00464">
        <ele>111</ele>
        <time>2025-02-28T18:01:00Z</time>
      </trkpt>
      <trkpt lat="48.57745" lon="-3.00429">
        <ele>113</ele>
        <time>2025-02-28T18:01:08Z</time>
      </trkpt>
      <trkpt lat="48.57694" lon="-3.00361">
        <ele>118</ele>
        <time>2025-02-28T18:01:20Z</time>
      </trkpt>
      <trkpt lat="48.57677" lon="-3.00348">
        <ele>119</ele>
        <time>2025-02-28T18:01:23Z</time>
      </trkpt>
      <trkpt lat="48.57668" lon="-3.00341">
        <ele>120</ele>
        <time>2025-02-28T18:01:25Z</time>
      </trkpt>
      <trkpt lat="48.57655" lon="-3.00313">
        <ele>120</ele>
        <time>2025-02-28T18:01:29Z</time>
      </trkpt>
      <trkpt lat="48.57652" lon="-3.00293">
        <ele>121</ele>
        <time>2025-02-28T18:01:31Z</time>
      </trkpt>
      <trkpt lat="48.57656" lon="-3.00183">
        <ele>122</ele>
        <time>2025-02-28T18:01:44Z</time>
      </trkpt>
      <trkpt lat="48.57623" lon="-3.00132">
        <ele>123</ele>
        <time>2025-02-28T18:01:53Z</time>
      </trkpt>
      <trkpt lat="48.57596" lon="-3.0008">
        <ele>125</ele>
        <time>2025-02-28T18:02:01Z</time>
      </trkpt>
      <trkpt lat="48.57558" lon="-3.00048">
        <ele>125</ele>
        <time>2025-02-28T18:02:08Z</time>
      </trkpt>
      <trkpt lat="48.57492" lon="-2.9999">
        <ele>127</ele>
        <time>2025-02-28T18:02:22Z</time>
      </trkpt>
      <trkpt lat="48.57404" lon="-2.9988">
        <ele>125</ele>
        <time>2025-02-28T18:02:42Z</time>
      </trkpt>
      <trkpt lat="48.574" lon="-2.99877">
        <ele>125</ele>
        <time>2025-02-28T18:02:43Z</time>
      </trkpt>
      <trkpt lat="48.57375" lon="-2.99861">
        <ele>125</ele>
        <time>2025-02-28T18:02:48Z</time>
      </trkpt>
      <trkpt lat="48.57295" lon="-2.99824">
        <ele>123</ele>
        <time>2025-02-28T18:03:03Z</time>
      </trkpt>
      <trkpt lat="48.57261" lon="-2.99789">
        <ele>122</ele>
        <time>2025-02-28T18:03:10Z</time>
      </trkpt>
      <trkpt lat="48.57199" lon="-2.9971">
        <ele>117</ele>
        <time>2025-02-28T18:03:24Z</time>
      </trkpt>
      <trkpt lat="48.57179" lon="-2.99695">
        <ele>116</ele>
        <time>2025-02-28T18:03:28Z</time>
      </trkpt>
      <trkpt lat="48.57158" lon="-2.99685">
        <ele>115</ele>
        <time>2025-02-28T18:03:32Z</time>
      </trkpt>
      <trkpt lat="48.57138" lon="-2.99669">
        <ele>115</ele>
        <time>2025-02-28T18:03:36Z</time>
      </trkpt>
      <trkpt lat="48.57091" lon="-2.99608">
        <ele>109</ele>
        <time>2025-02-28T18:03:47Z</time>
      </trkpt>
      <trkpt lat="48.5707" lon="-2.9959">
        <ele>107</ele>
        <time>2025-02-28T18:03:52Z</time>
      </trkpt>
      <trkpt lat="48.57035" lon="-2.99571">
        <ele>105</ele>
        <time>2025-02-28T18:03:58Z</time>
      </trkpt>
      <trkpt lat="48.57006" lon="-2.99569">
        <ele>105</ele>
        <time>2025-02-28T18:04:03Z</time>
      </trkpt>
      <trkpt lat="48.56953" lon="-2.99574">
        <ele>104</ele>
        <time>2025-02-28T18:04:13Z</time>
      </trkpt>
      <trkpt lat="48.5693" lon="-2.99572">
        <ele>104</ele>
        <time>2025-02-28T18:04:17Z</time>
      </trkpt>
      <trkpt lat="48.5692" lon="-2.99563">
        <ele>103</ele>
        <time>2025-02-28T18:04:19Z</time>
      </trkpt>
      <trkpt lat="48.5689" lon="-2.99529">
        <ele>102</ele>
        <time>2025-02-28T18:04:26Z</time>
      </trkpt>
      <trkpt lat="48.56867" lon="-2.99506">
        <ele>102</ele>
        <time>2025-02-28T18:04:31Z</time>
      </trkpt>
      <trkpt lat="48.56844" lon="-2.99493">
        <ele>103</ele>
        <time>2025-02-28T18:04:35Z</time>
      </trkpt>
      <trkpt lat="48.56815" lon="-2.99494">
        <ele>104</ele>
        <time>2025-02-28T18:04:40Z</time>
      </trkpt>
      <trkpt lat="48.56778" lon="-2.99507">
        <ele>105</ele>
        <time>2025-02-28T18:04:47Z</time>
      </trkpt>
      <trkpt lat="48.56755" lon="-2.99525">
        <ele>105</ele>
        <time>2025-02-28T18:04:52Z</time>
      </trkpt>
      <trkpt lat="48.56658" lon="-2.9963">
        <ele>107</ele>
        <time>2025-02-28T18:05:13Z</time>
      </trkpt>
      <trkpt lat="48.56623" lon="-2.99653">
        <ele>109</ele>
        <time>2025-02-28T18:05:20Z</time>
      </trkpt>
      <trkpt lat="48.56591" lon="-2.99668">
        <ele>111</ele>
        <time>2025-02-28T18:05:26Z</time>
      </trkpt>
      <trkpt lat="48.56561" lon="-2.99673">
        <ele>112</ele>
        <time>2025-02-28T18:05:31Z</time>
      </trkpt>
      <trkpt lat="48.56546" lon="-2.99668">
        <ele>112</ele>
        <time>2025-02-28T18:05:34Z</time>
      </trkpt>
      <trkpt lat="48.56533" lon="-2.99658">
        <ele>113</ele>
        <time>2025-02-28T18:05:36Z</time>
      </trkpt>
      <trkpt lat="48.56462" lon="-2.99578">
        <ele>118</ele>
        <time>2025-02-28T18:05:52Z</time>
      </trkpt>
      <trkpt lat="48.56393" lon="-2.99496">
        <ele>122</ele>
        <time>2025-02-28T18:06:08Z</time>
      </trkpt>
      <trkpt lat="48.56371" lon="-2.99474">
        <ele>122</ele>
        <time>2025-02-28T18:06:12Z</time>
      </trkpt>
      <trkpt lat="48.56315" lon="-2.99437">
        <ele>123</ele>
        <time>2025-02-28T18:06:23Z</time>
      </trkpt>
      <trkpt lat="48.56291" lon="-2.9941">
        <ele>122</ele>
        <time>2025-02-28T18:06:29Z</time>
      </trkpt>
      <trkpt lat="48.56268" lon="-2.99377">
        <ele>121</ele>
        <time>2025-02-28T18:06:34Z</time>
      </trkpt>
      <trkpt lat="48.56238" lon="-2.99315">
        <ele>121</ele>
        <time>2025-02-28T18:06:43Z</time>
      </trkpt>
      <trkpt lat="48.56211" lon="-2.99257">
        <ele>122</ele>
        <time>2025-02-28T18:06:52Z</time>
      </trkpt>
      <trkpt lat="48.56154" lon="-2.99158">
        <ele>118</ele>
        <time>2025-02-28T18:07:07Z</time>
      </trkpt>
      <trkpt lat="48.56139" lon="-2.99128">
        <ele>118</ele>
        <time>2025-02-28T18:07:11Z</time>
      </trkpt>
      <trkpt lat="48.56123" lon="-2.9907">
        <ele>119</ele>
        <time>2025-02-28T18:07:19Z</time>
      </trkpt>
      <trkpt lat="48.56112" lon="-2.99048">
        <ele>119</ele>
        <time>2025-02-28T18:07:22Z</time>
      </trkpt>
      <trkpt lat="48.561" lon="-2.9903">
        <ele>119</ele>
        <time>2025-02-28T18:07:25Z</time>
      </trkpt>
      <trkpt lat="48.5608" lon="-2.99006">
        <ele>119</ele>
        <time>2025-02-28T18:07:30Z</time>
      </trkpt>
      <trkpt lat="48.5607" lon="-2.9899">
        <ele>119</ele>
        <time>2025-02-28T18:07:32Z</time>
      </trkpt>
      <trkpt lat="48.56059" lon="-2.98967">
        <ele>120</ele>
        <time>2025-02-28T18:07:36Z</time>
      </trkpt>
      <trkpt lat="48.56034" lon="-2.98895">
        <ele>120</ele>
        <time>2025-02-28T18:07:45Z</time>
      </trkpt>
      <trkpt lat="48.56007" lon="-2.9883">
        <ele>120</ele>
        <time>2025-02-28T18:07:54Z</time>
      </trkpt>
      <trkpt lat="48.55992" lon="-2.988">
        <ele>120</ele>
        <time>2025-02-28T18:07:59Z</time>
      </trkpt>
      <trkpt lat="48.55981" lon="-2.98782">
        <ele>121</ele>
        <time>2025-02-28T18:08:01Z</time>
      </trkpt>
      <trkpt lat="48.55964" lon="-2.98766">
        <ele>121</ele>
        <time>2025-02-28T18:08:05Z</time>
      </trkpt>
      <trkpt lat="48.55946" lon="-2.9875">
        <ele>122</ele>
        <time>2025-02-28T18:08:09Z</time>
      </trkpt>
      <trkpt lat="48.55923" lon="-2.98719">
        <ele>122</ele>
        <time>2025-02-28T18:08:14Z</time>
      </trkpt>
      <trkpt lat="48.55866" lon="-2.98631">
        <ele>124</ele>
        <time>2025-02-28T18:08:29Z</time>
      </trkpt>
      <trkpt lat="48.55836" lon="-2.98591">
        <ele>125</ele>
        <time>2025-02-28T18:08:36Z</time>
      </trkpt>
      <trkpt lat="48.55784" lon="-2.98528">
        <ele>125</ele>
        <time>2025-02-28T18:08:48Z</time>
      </trkpt>
      <trkpt lat="48.55747" lon="-2.98493">
        <ele>125</ele>
        <time>2025-02-28T18:08:55Z</time>
      </trkpt>
      <trkpt lat="48.55693" lon="-2.98423">
        <ele>124</ele>
        <time>2025-02-28T18:09:08Z</time>
      </trkpt>
      <trkpt lat="48.55652" lon="-2.98384">
        <ele>124</ele>
        <time>2025-02-28T18:09:17Z</time>
      </trkpt>
      <trkpt lat="48.55638" lon="-2.98364">
        <ele>124</ele>
        <time>2025-02-28T18:09:20Z</time>
      </trkpt>
      <trkpt lat="48.55601" lon="-2.98309">
        <ele>124</ele>
        <time>2025-02-28T18:09:29Z</time>
      </trkpt>
      <trkpt lat="48.55537" lon="-2.98201">
        <ele>121</ele>
        <time>2025-02-28T18:09:47Z</time>
      </trkpt>
      <trkpt lat="48.55504" lon="-2.98143">
        <ele>120</ele>
        <time>2025-02-28T18:09:56Z</time>
      </trkpt>
      <trkpt lat="48.55495" lon="-2.98121">
        <ele>119</ele>
        <time>2025-02-28T18:09:59Z</time>
      </trkpt>
      <trkpt lat="48.55475" lon="-2.98043">
        <ele>117</ele>
        <time>2025-02-28T18:10:08Z</time>
      </trkpt>
      <trkpt lat="48.55464" lon="-2.98051">
        <ele>117</ele>
        <time>2025-02-28T18:10:11Z</time>
      </trkpt>
      <trkpt lat="48.55427" lon="-2.98092">
        <ele>118</ele>
        <time>2025-02-28T18:10:19Z</time>
      </trkpt>
      <trkpt lat="48.55388" lon="-2.98128">
        <ele>120</ele>
        <time>2025-02-28T18:10:27Z</time>
      </trkpt>
      <trkpt lat="48.5537" lon="-2.98142">
        <ele>120</ele>
        <time>2025-02-28T18:10:30Z</time>
      </trkpt>
      <trkpt lat="48.55348" lon="-2.98149">
        <ele>120</ele>
        <time>2025-02-28T18:10:34Z</time>
      </trkpt>
      <trkpt lat="48.55322" lon="-2.98149">
        <ele>120</ele>
        <time>2025-02-28T18:10:39Z</time>
      </trkpt>
      <trkpt lat="48.55278" lon="-2.98134">
        <ele>119</ele>
        <time>2025-02-28T18:10:47Z</time>
      </trkpt>
      <trkpt lat="48.5512" lon="-2.98128">
        <ele>116</ele>
        <time>2025-02-28T18:11:15Z</time>
      </trkpt>
      <trkpt lat="48.55069" lon="-2.98124">
        <ele>116</ele>
        <time>2025-02-28T18:11:24Z</time>
      </trkpt>
      <trkpt lat="48.54996" lon="-2.9809">
        <ele>117</ele>
        <time>2025-02-28T18:11:38Z</time>
      </trkpt>
      <trkpt lat="48.54951" lon="-2.98078">
        <ele>115</ele>
        <time>2025-02-28T18:11:46Z</time>
      </trkpt>
      <trkpt lat="48.54937" lon="-2.98078">
        <ele>115</ele>
        <time>2025-02-28T18:11:49Z</time>
      </trkpt>
      <trkpt lat="48.54916" lon="-2.98083">
        <ele>114</ele>
        <time>2025-02-28T18:11:52Z</time>
      </trkpt>
      <trkpt lat="48.54874" lon="-2.98106">
        <ele>114</ele>
        <time>2025-02-28T18:12:00Z</time>
      </trkpt>
      <trkpt lat="48.54856" lon="-2.98112">
        <ele>114</ele>
        <time>2025-02-28T18:12:04Z</time>
      </trkpt>
      <trkpt lat="48.54836" lon="-2.98113">
        <ele>114</ele>
        <time>2025-02-28T18:12:07Z</time>
      </trkpt>
      <trkpt lat="48.54816" lon="-2.98109">
        <ele>114</ele>
        <time>2025-02-28T18:12:11Z</time>
      </trkpt>
      <trkpt lat="48.5478" lon="-2.9809">
        <ele>115</ele>
        <time>2025-02-28T18:12:17Z</time>
      </trkpt>
      <trkpt lat="48.54736" lon="-2.98061">
        <ele>114</ele>
        <time>2025-02-28T18:12:26Z</time>
      </trkpt>
      <trkpt lat="48.54712" lon="-2.98041">
        <ele>114</ele>
        <time>2025-02-28T18:12:31Z</time>
      </trkpt>
      <trkpt lat="48.54685" lon="-2.98006">
        <ele>114</ele>
        <time>2025-02-28T18:12:37Z</time>
      </trkpt>
      <trkpt lat="48.54642" lon="-2.97941">
        <ele>115</ele>
        <time>2025-02-28T18:12:48Z</time>
      </trkpt>
      <trkpt lat="48.54627" lon="-2.97921">
        <ele>117</ele>
        <time>2025-02-28T18:12:52Z</time>
      </trkpt>
      <trkpt lat="48.54615" lon="-2.97908">
        <ele>118</ele>
        <time>2025-02-28T18:12:54Z</time>
      </trkpt>
      <trkpt lat="48.54597" lon="-2.97896">
        <ele>120</ele>
        <time>2025-02-28T18:12:58Z</time>
      </trkpt>
      <trkpt lat="48.5457" lon="-2.97888">
        <ele>121</ele>
        <time>2025-02-28T18:13:03Z</time>
      </trkpt>
      <trkpt lat="48.54554" lon="-2.97882">
        <ele>121</ele>
        <time>2025-02-28T18:13:06Z</time>
      </trkpt>
      <trkpt lat="48.54495" lon="-2.97869">
        <ele>119</ele>
        <time>2025-02-28T18:13:16Z</time>
      </trkpt>
      <trkpt lat="48.54388" lon="-2.9785">
        <ele>114</ele>
        <time>2025-02-28T18:13:35Z</time>
      </trkpt>
      <trkpt lat="48.54372" lon="-2.9784">
        <ele>114</ele>
        <time>2025-02-28T18:13:38Z</time>
      </trkpt>
      <trkpt lat="48.5435" lon="-2.97821">
        <ele>114</ele>
        <time>2025-02-28T18:13:43Z</time>
      </trkpt>
      <trkpt lat="48.54325" lon="-2.97797">
        <ele>114</ele>
        <time>2025-02-28T18:13:48Z</time>
      </trkpt>
      <trkpt lat="48.5431" lon="-2.97777">
        <ele>114</ele>
        <time>2025-02-28T18:13:52Z</time>
      </trkpt>
      <trkpt lat="48.54275" lon="-2.97719">
        <ele>115</ele>
        <time>2025-02-28T18:14:01Z</time>
      </trkpt>
      <trkpt lat="48.5426" lon="-2.97696">
        <ele>114</ele>
        <time>2025-02-28T18:14:05Z</time>
      </trkpt>
      <trkpt lat="48.5419" lon="-2.97615">
        <ele>113</ele>
        <time>2025-02-28T18:14:21Z</time>
      </trkpt>
      <trkpt lat="48.54174" lon="-2.97599">
        <ele>112</ele>
        <time>2025-02-28T18:14:24Z</time>
      </trkpt>
      <trkpt lat="48.54162" lon="-2.97592">
        <ele>111</ele>
        <time>2025-02-28T18:14:26Z</time>
      </trkpt>
      <trkpt lat="48.54165" lon="-2.97515">
        <ele>108</ele>
        <time>2025-02-28T18:14:35Z</time>
      </trkpt>
      <trkpt lat="48.54167" lon="-2.9746">
        <ele>106</ele>
        <time>2025-02-28T18:14:42Z</time>
      </trkpt>
      <trkpt lat="48.54167" lon="-2.9745">
        <ele>106</ele>
        <time>2025-02-28T18:14:43Z</time>
      </trkpt>
      <trkpt lat="48.54169" lon="-2.97398">
        <ele>104</ele>
        <time>2025-02-28T18:14:49Z</time>
      </trkpt>
      <trkpt lat="48.54169" lon="-2.9738">
        <ele>104</ele>
        <time>2025-02-28T18:14:51Z</time>
      </trkpt>
      <trkpt lat="48.54173" lon="-2.97346">
        <ele>102</ele>
        <time>2025-02-28T18:14:55Z</time>
      </trkpt>
      <trkpt lat="48.54178" lon="-2.97327">
        <ele>101</ele>
        <time>2025-02-28T18:14:58Z</time>
      </trkpt>
      <trkpt lat="48.54188" lon="-2.97294">
        <ele>100</ele>
        <time>2025-02-28T18:15:02Z</time>
      </trkpt>
      <trkpt lat="48.54209" lon="-2.9723">
        <ele>98</ele>
        <time>2025-02-28T18:15:10Z</time>
      </trkpt>
      <trkpt lat="48.54224" lon="-2.9718">
        <ele>98</ele>
        <time>2025-02-28T18:15:17Z</time>
      </trkpt>
      <trkpt lat="48.54227" lon="-2.97171">
        <ele>97</ele>
        <time>2025-02-28T18:15:18Z</time>
      </trkpt>
      <trkpt lat="48.54231" lon="-2.97157">
        <ele>97</ele>
        <time>2025-02-28T18:15:20Z</time>
      </trkpt>
      <trkpt lat="48.54247" lon="-2.97106">
        <ele>98</ele>
        <time>2025-02-28T18:15:27Z</time>
      </trkpt>
      <trkpt lat="48.54264" lon="-2.97053">
        <ele>100</ele>
        <time>2025-02-28T18:15:33Z</time>
      </trkpt>
      <trkpt lat="48.54271" lon="-2.97033">
        <ele>101</ele>
        <time>2025-02-28T18:15:36Z</time>
      </trkpt>
      <trkpt lat="48.54284" lon="-2.96987">
        <ele>102</ele>
        <time>2025-02-28T18:15:42Z</time>
      </trkpt>
      <trkpt lat="48.54312" lon="-2.96899">
        <ele>102</ele>
        <time>2025-02-28T18:15:53Z</time>
      </trkpt>
      <trkpt lat="48.5432" lon="-2.96875">
        <ele>102</ele>
        <time>2025-02-28T18:15:57Z</time>
      </trkpt>
      <trkpt lat="48.54349" lon="-2.96782">
        <ele>105</ele>
        <time>2025-02-28T18:16:09Z</time>
      </trkpt>
      <trkpt lat="48.5437" lon="-2.96713">
        <ele>109</ele>
        <time>2025-02-28T18:16:18Z</time>
      </trkpt>
      <trkpt lat="48.54377" lon="-2.96693">
        <ele>110</ele>
        <time>2025-02-28T18:16:20Z</time>
      </trkpt>
      <trkpt lat="48.54415" lon="-2.9662">
        <ele>114</ele>
        <time>2025-02-28T18:16:31Z</time>
      </trkpt>
      <trkpt lat="48.5442" lon="-2.9661">
        <ele>114</ele>
        <time>2025-02-28T18:16:33Z</time>
      </trkpt>
      <trkpt lat="48.54459" lon="-2.96535">
        <ele>117</ele>
        <time>2025-02-28T18:16:44Z</time>
      </trkpt>
      <trkpt lat="48.54474" lon="-2.965">
        <ele>118</ele>
        <time>2025-02-28T18:16:49Z</time>
      </trkpt>
      <trkpt lat="48.54483" lon="-2.96471">
        <ele>118</ele>
        <time>2025-02-28T18:16:53Z</time>
      </trkpt>
      <trkpt lat="48.5449" lon="-2.96439">
        <ele>118</ele>
        <time>2025-02-28T18:16:57Z</time>
      </trkpt>
      <trkpt lat="48.54494" lon="-2.96402">
        <ele>118</ele>
        <time>2025-02-28T18:17:01Z</time>
      </trkpt>
      <trkpt lat="48.54495" lon="-2.96385">
        <ele>119</ele>
        <time>2025-02-28T18:17:03Z</time>
      </trkpt>
      <trkpt lat="48.54492" lon="-2.96348">
        <ele>120</ele>
        <time>2025-02-28T18:17:08Z</time>
      </trkpt>
      <trkpt lat="48.54486" lon="-2.96313">
        <ele>121</ele>
        <time>2025-02-28T18:17:12Z</time>
      </trkpt>
      <trkpt lat="48.54478" lon="-2.96282">
        <ele>122</ele>
        <time>2025-02-28T18:17:16Z</time>
      </trkpt>
      <trkpt lat="48.54461" lon="-2.96238">
        <ele>123</ele>
        <time>2025-02-28T18:17:22Z</time>
      </trkpt>
      <trkpt lat="48.54444" lon="-2.96211">
        <ele>123</ele>
        <time>2025-02-28T18:17:26Z</time>
      </trkpt>
      <trkpt lat="48.54423" lon="-2.96188">
        <ele>124</ele>
        <time>2025-02-28T18:17:31Z</time>
      </trkpt>
      <trkpt lat="48.54398" lon="-2.96168">
        <ele>125</ele>
        <time>2025-02-28T18:17:36Z</time>
      </trkpt>
      <trkpt lat="48.54335" lon="-2.96127">
        <ele>126</ele>
        <time>2025-02-28T18:17:48Z</time>
      </trkpt>
      <trkpt lat="48.54136" lon="-2.95998">
        <ele>133</ele>
        <time>2025-02-28T18:18:26Z</time>
      </trkpt>
      <trkpt lat="48.54129" lon="-2.95993">
        <ele>133</ele>
        <time>2025-02-28T18:18:28Z</time>
      </trkpt>
      <trkpt lat="48.54077" lon="-2.9595">
        <ele>133</ele>
        <time>2025-02-28T18:18:38Z</time>
      </trkpt>
      <trkpt lat="48.54046" lon="-2.95913">
        <ele>134</ele>
        <time>2025-02-28T18:18:45Z</time>
      </trkpt>
      <trkpt lat="48.54027" lon="-2.95887">
        <ele>134</ele>
        <time>2025-02-28T18:18:50Z</time>
      </trkpt>
      <trkpt lat="48.54005" lon="-2.95849">
        <ele>135</ele>
        <time>2025-02-28T18:18:56Z</time>
      </trkpt>
      <trkpt lat="48.53984" lon="-2.95808">
        <ele>134</ele>
        <time>2025-02-28T18:19:02Z</time>
      </trkpt>
      <trkpt lat="48.53975" lon="-2.95786">
        <ele>134</ele>
        <time>2025-02-28T18:19:05Z</time>
      </trkpt>
      <trkpt lat="48.53955" lon="-2.9573">
        <ele>133</ele>
        <time>2025-02-28T18:19:13Z</time>
      </trkpt>
      <trkpt lat="48.53863" lon="-2.95426">
        <ele>132</ele>
        <time>2025-02-28T18:19:52Z</time>
      </trkpt>
      <trkpt lat="48.53838" lon="-2.95352">
        <ele>130</ele>
        <time>2025-02-28T18:20:02Z</time>
      </trkpt>
      <trkpt lat="48.53803" lon="-2.95258">
        <ele>129</ele>
        <time>2025-02-28T18:20:14Z</time>
      </trkpt>
      <trkpt lat="48.53782" lon="-2.952">
        <ele>129</ele>
        <time>2025-02-28T18:20:22Z</time>
      </trkpt>
      <trkpt lat="48.53758" lon="-2.95143">
        <ele>130</ele>
        <time>2025-02-28T18:20:30Z</time>
      </trkpt>
      <trkpt lat="48.537" lon="-2.95014">
        <ele>131</ele>
        <time>2025-02-28T18:20:49Z</time>
      </trkpt>
      <trkpt lat="48.53676" lon="-2.94956">
        <ele>131</ele>
        <time>2025-02-28T18:20:57Z</time>
      </trkpt>
      <trkpt lat="48.53625" lon="-2.94815">
        <ele>134</ele>
        <time>2025-02-28T18:21:16Z</time>
      </trkpt>
      <trkpt lat="48.5362" lon="-2.94803">
        <ele>133</ele>
        <time>2025-02-28T18:21:17Z</time>
      </trkpt>
      <trkpt lat="48.53579" lon="-2.94682">
        <ele>134</ele>
        <time>2025-02-28T18:21:33Z</time>
      </trkpt>
      <trkpt lat="48.53467" lon="-2.94313">
        <ele>135</ele>
        <time>2025-02-28T18:22:21Z</time>
      </trkpt>
      <trkpt lat="48.53402" lon="-2.94117">
        <ele>137</ele>
        <time>2025-02-28T18:22:47Z</time>
      </trkpt>
      <trkpt lat="48.53374" lon="-2.9404">
        <ele>137</ele>
        <time>2025-02-28T18:22:57Z</time>
      </trkpt>
      <trkpt lat="48.53358" lon="-2.9399">
        <ele>136</ele>
        <time>2025-02-28T18:23:04Z</time>
      </trkpt>
      <trkpt lat="48.53348" lon="-2.93957">
        <ele>136</ele>
        <time>2025-02-28T18:23:08Z</time>
      </trkpt>
      <trkpt lat="48.53315" lon="-2.93861">
        <ele>136</ele>
        <time>2025-02-28T18:23:21Z</time>
      </trkpt>
      <trkpt lat="48.53291" lon="-2.93798">
        <ele>137</ele>
        <time>2025-02-28T18:23:29Z</time>
      </trkpt>
      <trkpt lat="48.53275" lon="-2.93764">
        <ele>137</ele>
        <time>2025-02-28T18:23:34Z</time>
      </trkpt>
      <trkpt lat="48.53239" lon="-2.93699">
        <ele>138</ele>
        <time>2025-02-28T18:23:44Z</time>
      </trkpt>
      <trkpt lat="48.53225" lon="-2.93681">
        <ele>139</ele>
        <time>2025-02-28T18:23:48Z</time>
      </trkpt>
      <trkpt lat="48.53212" lon="-2.93666">
        <ele>139</ele>
        <time>2025-02-28T18:23:50Z</time>
      </trkpt>
      <trkpt lat="48.53201" lon="-2.93657">
        <ele>140</ele>
        <time>2025-02-28T18:23:53Z</time>
      </trkpt>
      <trkpt lat="48.53176" lon="-2.93642">
        <ele>140</ele>
        <time>2025-02-28T18:23:57Z</time>
      </trkpt>
      <trkpt lat="48.53162" lon="-2.93634">
        <ele>141</ele>
        <time>2025-02-28T18:24:00Z</time>
      </trkpt>
      <trkpt lat="48.53127" lon="-2.93614">
        <ele>140</ele>
        <time>2025-02-28T18:24:07Z</time>
      </trkpt>
      <trkpt lat="48.53103" lon="-2.93597">
        <ele>140</ele>
        <time>2025-02-28T18:24:11Z</time>
      </trkpt>
      <trkpt lat="48.53097" lon="-2.93605">
        <ele>140</ele>
        <time>2025-02-28T18:24:13Z</time>
      </trkpt>
      <trkpt lat="48.53088" lon="-2.93609">
        <ele>140</ele>
        <time>2025-02-28T18:24:15Z</time>
      </trkpt>
      <trkpt lat="48.5308" lon="-2.93609">
        <ele>140</ele>
        <time>2025-02-28T18:24:16Z</time>
      </trkpt>
      <trkpt lat="48.53072" lon="-2.93605">
        <ele>140</ele>
        <time>2025-02-28T18:24:18Z</time>
      </trkpt>
      <trkpt lat="48.53065" lon="-2.93597">
        <ele>140</ele>
        <time>2025-02-28T18:24:19Z</time>
      </trkpt>
      <trkpt lat="48.5306" lon="-2.93587">
        <ele>140</ele>
        <time>2025-02-28T18:24:21Z</time>
      </trkpt>
      <trkpt lat="48.53058" lon="-2.93575">
        <ele>140</ele>
        <time>2025-02-28T18:24:22Z</time>
      </trkpt>
      <trkpt lat="48.53058" lon="-2.93562">
        <ele>140</ele>
        <time>2025-02-28T18:24:24Z</time>
      </trkpt>
      <trkpt lat="48.53061" lon="-2.93549">
        <ele>140</ele>
        <time>2025-02-28T18:24:25Z</time>
      </trkpt>
      <trkpt lat="48.53067" lon="-2.93539">
        <ele>140</ele>
        <time>2025-02-28T18:24:27Z</time>
      </trkpt>
      <trkpt lat="48.53075" lon="-2.93532">
        <ele>140</ele>
        <time>2025-02-28T18:24:28Z</time>
      </trkpt>
      <trkpt lat="48.53071" lon="-2.93516">
        <ele>140</ele>
        <time>2025-02-28T18:24:30Z</time>
      </trkpt>
      <trkpt lat="48.53071" lon="-2.93498">
        <ele>140</ele>
        <time>2025-02-28T18:24:33Z</time>
      </trkpt>
      <trkpt lat="48.53075" lon="-2.93479">
        <ele>139</ele>
        <time>2025-02-28T18:24:35Z</time>
      </trkpt>
      <trkpt lat="48.53103" lon="-2.93385">
        <ele>137</ele>
        <time>2025-02-28T18:24:47Z</time>
      </trkpt>
      <trkpt lat="48.5311" lon="-2.93353">
        <ele>137</ele>
        <time>2025-02-28T18:24:51Z</time>
      </trkpt>
      <trkpt lat="48.53112" lon="-2.93326">
        <ele>136</ele>
        <time>2025-02-28T18:24:54Z</time>
      </trkpt>
      <trkpt lat="48.53111" lon="-2.93144">
        <ele>132</ele>
        <time>2025-02-28T18:25:16Z</time>
      </trkpt>
      <trkpt lat="48.53073" lon="-2.9314">
        <ele>131</ele>
        <time>2025-02-28T18:25:22Z</time>
      </trkpt>
      <trkpt lat="48.52954" lon="-2.9308">
        <ele>129</ele>
        <time>2025-02-28T18:25:45Z</time>
      </trkpt>
      <trkpt lat="48.52917" lon="-2.93062">
        <ele>128</ele>
        <time>2025-02-28T18:25:52Z</time>
      </trkpt>
      <trkpt lat="48.52881" lon="-2.93044">
        <ele>127</ele>
        <time>2025-02-28T18:25:58Z</time>
      </trkpt>
      <trkpt lat="48.5283" lon="-2.9302">
        <ele>125</ele>
        <time>2025-02-28T18:26:08Z</time>
      </trkpt>
      <trkpt lat="48.52811" lon="-2.93013">
        <ele>124</ele>
        <time>2025-02-28T18:26:11Z</time>
      </trkpt>
      <trkpt lat="48.52788" lon="-2.9301">
        <ele>124</ele>
        <time>2025-02-28T18:26:15Z</time>
      </trkpt>
      <trkpt lat="48.52759" lon="-2.93013">
        <ele>124</ele>
        <time>2025-02-28T18:26:21Z</time>
      </trkpt>
      <trkpt lat="48.52715" lon="-2.93028">
        <ele>124</ele>
        <time>2025-02-28T18:26:29Z</time>
      </trkpt>
      <trkpt lat="48.52692" lon="-2.93026">
        <ele>124</ele>
        <time>2025-02-28T18:26:33Z</time>
      </trkpt>
      <trkpt lat="48.52667" lon="-2.93018">
        <ele>124</ele>
        <time>2025-02-28T18:26:37Z</time>
      </trkpt>
      <trkpt lat="48.52644" lon="-2.93003">
        <ele>125</ele>
        <time>2025-02-28T18:26:42Z</time>
      </trkpt>
      <trkpt lat="48.52591" lon="-2.92958">
        <ele>126</ele>
        <time>2025-02-28T18:26:53Z</time>
      </trkpt>
      <trkpt lat="48.52577" lon="-2.92951">
        <ele>127</ele>
        <time>2025-02-28T18:26:55Z</time>
      </trkpt>
      <trkpt lat="48.5256" lon="-2.92948">
        <ele>127</ele>
        <time>2025-02-28T18:26:58Z</time>
      </trkpt>
      <trkpt lat="48.52489" lon="-2.92963">
        <ele>128</ele>
        <time>2025-02-28T18:27:11Z</time>
      </trkpt>
      <trkpt lat="48.52471" lon="-2.92963">
        <ele>128</ele>
        <time>2025-02-28T18:27:14Z</time>
      </trkpt>
      <trkpt lat="48.52456" lon="-2.92961">
        <ele>129</ele>
        <time>2025-02-28T18:27:17Z</time>
      </trkpt>
      <trkpt lat="48.52357" lon="-2.9293">
        <ele>130</ele>
        <time>2025-02-28T18:27:35Z</time>
      </trkpt>
      <trkpt lat="48.52332" lon="-2.92917">
        <ele>130</ele>
        <time>2025-02-28T18:27:40Z</time>
      </trkpt>
      <trkpt lat="48.52273" lon="-2.92872">
        <ele>128</ele>
        <time>2025-02-28T18:27:51Z</time>
      </trkpt>
      <trkpt lat="48.52253" lon="-2.9286">
        <ele>128</ele>
        <time>2025-02-28T18:27:55Z</time>
      </trkpt>
      <trkpt lat="48.52233" lon="-2.92854">
        <ele>128</ele>
        <time>2025-02-28T18:27:59Z</time>
      </trkpt>
      <trkpt lat="48.52123" lon="-2.92833">
        <ele>129</ele>
        <time>2025-02-28T18:28:19Z</time>
      </trkpt>
      <trkpt lat="48.52105" lon="-2.92826">
        <ele>130</ele>
        <time>2025-02-28T18:28:22Z</time>
      </trkpt>
      <trkpt lat="48.52081" lon="-2.92812">
        <ele>131</ele>
        <time>2025-02-28T18:28:26Z</time>
      </trkpt>
      <trkpt lat="48.51993" lon="-2.92747">
        <ele>136</ele>
        <time>2025-02-28T18:28:44Z</time>
      </trkpt>
      <trkpt lat="48.51964" lon="-2.92721">
        <ele>137</ele>
        <time>2025-02-28T18:28:50Z</time>
      </trkpt>
      <trkpt lat="48.51871" lon="-2.92618">
        <ele>141</ele>
        <time>2025-02-28T18:29:10Z</time>
      </trkpt>
      <trkpt lat="48.5183" lon="-2.92579">
        <ele>142</ele>
        <time>2025-02-28T18:29:19Z</time>
      </trkpt>
      <trkpt lat="48.51768" lon="-2.92521">
        <ele>143</ele>
        <time>2025-02-28T18:29:32Z</time>
      </trkpt>
      <trkpt lat="48.5175" lon="-2.92504">
        <ele>143</ele>
        <time>2025-02-28T18:29:36Z</time>
      </trkpt>
      <trkpt lat="48.51702" lon="-2.92458">
        <ele>142</ele>
        <time>2025-02-28T18:29:46Z</time>
      </trkpt>
      <trkpt lat="48.51593" lon="-2.92358">
        <ele>143</ele>
        <time>2025-02-28T18:30:09Z</time>
      </trkpt>
      <trkpt lat="48.51558" lon="-2.9232">
        <ele>143</ele>
        <time>2025-02-28T18:30:16Z</time>
      </trkpt>
      <trkpt lat="48.51541" lon="-2.92293">
        <ele>144</ele>
        <time>2025-02-28T18:30:21Z</time>
      </trkpt>
      <trkpt lat="48.51522" lon="-2.92258">
        <ele>144</ele>
        <time>2025-02-28T18:30:26Z</time>
      </trkpt>
      <trkpt lat="48.51502" lon="-2.92223">
        <ele>145</ele>
        <time>2025-02-28T18:30:31Z</time>
      </trkpt>
      <trkpt lat="48.51474" lon="-2.92172">
        <ele>146</ele>
        <time>2025-02-28T18:30:39Z</time>
      </trkpt>
      <trkpt lat="48.51462" lon="-2.92156">
        <ele>146</ele>
        <time>2025-02-28T18:30:42Z</time>
      </trkpt>
      <trkpt lat="48.51446" lon="-2.92141">
        <ele>147</ele>
        <time>2025-02-28T18:30:45Z</time>
      </trkpt>
      <trkpt lat="48.51421" lon="-2.92122">
        <ele>148</ele>
        <time>2025-02-28T18:30:50Z</time>
      </trkpt>
      <trkpt lat="48.51395" lon="-2.92109">
        <ele>148</ele>
        <time>2025-02-28T18:30:55Z</time>
      </trkpt>
      <trkpt lat="48.51378" lon="-2.92097">
        <ele>148</ele>
        <time>2025-02-28T18:30:59Z</time>
      </trkpt>
      <trkpt lat="48.51359" lon="-2.92079">
        <ele>148</ele>
        <time>2025-02-28T18:31:03Z</time>
      </trkpt>
      <trkpt lat="48.51297" lon="-2.9199">
        <ele>150</ele>
        <time>2025-02-28T18:31:18Z</time>
      </trkpt>
      <trkpt lat="48.51283" lon="-2.91965">
        <ele>150</ele>
        <time>2025-02-28T18:31:22Z</time>
      </trkpt>
      <trkpt lat="48.51274" lon="-2.91945">
        <ele>149</ele>
        <time>2025-02-28T18:31:25Z</time>
      </trkpt>
      <trkpt lat="48.51241" lon="-2.91857">
        <ele>152</ele>
        <time>2025-02-28T18:31:36Z</time>
      </trkpt>
      <trkpt lat="48.51226" lon="-2.9182">
        <ele>153</ele>
        <time>2025-02-28T18:31:42Z</time>
      </trkpt>
      <trkpt lat="48.51214" lon="-2.918">
        <ele>153</ele>
        <time>2025-02-28T18:31:45Z</time>
      </trkpt>
      <trkpt lat="48.51196" lon="-2.9178">
        <ele>153</ele>
        <time>2025-02-28T18:31:49Z</time>
      </trkpt>
      <trkpt lat="48.51179" lon="-2.91768">
        <ele>153</ele>
        <time>2025-02-28T18:31:52Z</time>
      </trkpt>
      <trkpt lat="48.511" lon="-2.91735">
        <ele>157</ele>
        <time>2025-02-28T18:32:07Z</time>
      </trkpt>
      <trkpt lat="48.51058" lon="-2.91698">
        <ele>160</ele>
        <time>2025-02-28T18:32:15Z</time>
      </trkpt>
      <trkpt lat="48.51022" lon="-2.91671">
        <ele>162</ele>
        <time>2025-02-28T18:32:22Z</time>
      </trkpt>
      <trkpt lat="48.50993" lon="-2.91665">
        <ele>162</ele>
        <time>2025-02-28T18:32:28Z</time>
      </trkpt>
      <trkpt lat="48.50963" lon="-2.91664">
        <ele>163</ele>
        <time>2025-02-28T18:32:33Z</time>
      </trkpt>
      <trkpt lat="48.50944" lon="-2.91661">
        <ele>163</ele>
        <time>2025-02-28T18:32:36Z</time>
      </trkpt>
      <trkpt lat="48.50928" lon="-2.91655">
        <ele>163</ele>
        <time>2025-02-28T18:32:39Z</time>
      </trkpt>
      <trkpt lat="48.50912" lon="-2.91642">
        <ele>164</ele>
        <time>2025-02-28T18:32:43Z</time>
      </trkpt>
      <trkpt lat="48.50889" lon="-2.91604">
        <ele>167</ele>
        <time>2025-02-28T18:32:49Z</time>
      </trkpt>
      <trkpt lat="48.50868" lon="-2.9156">
        <ele>168</ele>
        <time>2025-02-28T18:32:55Z</time>
      </trkpt>
      <trkpt lat="48.50863" lon="-2.91541">
        <ele>168</ele>
        <time>2025-02-28T18:32:57Z</time>
      </trkpt>
      <trkpt lat="48.50866" lon="-2.9154">
        <ele>168</ele>
        <time>2025-02-28T18:32:58Z</time>
      </trkpt>
      <trkpt lat="48.50874" lon="-2.91538">
        <ele>168</ele>
        <time>2025-02-28T18:32:59Z</time>
      </trkpt>
      <trkpt lat="48.50888" lon="-2.91533">
        <ele>167</ele>
        <time>2025-02-28T18:33:02Z</time>
      </trkpt>
      <trkpt lat="48.50958" lon="-2.91516">
        <ele>164</ele>
        <time>2025-02-28T18:33:15Z</time>
      </trkpt>
      <trkpt lat="48.50964" lon="-2.91514">
        <ele>164</ele>
        <time>2025-02-28T18:33:16Z</time>
      </trkpt>
      <trkpt lat="48.50987" lon="-2.91502">
        <ele>162</ele>
        <time>2025-02-28T18:33:20Z</time>
      </trkpt>
      <trkpt lat="48.51008" lon="-2.91486">
        <ele>160</ele>
        <time>2025-02-28T18:33:24Z</time>
      </trkpt>
      <trkpt lat="48.5113" lon="-2.91375">
        <ele>154</ele>
        <time>2025-02-28T18:33:50Z</time>
      </trkpt>
      <trkpt lat="48.51163" lon="-2.91345">
        <ele>153</ele>
        <time>2025-02-28T18:33:56Z</time>
      </trkpt>
      <trkpt lat="48.51294" lon="-2.91215">
        <ele>152</ele>
        <time>2025-02-28T18:34:24Z</time>
      </trkpt>
      <trkpt lat="48.51314" lon="-2.91192">
        <ele>151</ele>
        <time>2025-02-28T18:34:29Z</time>
      </trkpt>
      <trkpt lat="48.51332" lon="-2.91167">
        <ele>151</ele>
        <time>2025-02-28T18:34:33Z</time>
      </trkpt>
      <trkpt lat="48.51347" lon="-2.91144">
        <ele>150</ele>
        <time>2025-02-28T18:34:37Z</time>
      </trkpt>
      <trkpt lat="48.51364" lon="-2.91107">
        <ele>148</ele>
        <time>2025-02-28T18:34:42Z</time>
      </trkpt>
      <trkpt lat="48.51398" lon="-2.91024">
        <ele>145</ele>
        <time>2025-02-28T18:34:54Z</time>
      </trkpt>
      <trkpt lat="48.51416" lon="-2.90989">
        <ele>144</ele>
        <time>2025-02-28T18:34:59Z</time>
      </trkpt>
      <trkpt lat="48.51439" lon="-2.90954">
        <ele>145</ele>
        <time>2025-02-28T18:35:05Z</time>
      </trkpt>
      <trkpt lat="48.51451" lon="-2.90939">
        <ele>145</ele>
        <time>2025-02-28T18:35:08Z</time>
      </trkpt>
      <trkpt lat="48.5146" lon="-2.90924">
        <ele>144</ele>
        <time>2025-02-28T18:35:10Z</time>
      </trkpt>
      <trkpt lat="48.51468" lon="-2.90908">
        <ele>144</ele>
        <time>2025-02-28T18:35:12Z</time>
      </trkpt>
      <trkpt lat="48.51476" lon="-2.90873">
        <ele>143</ele>
        <time>2025-02-28T18:35:17Z</time>
      </trkpt>
      <trkpt lat="48.51479" lon="-2.90847">
        <ele>143</ele>
        <time>2025-02-28T18:35:20Z</time>
      </trkpt>
      <trkpt lat="48.51477" lon="-2.90821">
        <ele>143</ele>
        <time>2025-02-28T18:35:23Z</time>
      </trkpt>
      <trkpt lat="48.51471" lon="-2.9078">
        <ele>144</ele>
        <time>2025-02-28T18:35:28Z</time>
      </trkpt>
      <trkpt lat="48.51457" lon="-2.90724">
        <ele>146</ele>
        <time>2025-02-28T18:35:35Z</time>
      </trkpt>
      <trkpt lat="48.51441" lon="-2.9065">
        <ele>148</ele>
        <time>2025-02-28T18:35:44Z</time>
      </trkpt>
      <trkpt lat="48.51433" lon="-2.90607">
        <ele>149</ele>
        <time>2025-02-28T18:35:49Z</time>
      </trkpt>
      <trkpt lat="48.51429" lon="-2.90567">
        <ele>150</ele>
        <time>2025-02-28T18:35:54Z</time>
      </trkpt>
      <trkpt lat="48.51428" lon="-2.90523">
        <ele>152</ele>
        <time>2025-02-28T18:35:59Z</time>
      </trkpt>
      <trkpt lat="48.5143" lon="-2.90246">
        <ele>162</ele>
        <time>2025-02-28T18:36:32Z</time>
      </trkpt>
      <trkpt lat="48.5143" lon="-2.90056">
        <ele>167</ele>
        <time>2025-02-28T18:36:54Z</time>
      </trkpt>
      <trkpt lat="48.51431" lon="-2.89948">
        <ele>168</ele>
        <time>2025-02-28T18:37:07Z</time>
      </trkpt>
      <trkpt lat="48.51433" lon="-2.89915">
        <ele>168</ele>
        <time>2025-02-28T18:37:11Z</time>
      </trkpt>
      <trkpt lat="48.5144" lon="-2.8988">
        <ele>169</ele>
        <time>2025-02-28T18:37:15Z</time>
      </trkpt>
      <trkpt lat="48.51444" lon="-2.89859">
        <ele>170</ele>
        <time>2025-02-28T18:37:18Z</time>
      </trkpt>
      <trkpt lat="48.51477" lon="-2.89772">
        <ele>172</ele>
        <time>2025-02-28T18:37:30Z</time>
      </trkpt>
      <trkpt lat="48.51483" lon="-2.89746">
        <ele>172</ele>
        <time>2025-02-28T18:37:33Z</time>
      </trkpt>
      <trkpt lat="48.51494" lon="-2.89671">
        <ele>171</ele>
        <time>2025-02-28T18:37:42Z</time>
      </trkpt>
      <trkpt lat="48.515" lon="-2.89646">
        <ele>171</ele>
        <time>2025-02-28T18:37:45Z</time>
      </trkpt>
      <trkpt lat="48.5151" lon="-2.89623">
        <ele>171</ele>
        <time>2025-02-28T18:37:48Z</time>
      </trkpt>
      <trkpt lat="48.51526" lon="-2.89595">
        <ele>171</ele>
        <time>2025-02-28T18:37:53Z</time>
      </trkpt>
      <trkpt lat="48.51547" lon="-2.89553">
        <ele>172</ele>
        <time>2025-02-28T18:37:59Z</time>
      </trkpt>
      <trkpt lat="48.51556" lon="-2.89524">
        <ele>172</ele>
        <time>2025-02-28T18:38:03Z</time>
      </trkpt>
      <trkpt lat="48.51569" lon="-2.89465">
        <ele>172</ele>
        <time>2025-02-28T18:38:10Z</time>
      </trkpt>
      <trkpt lat="48.51587" lon="-2.8934">
        <ele>174</ele>
        <time>2025-02-28T18:38:25Z</time>
      </trkpt>
      <trkpt lat="48.5159" lon="-2.89303">
        <ele>174</ele>
        <time>2025-02-28T18:38:29Z</time>
      </trkpt>
      <trkpt lat="48.5159" lon="-2.89278">
        <ele>174</ele>
        <time>2025-02-28T18:38:32Z</time>
      </trkpt>
      <trkpt lat="48.51585" lon="-2.89217">
        <ele>174</ele>
        <time>2025-02-28T18:38:40Z</time>
      </trkpt>
      <trkpt lat="48.5154" lon="-2.88805">
        <ele>175</ele>
        <time>2025-02-28T18:39:29Z</time>
      </trkpt>
      <trkpt lat="48.51541" lon="-2.88787">
        <ele>175</ele>
        <time>2025-02-28T18:39:31Z</time>
      </trkpt>
      <trkpt lat="48.51539" lon="-2.8877">
        <ele>175</ele>
        <time>2025-02-28T18:39:33Z</time>
      </trkpt>
      <trkpt lat="48.51535" lon="-2.88744">
        <ele>174</ele>
        <time>2025-02-28T18:39:36Z</time>
      </trkpt>
      <trkpt lat="48.51525" lon="-2.88644">
        <ele>175</ele>
        <time>2025-02-28T18:39:48Z</time>
      </trkpt>
      <trkpt lat="48.51517" lon="-2.88564">
        <ele>175</ele>
        <time>2025-02-28T18:39:58Z</time>
      </trkpt>
      <trkpt lat="48.51515" lon="-2.88535">
        <ele>175</ele>
        <time>2025-02-28T18:40:01Z</time>
      </trkpt>
      <trkpt lat="48.51517" lon="-2.88485">
        <ele>176</ele>
        <time>2025-02-28T18:40:07Z</time>
      </trkpt>
      <trkpt lat="48.51518" lon="-2.88458">
        <ele>176</ele>
        <time>2025-02-28T18:40:10Z</time>
      </trkpt>
      <trkpt lat="48.5152" lon="-2.88446">
        <ele>176</ele>
        <time>2025-02-28T18:40:12Z</time>
      </trkpt>
      <trkpt lat="48.51481" lon="-2.88446">
        <ele>175</ele>
        <time>2025-02-28T18:40:19Z</time>
      </trkpt>
      <trkpt lat="48.51468" lon="-2.88441">
        <ele>174</ele>
        <time>2025-02-28T18:40:21Z</time>
      </trkpt>
      <trkpt lat="48.51467" lon="-2.88431">
        <ele>174</ele>
        <time>2025-02-28T18:40:22Z</time>
      </trkpt>
      <trkpt lat="48.51467" lon="-2.88421">
        <ele>174</ele>
        <time>2025-02-28T18:40:23Z</time>
      </trkpt>
      <trkpt lat="48.5147" lon="-2.88414">
        <ele>174</ele>
        <time>2025-02-28T18:40:24Z</time>
      </trkpt>
      <trkpt lat="48.5148" lon="-2.88388">
        <ele>174</ele>
        <time>2025-02-28T18:40:28Z</time>
      </trkpt>
      <trkpt lat="48.51513" lon="-2.88344">
        <ele>174</ele>
        <time>2025-02-28T18:40:36Z</time>
      </trkpt>
      <trkpt lat="48.51522" lon="-2.88339">
        <ele>174</ele>
        <time>2025-02-28T18:40:37Z</time>
      </trkpt>
      <trkpt lat="48.51531" lon="-2.88339">
        <ele>174</ele>
        <time>2025-02-28T18:40:39Z</time>
      </trkpt>
      <trkpt lat="48.51531" lon="-2.88346">
        <ele>175</ele>
        <time>2025-02-28T18:40:40Z</time>
      </trkpt>
      <trkpt lat="48.5153" lon="-2.88413">
        <ele>176</ele>
        <time>2025-02-28T18:40:48Z</time>
      </trkpt>
      <trkpt lat="48.51527" lon="-2.8843">
        <ele>176</ele>
        <time>2025-02-28T18:40:50Z</time>
      </trkpt>
      <trkpt lat="48.51534" lon="-2.88438">
        <ele>176</ele>
        <time>2025-02-28T18:40:51Z</time>
      </trkpt>
      <trkpt lat="48.51556" lon="-2.88459">
        <ele>176</ele>
        <time>2025-02-28T18:40:56Z</time>
      </trkpt>
      <trkpt lat="48.51579" lon="-2.8848">
        <ele>177</ele>
        <time>2025-02-28T18:41:01Z</time>
      </trkpt>
      <trkpt lat="48.51585" lon="-2.88486">
        <ele>177</ele>
        <time>2025-02-28T18:41:02Z</time>
      </trkpt>
      <trkpt lat="48.51601" lon="-2.88504">
        <ele>177</ele>
        <time>2025-02-28T18:41:06Z</time>
      </trkpt>
      <trkpt lat="48.51613" lon="-2.88519">
        <ele>177</ele>
        <time>2025-02-28T18:41:08Z</time>
      </trkpt>
      <trkpt lat="48.51632" lon="-2.88552">
        <ele>178</ele>
        <time>2025-02-28T18:41:14Z</time>
      </trkpt>
      <trkpt lat="48.51642" lon="-2.88577">
        <ele>178</ele>
        <time>2025-02-28T18:41:17Z</time>
      </trkpt>
      <trkpt lat="48.51646" lon="-2.88595">
        <ele>178</ele>
        <time>2025-02-28T18:41:19Z</time>
      </trkpt>
      <trkpt lat="48.51671" lon="-2.88726">
        <ele>177</ele>
        <time>2025-02-28T18:41:35Z</time>
      </trkpt>
      <trkpt lat="48.51683" lon="-2.88774">
        <ele>177</ele>
        <time>2025-02-28T18:41:41Z</time>
      </trkpt>
      <trkpt lat="48.51706" lon="-2.88839">
        <ele>176</ele>
        <time>2025-02-28T18:41:50Z</time>
      </trkpt>
      <trkpt lat="48.51713" lon="-2.88857">
        <ele>176</ele>
        <time>2025-02-28T18:41:52Z</time>
      </trkpt>
      <trkpt lat="48.51719" lon="-2.88869">
        <ele>176</ele>
        <time>2025-02-28T18:41:54Z</time>
      </trkpt>
      <trkpt lat="48.51742" lon="-2.88908">
        <ele>175</ele>
        <time>2025-02-28T18:42:00Z</time>
      </trkpt>
      <trkpt lat="48.51795" lon="-2.88985">
        <ele>175</ele>
        <time>2025-02-28T18:42:13Z</time>
      </trkpt>
      <trkpt lat="48.51834" lon="-2.89045">
        <ele>175</ele>
        <time>2025-02-28T18:42:23Z</time>
      </trkpt>
      <trkpt lat="48.51887" lon="-2.8917">
        <ele>175</ele>
        <time>2025-02-28T18:42:41Z</time>
      </trkpt>
      <trkpt lat="48.5191" lon="-2.8922">
        <ele>173</ele>
        <time>2025-02-28T18:42:48Z</time>
      </trkpt>
      <trkpt lat="48.51914" lon="-2.89228">
        <ele>173</ele>
        <time>2025-02-28T18:42:49Z</time>
      </trkpt>
      <trkpt lat="48.51955" lon="-2.89307">
        <ele>172</ele>
        <time>2025-02-28T18:43:01Z</time>
      </trkpt>
      <trkpt lat="48.51987" lon="-2.89372">
        <ele>171</ele>
        <time>2025-02-28T18:43:11Z</time>
      </trkpt>
      <trkpt lat="48.52009" lon="-2.89408">
        <ele>169</ele>
        <time>2025-02-28T18:43:16Z</time>
      </trkpt>
      <trkpt lat="48.5201" lon="-2.89411">
        <ele>169</ele>
        <time>2025-02-28T18:43:17Z</time>
      </trkpt>
      <trkpt lat="48.52031" lon="-2.89433">
        <ele>168</ele>
        <time>2025-02-28T18:43:21Z</time>
      </trkpt>
      <trkpt lat="48.5205" lon="-2.89447">
        <ele>167</ele>
        <time>2025-02-28T18:43:25Z</time>
      </trkpt>
      <trkpt lat="48.52252" lon="-2.89589">
        <ele>156</ele>
        <time>2025-02-28T18:44:05Z</time>
      </trkpt>
      <trkpt lat="48.52289" lon="-2.89613">
        <ele>154</ele>
        <time>2025-02-28T18:44:12Z</time>
      </trkpt>
      <trkpt lat="48.52331" lon="-2.89633">
        <ele>153</ele>
        <time>2025-02-28T18:44:20Z</time>
      </trkpt>
      <trkpt lat="48.52371" lon="-2.89647">
        <ele>152</ele>
        <time>2025-02-28T18:44:27Z</time>
      </trkpt>
      <trkpt lat="48.52458" lon="-2.89665">
        <ele>150</ele>
        <time>2025-02-28T18:44:43Z</time>
      </trkpt>
      <trkpt lat="48.52484" lon="-2.89678">
        <ele>149</ele>
        <time>2025-02-28T18:44:48Z</time>
      </trkpt>
      <trkpt lat="48.52509" lon="-2.897">
        <ele>148</ele>
        <time>2025-02-28T18:44:53Z</time>
      </trkpt>
      <trkpt lat="48.5253" lon="-2.89725">
        <ele>147</ele>
        <time>2025-02-28T18:44:57Z</time>
      </trkpt>
      <trkpt lat="48.52583" lon="-2.89782">
        <ele>145</ele>
        <time>2025-02-28T18:45:09Z</time>
      </trkpt>
      <trkpt lat="48.52609" lon="-2.898">
        <ele>145</ele>
        <time>2025-02-28T18:45:14Z</time>
      </trkpt>
      <trkpt lat="48.52637" lon="-2.89809">
        <ele>145</ele>
        <time>2025-02-28T18:45:19Z</time>
      </trkpt>
      <trkpt lat="48.52661" lon="-2.8981">
        <ele>144</ele>
        <time>2025-02-28T18:45:23Z</time>
      </trkpt>
      <trkpt lat="48.52686" lon="-2.89804">
        <ele>144</ele>
        <time>2025-02-28T18:45:28Z</time>
      </trkpt>
      <trkpt lat="48.52725" lon="-2.89796">
        <ele>144</ele>
        <time>2025-02-28T18:45:35Z</time>
      </trkpt>
      <trkpt lat="48.52748" lon="-2.8979">
        <ele>144</ele>
        <time>2025-02-28T18:45:39Z</time>
      </trkpt>
      <trkpt lat="48.52769" lon="-2.8978">
        <ele>144</ele>
        <time>2025-02-28T18:45:43Z</time>
      </trkpt>
      <trkpt lat="48.5278" lon="-2.89772">
        <ele>144</ele>
        <time>2025-02-28T18:45:45Z</time>
      </trkpt>
      <trkpt lat="48.52802" lon="-2.89751">
        <ele>145</ele>
        <time>2025-02-28T18:45:50Z</time>
      </trkpt>
      <trkpt lat="48.52808" lon="-2.89743">
        <ele>145</ele>
        <time>2025-02-28T18:45:51Z</time>
      </trkpt>
      <trkpt lat="48.52819" lon="-2.89726">
        <ele>146</ele>
        <time>2025-02-28T18:45:54Z</time>
      </trkpt>
      <trkpt lat="48.52834" lon="-2.89694">
        <ele>147</ele>
        <time>2025-02-28T18:45:59Z</time>
      </trkpt>
      <trkpt lat="48.52849" lon="-2.89646">
        <ele>147</ele>
        <time>2025-02-28T18:46:05Z</time>
      </trkpt>
      <trkpt lat="48.52878" lon="-2.89545">
        <ele>146</ele>
        <time>2025-02-28T18:46:18Z</time>
      </trkpt>
      <trkpt lat="48.52896" lon="-2.89498">
        <ele>147</ele>
        <time>2025-02-28T18:46:24Z</time>
      </trkpt>
      <trkpt lat="48.52912" lon="-2.89469">
        <ele>146</ele>
        <time>2025-02-28T18:46:29Z</time>
      </trkpt>
      <trkpt lat="48.52926" lon="-2.8945">
        <ele>146</ele>
        <time>2025-02-28T18:46:32Z</time>
      </trkpt>
      <trkpt lat="48.52958" lon="-2.89413">
        <ele>146</ele>
        <time>2025-02-28T18:46:39Z</time>
      </trkpt>
      <trkpt lat="48.53004" lon="-2.89363">
        <ele>145</ele>
        <time>2025-02-28T18:46:49Z</time>
      </trkpt>
      <trkpt lat="48.53018" lon="-2.8935">
        <ele>145</ele>
        <time>2025-02-28T18:46:52Z</time>
      </trkpt>
      <trkpt lat="48.53092" lon="-2.89303">
        <ele>144</ele>
        <time>2025-02-28T18:47:07Z</time>
      </trkpt>
      <trkpt lat="48.53204" lon="-2.8924">
        <ele>142</ele>
        <time>2025-02-28T18:47:28Z</time>
      </trkpt>
      <trkpt lat="48.53232" lon="-2.89231">
        <ele>142</ele>
        <time>2025-02-28T18:47:33Z</time>
      </trkpt>
      <trkpt lat="48.53245" lon="-2.89229">
        <ele>142</ele>
        <time>2025-02-28T18:47:35Z</time>
      </trkpt>
      <trkpt lat="48.5327" lon="-2.89232">
        <ele>142</ele>
        <time>2025-02-28T18:47:40Z</time>
      </trkpt>
      <trkpt lat="48.53292" lon="-2.89237">
        <ele>143</ele>
        <time>2025-02-28T18:47:44Z</time>
      </trkpt>
      <trkpt lat="48.53398" lon="-2.89261">
        <ele>144</ele>
        <time>2025-02-28T18:48:03Z</time>
      </trkpt>
      <trkpt lat="48.53464" lon="-2.89276">
        <ele>144</ele>
        <time>2025-02-28T18:48:15Z</time>
      </trkpt>
      <trkpt lat="48.53549" lon="-2.89281">
        <ele>145</ele>
        <time>2025-02-28T18:48:30Z</time>
      </trkpt>
      <trkpt lat="48.53649" lon="-2.89271">
        <ele>145</ele>
        <time>2025-02-28T18:48:48Z</time>
      </trkpt>
      <trkpt lat="48.53677" lon="-2.8927">
        <ele>145</ele>
        <time>2025-02-28T18:48:53Z</time>
      </trkpt>
      <trkpt lat="48.53712" lon="-2.89279">
        <ele>144</ele>
        <time>2025-02-28T18:48:59Z</time>
      </trkpt>
      <trkpt lat="48.53782" lon="-2.89303">
        <ele>142</ele>
        <time>2025-02-28T18:49:12Z</time>
      </trkpt>
      <trkpt lat="48.53817" lon="-2.89307">
        <ele>142</ele>
        <time>2025-02-28T18:49:18Z</time>
      </trkpt>
      <trkpt lat="48.53855" lon="-2.89303">
        <ele>141</ele>
        <time>2025-02-28T18:49:25Z</time>
      </trkpt>
      <trkpt lat="48.53886" lon="-2.89294">
        <ele>140</ele>
        <time>2025-02-28T18:49:30Z</time>
      </trkpt>
      <trkpt lat="48.53948" lon="-2.89271">
        <ele>137</ele>
        <time>2025-02-28T18:49:42Z</time>
      </trkpt>
      <trkpt lat="48.54033" lon="-2.89221">
        <ele>131</ele>
        <time>2025-02-28T18:49:58Z</time>
      </trkpt>
      <trkpt lat="48.54052" lon="-2.89209">
        <ele>130</ele>
        <time>2025-02-28T18:50:02Z</time>
      </trkpt>
      <trkpt lat="48.54111" lon="-2.89166">
        <ele>126</ele>
        <time>2025-02-28T18:50:13Z</time>
      </trkpt>
      <trkpt lat="48.54195" lon="-2.89111">
        <ele>123</ele>
        <time>2025-02-28T18:50:30Z</time>
      </trkpt>
      <trkpt lat="48.54231" lon="-2.89082">
        <ele>121</ele>
        <time>2025-02-28T18:50:37Z</time>
      </trkpt>
      <trkpt lat="48.54263" lon="-2.8906">
        <ele>120</ele>
        <time>2025-02-28T18:50:43Z</time>
      </trkpt>
      <trkpt lat="48.54291" lon="-2.89048">
        <ele>119</ele>
        <time>2025-02-28T18:50:48Z</time>
      </trkpt>
      <trkpt lat="48.54337" lon="-2.89037">
        <ele>118</ele>
        <time>2025-02-28T18:50:56Z</time>
      </trkpt>
      <trkpt lat="48.54376" lon="-2.89038">
        <ele>119</ele>
        <time>2025-02-28T18:51:03Z</time>
      </trkpt>
      <trkpt lat="48.54404" lon="-2.89043">
        <ele>120</ele>
        <time>2025-02-28T18:51:08Z</time>
      </trkpt>
      <trkpt lat="48.54506" lon="-2.89045">
        <ele>117</ele>
        <time>2025-02-28T18:51:27Z</time>
      </trkpt>
      <trkpt lat="48.54533" lon="-2.89051">
        <ele>116</ele>
        <time>2025-02-28T18:51:31Z</time>
      </trkpt>
      <trkpt lat="48.54614" lon="-2.89081">
        <ele>117</ele>
        <time>2025-02-28T18:51:46Z</time>
      </trkpt>
      <trkpt lat="48.54639" lon="-2.89093">
        <ele>118</ele>
        <time>2025-02-28T18:51:51Z</time>
      </trkpt>
      <trkpt lat="48.54669" lon="-2.89111">
        <ele>118</ele>
        <time>2025-02-28T18:51:57Z</time>
      </trkpt>
      <trkpt lat="48.5472" lon="-2.89153">
        <ele>118</ele>
        <time>2025-02-28T18:52:07Z</time>
      </trkpt>
      <trkpt lat="48.54728" lon="-2.8916">
        <ele>118</ele>
        <time>2025-02-28T18:52:09Z</time>
      </trkpt>
      <trkpt lat="48.54751" lon="-2.89176">
        <ele>119</ele>
        <time>2025-02-28T18:52:13Z</time>
      </trkpt>
      <trkpt lat="48.54768" lon="-2.89182">
        <ele>119</ele>
        <time>2025-02-28T18:52:16Z</time>
      </trkpt>
      <trkpt lat="48.5482" lon="-2.89203">
        <ele>121</ele>
        <time>2025-02-28T18:52:26Z</time>
      </trkpt>
      <trkpt lat="48.54817" lon="-2.89232">
        <ele>121</ele>
        <time>2025-02-28T18:52:29Z</time>
      </trkpt>
      <trkpt lat="48.5481" lon="-2.89289">
        <ele>121</ele>
        <time>2025-02-28T18:52:36Z</time>
      </trkpt>
      <trkpt lat="48.54804" lon="-2.89322">
        <ele>121</ele>
        <time>2025-02-28T18:52:40Z</time>
      </trkpt>
      <trkpt lat="48.54789" lon="-2.89369">
        <ele>121</ele>
        <time>2025-02-28T18:52:46Z</time>
      </trkpt>
      <trkpt lat="48.54751" lon="-2.89456">
        <ele>120</ele>
        <time>2025-02-28T18:52:59Z</time>
      </trkpt>
      <trkpt lat="48.54734" lon="-2.89493">
        <ele>120</ele>
        <time>2025-02-28T18:53:04Z</time>
      </trkpt>
      <trkpt lat="48.54727" lon="-2.89513">
        <ele>120</ele>
        <time>2025-02-28T18:53:07Z</time>
      </trkpt>
      <trkpt lat="48.54706" lon="-2.89586">
        <ele>117</ele>
        <time>2025-02-28T18:53:16Z</time>
      </trkpt>
      <trkpt lat="48.54696" lon="-2.89625">
        <ele>117</ele>
        <time>2025-02-28T18:53:21Z</time>
      </trkpt>
      <trkpt lat="48.54684" lon="-2.89662">
        <ele>116</ele>
        <time>2025-02-28T18:53:26Z</time>
      </trkpt>
      <trkpt lat="48.54667" lon="-2.89707">
        <ele>116</ele>
        <time>2025-02-28T18:53:32Z</time>
      </trkpt>
      <trkpt lat="48.54626" lon="-2.89789">
        <ele>116</ele>
        <time>2025-02-28T18:53:44Z</time>
      </trkpt>
      <trkpt lat="48.54612" lon="-2.89823">
        <ele>115</ele>
        <time>2025-02-28T18:53:49Z</time>
      </trkpt>
      <trkpt lat="48.54604" lon="-2.89853">
        <ele>115</ele>
        <time>2025-02-28T18:53:52Z</time>
      </trkpt>
      <trkpt lat="48.54582" lon="-2.90021">
        <ele>113</ele>
        <time>2025-02-28T18:54:13Z</time>
      </trkpt>
      <trkpt lat="48.54547" lon="-2.90505">
        <ele>110</ele>
        <time>2025-02-28T18:55:10Z</time>
      </trkpt>
      <trkpt lat="48.5454" lon="-2.90566">
        <ele>109</ele>
        <time>2025-02-28T18:55:17Z</time>
      </trkpt>
      <trkpt lat="48.54537" lon="-2.90586">
        <ele>109</ele>
        <time>2025-02-28T18:55:20Z</time>
      </trkpt>
      <trkpt lat="48.54531" lon="-2.90612">
        <ele>109</ele>
        <time>2025-02-28T18:55:23Z</time>
      </trkpt>
      <trkpt lat="48.54496" lon="-2.90742">
        <ele>109</ele>
        <time>2025-02-28T18:55:39Z</time>
      </trkpt>
      <trkpt lat="48.54488" lon="-2.90777">
        <ele>109</ele>
        <time>2025-02-28T18:55:44Z</time>
      </trkpt>
      <trkpt lat="48.54486" lon="-2.9079">
        <ele>109</ele>
        <time>2025-02-28T18:55:45Z</time>
      </trkpt>
      <trkpt lat="48.54487" lon="-2.90798">
        <ele>109</ele>
        <time>2025-02-28T18:55:46Z</time>
      </trkpt>
      <trkpt lat="48.54488" lon="-2.90811">
        <ele>109</ele>
        <time>2025-02-28T18:55:48Z</time>
      </trkpt>
      <trkpt lat="48.54489" lon="-2.90818">
        <ele>108</ele>
        <time>2025-02-28T18:55:49Z</time>
      </trkpt>
      <trkpt lat="48.54495" lon="-2.9083">
        <ele>108</ele>
        <time>2025-02-28T18:55:51Z</time>
      </trkpt>
      <trkpt lat="48.54502" lon="-2.90842">
        <ele>108</ele>
        <time>2025-02-28T18:55:52Z</time>
      </trkpt>
      <trkpt lat="48.54589" lon="-2.90942">
        <ele>105</ele>
        <time>2025-02-28T18:56:12Z</time>
      </trkpt>
      <trkpt lat="48.54614" lon="-2.90962">
        <ele>104</ele>
        <time>2025-02-28T18:56:17Z</time>
      </trkpt>
      <trkpt lat="48.54666" lon="-2.90993">
        <ele>100</ele>
        <time>2025-02-28T18:56:27Z</time>
      </trkpt>
      <trkpt lat="48.54729" lon="-2.9106">
        <ele>92</ele>
        <time>2025-02-28T18:56:41Z</time>
      </trkpt>
      <trkpt lat="48.5474" lon="-2.91074">
        <ele>90</ele>
        <time>2025-02-28T18:56:43Z</time>
      </trkpt>
      <trkpt lat="48.54749" lon="-2.91089">
        <ele>88</ele>
        <time>2025-02-28T18:56:45Z</time>
      </trkpt>
      <trkpt lat="48.54779" lon="-2.91159">
        <ele>94</ele>
        <time>2025-02-28T18:56:55Z</time>
      </trkpt>
      <trkpt lat="48.54788" lon="-2.91179">
        <ele>97</ele>
        <time>2025-02-28T18:56:58Z</time>
      </trkpt>
      <trkpt lat="48.54803" lon="-2.91198">
        <ele>99</ele>
        <time>2025-02-28T18:57:02Z</time>
      </trkpt>
      <trkpt lat="48.54863" lon="-2.91241">
        <ele>105</ele>
        <time>2025-02-28T18:57:13Z</time>
      </trkpt>
      <trkpt lat="48.54885" lon="-2.91264">
        <ele>107</ele>
        <time>2025-02-28T18:57:18Z</time>
      </trkpt>
      <trkpt lat="48.54895" lon="-2.91279">
        <ele>107</ele>
        <time>2025-02-28T18:57:21Z</time>
      </trkpt>
      <trkpt lat="48.54903" lon="-2.91295">
        <ele>107</ele>
        <time>2025-02-28T18:57:23Z</time>
      </trkpt>
      <trkpt lat="48.54913" lon="-2.91321">
        <ele>107</ele>
        <time>2025-02-28T18:57:27Z</time>
      </trkpt>
      <trkpt lat="48.54917" lon="-2.91334">
        <ele>107</ele>
        <time>2025-02-28T18:57:28Z</time>
      </trkpt>
      <trkpt lat="48.54927" lon="-2.91367">
        <ele>108</ele>
        <time>2025-02-28T18:57:33Z</time>
      </trkpt>
      <trkpt lat="48.54934" lon="-2.91382">
        <ele>108</ele>
        <time>2025-02-28T18:57:35Z</time>
      </trkpt>
      <trkpt lat="48.54952" lon="-2.91408">
        <ele>109</ele>
        <time>2025-02-28T18:57:39Z</time>
      </trkpt>
      <trkpt lat="48.55002" lon="-2.91477">
        <ele>111</ele>
        <time>2025-02-28T18:57:51Z</time>
      </trkpt>
      <trkpt lat="48.55134" lon="-2.91653">
        <ele>112</ele>
        <time>2025-02-28T18:58:23Z</time>
      </trkpt>
      <trkpt lat="48.55141" lon="-2.91664">
        <ele>112</ele>
        <time>2025-02-28T18:58:24Z</time>
      </trkpt>
      <trkpt lat="48.55147" lon="-2.91681">
        <ele>112</ele>
        <time>2025-02-28T18:58:27Z</time>
      </trkpt>
      <trkpt lat="48.55149" lon="-2.91701">
        <ele>112</ele>
        <time>2025-02-28T18:58:29Z</time>
      </trkpt>
      <trkpt lat="48.55148" lon="-2.91714">
        <ele>112</ele>
        <time>2025-02-28T18:58:31Z</time>
      </trkpt>
      <trkpt lat="48.55127" lon="-2.91806">
        <ele>113</ele>
        <time>2025-02-28T18:58:42Z</time>
      </trkpt>
      <trkpt lat="48.5501" lon="-2.92254">
        <ele>114</ele>
        <time>2025-02-28T18:59:39Z</time>
      </trkpt>
      <trkpt lat="48.55002" lon="-2.92293">
        <ele>114</ele>
        <time>2025-02-28T18:59:44Z</time>
      </trkpt>
      <trkpt lat="48.54998" lon="-2.92316">
        <ele>114</ele>
        <time>2025-02-28T18:59:46Z</time>
      </trkpt>
      <trkpt lat="48.54996" lon="-2.92336">
        <ele>114</ele>
        <time>2025-02-28T18:59:49Z</time>
      </trkpt>
      <trkpt lat="48.54996" lon="-2.92354">
        <ele>114</ele>
        <time>2025-02-28T18:59:51Z</time>
      </trkpt>
      <trkpt lat="48.54998" lon="-2.92371">
        <ele>114</ele>
        <time>2025-02-28T18:59:53Z</time>
      </trkpt>
      <trkpt lat="48.55008" lon="-2.92432">
        <ele>115</ele>
        <time>2025-02-28T19:00:00Z</time>
      </trkpt>
      <trkpt lat="48.55009" lon="-2.92461">
        <ele>115</ele>
        <time>2025-02-28T19:00:04Z</time>
      </trkpt>
      <trkpt lat="48.55007" lon="-2.92477">
        <ele>115</ele>
        <time>2025-02-28T19:00:06Z</time>
      </trkpt>
      <trkpt lat="48.54957" lon="-2.92733">
        <ele>112</ele>
        <time>2025-02-28T19:00:37Z</time>
      </trkpt>
      <trkpt lat="48.54939" lon="-2.92811">
        <ele>113</ele>
        <time>2025-02-28T19:00:47Z</time>
      </trkpt>
      <trkpt lat="48.54935" lon="-2.92826">
        <ele>113</ele>
        <time>2025-02-28T19:00:49Z</time>
      </trkpt>
      <trkpt lat="48.54917" lon="-2.92877">
        <ele>114</ele>
        <time>2025-02-28T19:00:56Z</time>
      </trkpt>
      <trkpt lat="48.54864" lon="-2.93">
        <ele>118</ele>
        <time>2025-02-28T19:01:13Z</time>
      </trkpt>
      <trkpt lat="48.54852" lon="-2.9303">
        <ele>119</ele>
        <time>2025-02-28T19:01:17Z</time>
      </trkpt>
      <trkpt lat="48.54845" lon="-2.93052">
        <ele>119</ele>
        <time>2025-02-28T19:01:20Z</time>
      </trkpt>
      <trkpt lat="48.54835" lon="-2.93087">
        <ele>121</ele>
        <time>2025-02-28T19:01:24Z</time>
      </trkpt>
      <trkpt lat="48.54829" lon="-2.93123">
        <ele>121</ele>
        <time>2025-02-28T19:01:29Z</time>
      </trkpt>
      <trkpt lat="48.54805" lon="-2.93282">
        <ele>122</ele>
        <time>2025-02-28T19:01:48Z</time>
      </trkpt>
      <trkpt lat="48.54799" lon="-2.93331">
        <ele>122</ele>
        <time>2025-02-28T19:01:54Z</time>
      </trkpt>
      <trkpt lat="48.54817" lon="-2.93335">
        <ele>122</ele>
        <time>2025-02-28T19:01:57Z</time>
      </trkpt>
      <trkpt lat="48.54884" lon="-2.9336">
        <ele>120</ele>
        <time>2025-02-28T19:02:09Z</time>
      </trkpt>
      <trkpt lat="48.54988" lon="-2.93399">
        <ele>119</ele>
        <time>2025-02-28T19:02:28Z</time>
      </trkpt>
      <trkpt lat="48.55037" lon="-2.93412">
        <ele>119</ele>
        <time>2025-02-28T19:02:37Z</time>
      </trkpt>
      <trkpt lat="48.55103" lon="-2.93412">
        <ele>118</ele>
        <time>2025-02-28T19:02:49Z</time>
      </trkpt>
      <trkpt lat="48.55469" lon="-2.93348">
        <ele>113</ele>
        <time>2025-02-28T19:03:54Z</time>
      </trkpt>
      <trkpt lat="48.55651" lon="-2.93328">
        <ele>118</ele>
        <time>2025-02-28T19:04:27Z</time>
      </trkpt>
      <trkpt lat="48.55651" lon="-2.93323">
        <ele>118</ele>
        <time>2025-02-28T19:04:28Z</time>
      </trkpt>
      <trkpt lat="48.55651" lon="-2.93328">
        <ele>118</ele>
        <time>2025-02-28T19:04:28Z</time>
      </trkpt>
      <trkpt lat="48.55651" lon="-2.93416">
        <ele>118</ele>
        <time>2025-02-28T19:04:38Z</time>
      </trkpt>
      <trkpt lat="48.55648" lon="-2.93519">
        <ele>118</ele>
        <time>2025-02-28T19:04:51Z</time>
      </trkpt>
      <trkpt lat="48.55648" lon="-2.93567">
        <ele>118</ele>
        <time>2025-02-28T19:04:56Z</time>
      </trkpt>
      <trkpt lat="48.55651" lon="-2.93614">
        <ele>118</ele>
        <time>2025-02-28T19:05:02Z</time>
      </trkpt>
      <trkpt lat="48.55664" lon="-2.93701">
        <ele>119</ele>
        <time>2025-02-28T19:05:12Z</time>
      </trkpt>
      <trkpt lat="48.55667" lon="-2.93736">
        <ele>120</ele>
        <time>2025-02-28T19:05:17Z</time>
      </trkpt>
      <trkpt lat="48.55664" lon="-2.93777">
        <ele>119</ele>
        <time>2025-02-28T19:05:21Z</time>
      </trkpt>
      <trkpt lat="48.5566" lon="-2.93802">
        <ele>119</ele>
        <time>2025-02-28T19:05:24Z</time>
      </trkpt>
      <trkpt lat="48.55625" lon="-2.93922">
        <ele>116</ele>
        <time>2025-02-28T19:05:40Z</time>
      </trkpt>
      <trkpt lat="48.55576" lon="-2.941">
        <ele>114</ele>
        <time>2025-02-28T19:06:03Z</time>
      </trkpt>
      <trkpt lat="48.5557" lon="-2.94132">
        <ele>113</ele>
        <time>2025-02-28T19:06:06Z</time>
      </trkpt>
      <trkpt lat="48.55568" lon="-2.94153">
        <ele>113</ele>
        <time>2025-02-28T19:06:09Z</time>
      </trkpt>
      <trkpt lat="48.5557" lon="-2.94172">
        <ele>112</ele>
        <time>2025-02-28T19:06:11Z</time>
      </trkpt>
      <trkpt lat="48.55582" lon="-2.94222">
        <ele>112</ele>
        <time>2025-02-28T19:06:17Z</time>
      </trkpt>
      <trkpt lat="48.55596" lon="-2.94262">
        <ele>112</ele>
        <time>2025-02-28T19:06:23Z</time>
      </trkpt>
      <trkpt lat="48.55642" lon="-2.94353">
        <ele>113</ele>
        <time>2025-02-28T19:06:36Z</time>
      </trkpt>
      <trkpt lat="48.55649" lon="-2.94381">
        <ele>113</ele>
        <time>2025-02-28T19:06:40Z</time>
      </trkpt>
      <trkpt lat="48.55654" lon="-2.94416">
        <ele>113</ele>
        <time>2025-02-28T19:06:44Z</time>
      </trkpt>
      <trkpt lat="48.55659" lon="-2.94455">
        <ele>112</ele>
        <time>2025-02-28T19:06:49Z</time>
      </trkpt>
      <trkpt lat="48.55661" lon="-2.94552">
        <ele>111</ele>
        <time>2025-02-28T19:07:00Z</time>
      </trkpt>
      <trkpt lat="48.55664" lon="-2.94575">
        <ele>111</ele>
        <time>2025-02-28T19:07:03Z</time>
      </trkpt>
      <trkpt lat="48.55671" lon="-2.94601">
        <ele>111</ele>
        <time>2025-02-28T19:07:06Z</time>
      </trkpt>
      <trkpt lat="48.55682" lon="-2.94632">
        <ele>112</ele>
        <time>2025-02-28T19:07:10Z</time>
      </trkpt>
      <trkpt lat="48.55684" lon="-2.94629">
        <ele>112</ele>
        <time>2025-02-28T19:07:11Z</time>
      </trkpt>
      <trkpt lat="48.55734" lon="-2.94526">
        <ele>113</ele>
        <time>2025-02-28T19:07:26Z</time>
      </trkpt>
      <trkpt lat="48.55762" lon="-2.9445">
        <ele>115</ele>
        <time>2025-02-28T19:07:36Z</time>
      </trkpt>
      <trkpt lat="48.55785" lon="-2.94398">
        <ele>116</ele>
        <time>2025-02-28T19:07:44Z</time>
      </trkpt>
      <trkpt lat="48.55808" lon="-2.94352">
        <ele>117</ele>
        <time>2025-02-28T19:07:50Z</time>
      </trkpt>
      <trkpt lat="48.55897" lon="-2.94172">
        <ele>118</ele>
        <time>2025-02-28T19:08:17Z</time>
      </trkpt>
      <trkpt lat="48.55927" lon="-2.94113">
        <ele>119</ele>
        <time>2025-02-28T19:08:26Z</time>
      </trkpt>
      <trkpt lat="48.55938" lon="-2.9409">
        <ele>120</ele>
        <time>2025-02-28T19:08:29Z</time>
      </trkpt>
      <trkpt lat="48.55946" lon="-2.94062">
        <ele>121</ele>
        <time>2025-02-28T19:08:32Z</time>
      </trkpt>
      <trkpt lat="48.55964" lon="-2.93967">
        <ele>122</ele>
        <time>2025-02-28T19:08:44Z</time>
      </trkpt>
      <trkpt lat="48.55969" lon="-2.93941">
        <ele>122</ele>
        <time>2025-02-28T19:08:47Z</time>
      </trkpt>
      <trkpt lat="48.55979" lon="-2.93907">
        <ele>122</ele>
        <time>2025-02-28T19:08:52Z</time>
      </trkpt>
      <trkpt lat="48.56041" lon="-2.93721">
        <ele>123</ele>
        <time>2025-02-28T19:09:16Z</time>
      </trkpt>
      <trkpt lat="48.56098" lon="-2.9356">
        <ele>123</ele>
        <time>2025-02-28T19:09:38Z</time>
      </trkpt>
      <trkpt lat="48.5611" lon="-2.93531">
        <ele>124</ele>
        <time>2025-02-28T19:09:42Z</time>
      </trkpt>
      <trkpt lat="48.56115" lon="-2.9352">
        <ele>124</ele>
        <time>2025-02-28T19:09:43Z</time>
      </trkpt>
      <trkpt lat="48.5612" lon="-2.93512">
        <ele>125</ele>
        <time>2025-02-28T19:09:45Z</time>
      </trkpt>
      <trkpt lat="48.56126" lon="-2.93502">
        <ele>125</ele>
        <time>2025-02-28T19:09:46Z</time>
      </trkpt>
      <trkpt lat="48.56143" lon="-2.93484">
        <ele>125</ele>
        <time>2025-02-28T19:09:50Z</time>
      </trkpt>
      <trkpt lat="48.56314" lon="-2.93347">
        <ele>126</ele>
        <time>2025-02-28T19:10:24Z</time>
      </trkpt>
      <trkpt lat="48.56669" lon="-2.93062">
        <ele>124</ele>
        <time>2025-02-28T19:11:36Z</time>
      </trkpt>
      <trkpt lat="48.56705" lon="-2.93031">
        <ele>121</ele>
        <time>2025-02-28T19:11:43Z</time>
      </trkpt>
      <trkpt lat="48.56725" lon="-2.92999">
        <ele>119</ele>
        <time>2025-02-28T19:11:48Z</time>
      </trkpt>
      <trkpt lat="48.56743" lon="-2.92958">
        <ele>118</ele>
        <time>2025-02-28T19:11:54Z</time>
      </trkpt>
      <trkpt lat="48.56796" lon="-2.92827">
        <ele>115</ele>
        <time>2025-02-28T19:12:12Z</time>
      </trkpt>
      <trkpt lat="48.56802" lon="-2.92814">
        <ele>115</ele>
        <time>2025-02-28T19:12:14Z</time>
      </trkpt>
      <trkpt lat="48.5681" lon="-2.92798">
        <ele>114</ele>
        <time>2025-02-28T19:12:16Z</time>
      </trkpt>
      <trkpt lat="48.5682" lon="-2.92781">
        <ele>114</ele>
        <time>2025-02-28T19:12:19Z</time>
      </trkpt>
      <trkpt lat="48.56835" lon="-2.92763">
        <ele>112</ele>
        <time>2025-02-28T19:12:23Z</time>
      </trkpt>
      <trkpt lat="48.56853" lon="-2.92751">
        <ele>111</ele>
        <time>2025-02-28T19:12:26Z</time>
      </trkpt>
      <trkpt lat="48.56909" lon="-2.92722">
        <ele>109</ele>
        <time>2025-02-28T19:12:37Z</time>
      </trkpt>
      <trkpt lat="48.56938" lon="-2.92701">
        <ele>108</ele>
        <time>2025-02-28T19:12:42Z</time>
      </trkpt>
      <trkpt lat="48.56998" lon="-2.92637">
        <ele>106</ele>
        <time>2025-02-28T19:12:55Z</time>
      </trkpt>
      <trkpt lat="48.57015" lon="-2.92622">
        <ele>106</ele>
        <time>2025-02-28T19:12:59Z</time>
      </trkpt>
      <trkpt lat="48.57051" lon="-2.926">
        <ele>107</ele>
        <time>2025-02-28T19:13:06Z</time>
      </trkpt>
      <trkpt lat="48.57118" lon="-2.92582">
        <ele>108</ele>
        <time>2025-02-28T19:13:18Z</time>
      </trkpt>
      <trkpt lat="48.57137" lon="-2.92574">
        <ele>109</ele>
        <time>2025-02-28T19:13:21Z</time>
      </trkpt>
      <trkpt lat="48.57162" lon="-2.92555">
        <ele>109</ele>
        <time>2025-02-28T19:13:26Z</time>
      </trkpt>
      <trkpt lat="48.5718" lon="-2.92537">
        <ele>109</ele>
        <time>2025-02-28T19:13:30Z</time>
      </trkpt>
      <trkpt lat="48.57192" lon="-2.92522">
        <ele>108</ele>
        <time>2025-02-28T19:13:33Z</time>
      </trkpt>
      <trkpt lat="48.57213" lon="-2.92493">
        <ele>109</ele>
        <time>2025-02-28T19:13:38Z</time>
      </trkpt>
      <trkpt lat="48.5727" lon="-2.92407">
        <ele>110</ele>
        <time>2025-02-28T19:13:52Z</time>
      </trkpt>
      <trkpt lat="48.57295" lon="-2.92371">
        <ele>109</ele>
        <time>2025-02-28T19:13:59Z</time>
      </trkpt>
      <trkpt lat="48.57311" lon="-2.92353">
        <ele>109</ele>
        <time>2025-02-28T19:14:02Z</time>
      </trkpt>
      <trkpt lat="48.57339" lon="-2.92327">
        <ele>108</ele>
        <time>2025-02-28T19:14:08Z</time>
      </trkpt>
      <trkpt lat="48.57365" lon="-2.9231">
        <ele>108</ele>
        <time>2025-02-28T19:14:13Z</time>
      </trkpt>
      <trkpt lat="48.57389" lon="-2.92295">
        <ele>108</ele>
        <time>2025-02-28T19:14:18Z</time>
      </trkpt>
      <trkpt lat="48.57409" lon="-2.92283">
        <ele>108</ele>
        <time>2025-02-28T19:14:21Z</time>
      </trkpt>
      <trkpt lat="48.57484" lon="-2.92235">
        <ele>106</ele>
        <time>2025-02-28T19:14:36Z</time>
      </trkpt>
      <trkpt lat="48.57525" lon="-2.92197">
        <ele>105</ele>
        <time>2025-02-28T19:14:44Z</time>
      </trkpt>
      <trkpt lat="48.57597" lon="-2.9212">
        <ele>104</ele>
        <time>2025-02-28T19:15:00Z</time>
      </trkpt>
      <trkpt lat="48.57705" lon="-2.91993">
        <ele>99</ele>
        <time>2025-02-28T19:15:25Z</time>
      </trkpt>
      <trkpt lat="48.57738" lon="-2.91964">
        <ele>99</ele>
        <time>2025-02-28T19:15:31Z</time>
      </trkpt>
      <trkpt lat="48.57754" lon="-2.91951">
        <ele>99</ele>
        <time>2025-02-28T19:15:35Z</time>
      </trkpt>
      <trkpt lat="48.57776" lon="-2.91939">
        <ele>100</ele>
        <time>2025-02-28T19:15:39Z</time>
      </trkpt>
      <trkpt lat="48.57828" lon="-2.9192">
        <ele>100</ele>
        <time>2025-02-28T19:15:48Z</time>
      </trkpt>
      <trkpt lat="48.57851" lon="-2.91909">
        <ele>101</ele>
        <time>2025-02-28T19:15:53Z</time>
      </trkpt>
      <trkpt lat="48.57876" lon="-2.91896">
        <ele>101</ele>
        <time>2025-02-28T19:15:57Z</time>
      </trkpt>
      <trkpt lat="48.57964" lon="-2.91841">
        <ele>103</ele>
        <time>2025-02-28T19:16:14Z</time>
      </trkpt>
      <trkpt lat="48.57995" lon="-2.91815">
        <ele>104</ele>
        <time>2025-02-28T19:16:20Z</time>
      </trkpt>
      <trkpt lat="48.58054" lon="-2.91755">
        <ele>102</ele>
        <time>2025-02-28T19:16:33Z</time>
      </trkpt>
      <trkpt lat="48.58071" lon="-2.91743">
        <ele>102</ele>
        <time>2025-02-28T19:16:36Z</time>
      </trkpt>
      <trkpt lat="48.58085" lon="-2.9174">
        <ele>102</ele>
        <time>2025-02-28T19:16:39Z</time>
      </trkpt>
      <trkpt lat="48.58113" lon="-2.91741">
        <ele>101</ele>
        <time>2025-02-28T19:16:44Z</time>
      </trkpt>
      <trkpt lat="48.58242" lon="-2.91764">
        <ele>96</ele>
        <time>2025-02-28T19:17:07Z</time>
      </trkpt>
      <trkpt lat="48.5826" lon="-2.91763">
        <ele>95</ele>
        <time>2025-02-28T19:17:10Z</time>
      </trkpt>
      <trkpt lat="48.58272" lon="-2.91762">
        <ele>95</ele>
        <time>2025-02-28T19:17:12Z</time>
      </trkpt>
      <trkpt lat="48.58282" lon="-2.9176">
        <ele>94</ele>
        <time>2025-02-28T19:17:14Z</time>
      </trkpt>
      <trkpt lat="48.58301" lon="-2.91753">
        <ele>94</ele>
        <time>2025-02-28T19:17:18Z</time>
      </trkpt>
      <trkpt lat="48.58318" lon="-2.91744">
        <ele>93</ele>
        <time>2025-02-28T19:17:21Z</time>
      </trkpt>
      <trkpt lat="48.58783" lon="-2.91498">
        <ele>93</ele>
        <time>2025-02-28T19:18:49Z</time>
      </trkpt>
      <trkpt lat="48.58802" lon="-2.91486">
        <ele>93</ele>
        <time>2025-02-28T19:18:52Z</time>
      </trkpt>
      <trkpt lat="48.58817" lon="-2.91474">
        <ele>93</ele>
        <time>2025-02-28T19:18:55Z</time>
      </trkpt>
      <trkpt lat="48.58843" lon="-2.9144">
        <ele>92</ele>
        <time>2025-02-28T19:19:01Z</time>
      </trkpt>
      <trkpt lat="48.58909" lon="-2.91337">
        <ele>93</ele>
        <time>2025-02-28T19:19:18Z</time>
      </trkpt>
      <trkpt lat="48.59113" lon="-2.91017">
        <ele>98</ele>
        <time>2025-02-28T19:20:11Z</time>
      </trkpt>
      <trkpt lat="48.59203" lon="-2.90873">
        <ele>95</ele>
        <time>2025-02-28T19:20:34Z</time>
      </trkpt>
      <trkpt lat="48.59352" lon="-2.90637">
        <ele>97</ele>
        <time>2025-02-28T19:21:12Z</time>
      </trkpt>
      <trkpt lat="48.59441" lon="-2.90494">
        <ele>97</ele>
        <time>2025-02-28T19:21:35Z</time>
      </trkpt>
      <trkpt lat="48.59483" lon="-2.90425">
        <ele>99</ele>
        <time>2025-02-28T19:21:46Z</time>
      </trkpt>
      <trkpt lat="48.59525" lon="-2.90342">
        <ele>99</ele>
        <time>2025-02-28T19:21:59Z</time>
      </trkpt>
      <trkpt lat="48.59578" lon="-2.90233">
        <ele>100</ele>
        <time>2025-02-28T19:22:15Z</time>
      </trkpt>
      <trkpt lat="48.59661" lon="-2.90073">
        <ele>98</ele>
        <time>2025-02-28T19:22:39Z</time>
      </trkpt>
      <trkpt lat="48.59694" lon="-2.90017">
        <ele>99</ele>
        <time>2025-02-28T19:22:47Z</time>
      </trkpt>
      <trkpt lat="48.5974" lon="-2.89937">
        <ele>98</ele>
        <time>2025-02-28T19:23:00Z</time>
      </trkpt>
      <trkpt lat="48.59797" lon="-2.89831">
        <ele>98</ele>
        <time>2025-02-28T19:23:16Z</time>
      </trkpt>
      <trkpt lat="48.59807" lon="-2.89817">
        <ele>98</ele>
        <time>2025-02-28T19:23:18Z</time>
      </trkpt>
      <trkpt lat="48.5983" lon="-2.8975">
        <ele>99</ele>
        <time>2025-02-28T19:23:27Z</time>
      </trkpt>
      <trkpt lat="48.59844" lon="-2.89693">
        <ele>97</ele>
        <time>2025-02-28T19:23:34Z</time>
      </trkpt>
      <trkpt lat="48.59858" lon="-2.89616">
        <ele>96</ele>
        <time>2025-02-28T19:23:44Z</time>
      </trkpt>
      <trkpt lat="48.59872" lon="-2.8962">
        <ele>96</ele>
        <time>2025-02-28T19:23:46Z</time>
      </trkpt>
      <trkpt lat="48.599" lon="-2.89629">
        <ele>96</ele>
        <time>2025-02-28T19:23:51Z</time>
      </trkpt>
      <trkpt lat="48.59903" lon="-2.89622">
        <ele>96</ele>
        <time>2025-02-28T19:23:52Z</time>
      </trkpt>
      <trkpt lat="48.59908" lon="-2.89618">
        <ele>96</ele>
        <time>2025-02-28T19:23:53Z</time>
      </trkpt>
      <trkpt lat="48.59913" lon="-2.8962">
        <ele>96</ele>
        <time>2025-02-28T19:23:54Z</time>
      </trkpt>
      <trkpt lat="48.59916" lon="-2.89625">
        <ele>96</ele>
        <time>2025-02-28T19:23:55Z</time>
      </trkpt>
      <trkpt lat="48.59917" lon="-2.89632">
        <ele>96</ele>
        <time>2025-02-28T19:23:56Z</time>
      </trkpt>
      <trkpt lat="48.59917" lon="-2.89637">
        <ele>96</ele>
        <time>2025-02-28T19:23:57Z</time>
      </trkpt>
      <trkpt lat="48.60002" lon="-2.89672">
        <ele>97</ele>
        <time>2025-02-28T19:24:12Z</time>
      </trkpt>
      <trkpt lat="48.60058" lon="-2.89695">
        <ele>97</ele>
        <time>2025-02-28T19:24:23Z</time>
      </trkpt>
      <trkpt lat="48.60213" lon="-2.89757">
        <ele>98</ele>
        <time>2025-02-28T19:24:51Z</time>
      </trkpt>
      <trkpt lat="48.60269" lon="-2.89786">
        <ele>97</ele>
        <time>2025-02-28T19:25:02Z</time>
      </trkpt>
      <trkpt lat="48.60294" lon="-2.89799">
        <ele>96</ele>
        <time>2025-02-28T19:25:06Z</time>
      </trkpt>
      <trkpt lat="48.60368" lon="-2.89844">
        <ele>95</ele>
        <time>2025-02-28T19:25:20Z</time>
      </trkpt>
      <trkpt lat="48.60493" lon="-2.89942">
        <ele>95</ele>
        <time>2025-02-28T19:25:46Z</time>
      </trkpt>
      <trkpt lat="48.60621" lon="-2.90057">
        <ele>95</ele>
        <time>2025-02-28T19:26:12Z</time>
      </trkpt>
      <trkpt lat="48.60655" lon="-2.90084">
        <ele>96</ele>
        <time>2025-02-28T19:26:19Z</time>
      </trkpt>
      <trkpt lat="48.60691" lon="-2.90109">
        <ele>96</ele>
        <time>2025-02-28T19:26:26Z</time>
      </trkpt>
      <trkpt lat="48.60752" lon="-2.90139">
        <ele>95</ele>
        <time>2025-02-28T19:26:37Z</time>
      </trkpt>
      <trkpt lat="48.60786" lon="-2.90151">
        <ele>94</ele>
        <time>2025-02-28T19:26:44Z</time>
      </trkpt>
      <trkpt lat="48.60823" lon="-2.9016">
        <ele>93</ele>
        <time>2025-02-28T19:26:50Z</time>
      </trkpt>
      <trkpt lat="48.60861" lon="-2.90165">
        <ele>93</ele>
        <time>2025-02-28T19:26:57Z</time>
      </trkpt>
      <trkpt lat="48.60906" lon="-2.90166">
        <ele>94</ele>
        <time>2025-02-28T19:27:05Z</time>
      </trkpt>
      <trkpt lat="48.6095" lon="-2.90162">
        <ele>95</ele>
        <time>2025-02-28T19:27:13Z</time>
      </trkpt>
      <trkpt lat="48.61001" lon="-2.90149">
        <ele>97</ele>
        <time>2025-02-28T19:27:22Z</time>
      </trkpt>
      <trkpt lat="48.61049" lon="-2.9013">
        <ele>96</ele>
        <time>2025-02-28T19:27:31Z</time>
      </trkpt>
      <trkpt lat="48.61102" lon="-2.90102">
        <ele>95</ele>
        <time>2025-02-28T19:27:41Z</time>
      </trkpt>
      <trkpt lat="48.61138" lon="-2.90076">
        <ele>95</ele>
        <time>2025-02-28T19:27:48Z</time>
      </trkpt>
      <trkpt lat="48.61226" lon="-2.89999">
        <ele>95</ele>
        <time>2025-02-28T19:28:06Z</time>
      </trkpt>
      <trkpt lat="48.61311" lon="-2.89925">
        <ele>96</ele>
        <time>2025-02-28T19:28:23Z</time>
      </trkpt>
      <trkpt lat="48.61354" lon="-2.89894">
        <ele>96</ele>
        <time>2025-02-28T19:28:32Z</time>
      </trkpt>
      <trkpt lat="48.61409" lon="-2.8986">
        <ele>97</ele>
        <time>2025-02-28T19:28:43Z</time>
      </trkpt>
      <trkpt lat="48.61439" lon="-2.89845">
        <ele>97</ele>
        <time>2025-02-28T19:28:48Z</time>
      </trkpt>
      <trkpt lat="48.61813" lon="-2.89672">
        <ele>99</ele>
        <time>2025-02-28T19:29:58Z</time>
      </trkpt>
      <trkpt lat="48.61879" lon="-2.89643">
        <ele>100</ele>
        <time>2025-02-28T19:30:10Z</time>
      </trkpt>
      <trkpt lat="48.61908" lon="-2.89633">
        <ele>101</ele>
        <time>2025-02-28T19:30:15Z</time>
      </trkpt>
      <trkpt lat="48.61961" lon="-2.89619">
        <ele>100</ele>
        <time>2025-02-28T19:30:25Z</time>
      </trkpt>
      <trkpt lat="48.62019" lon="-2.89612">
        <ele>101</ele>
        <time>2025-02-28T19:30:35Z</time>
      </trkpt>
      <trkpt lat="48.62056" lon="-2.8961">
        <ele>102</ele>
        <time>2025-02-28T19:30:42Z</time>
      </trkpt>
      <trkpt lat="48.62091" lon="-2.89611">
        <ele>103</ele>
        <time>2025-02-28T19:30:48Z</time>
      </trkpt>
      <trkpt lat="48.62126" lon="-2.89615">
        <ele>102</ele>
        <time>2025-02-28T19:30:54Z</time>
      </trkpt>
      <trkpt lat="48.62385" lon="-2.8965">
        <ele>101</ele>
        <time>2025-02-28T19:31:41Z</time>
      </trkpt>
      <trkpt lat="48.62409" lon="-2.89658">
        <ele>101</ele>
        <time>2025-02-28T19:31:45Z</time>
      </trkpt>
      <trkpt lat="48.62433" lon="-2.89668">
        <ele>101</ele>
        <time>2025-02-28T19:31:49Z</time>
      </trkpt>
      <trkpt lat="48.62468" lon="-2.89693">
        <ele>101</ele>
        <time>2025-02-28T19:31:56Z</time>
      </trkpt>
      <trkpt lat="48.62503" lon="-2.89724">
        <ele>101</ele>
        <time>2025-02-28T19:32:03Z</time>
      </trkpt>
      <trkpt lat="48.62666" lon="-2.89883">
        <ele>101</ele>
        <time>2025-02-28T19:32:38Z</time>
      </trkpt>
      <trkpt lat="48.62867" lon="-2.90075">
        <ele>102</ele>
        <time>2025-02-28T19:33:20Z</time>
      </trkpt>
      <trkpt lat="48.62901" lon="-2.9011">
        <ele>101</ele>
        <time>2025-02-28T19:33:28Z</time>
      </trkpt>
      <trkpt lat="48.6295" lon="-2.90177">
        <ele>101</ele>
        <time>2025-02-28T19:33:39Z</time>
      </trkpt>
      <trkpt lat="48.63004" lon="-2.9029">
        <ele>99</ele>
        <time>2025-02-28T19:33:56Z</time>
      </trkpt>
      <trkpt lat="48.63048" lon="-2.90367">
        <ele>98</ele>
        <time>2025-02-28T19:34:08Z</time>
      </trkpt>
      <trkpt lat="48.63085" lon="-2.90416">
        <ele>97</ele>
        <time>2025-02-28T19:34:16Z</time>
      </trkpt>
      <trkpt lat="48.63307" lon="-2.90657">
        <ele>98</ele>
        <time>2025-02-28T19:35:05Z</time>
      </trkpt>
      <trkpt lat="48.6337" lon="-2.90726">
        <ele>98</ele>
        <time>2025-02-28T19:35:19Z</time>
      </trkpt>
      <trkpt lat="48.63412" lon="-2.90761">
        <ele>99</ele>
        <time>2025-02-28T19:35:27Z</time>
      </trkpt>
      <trkpt lat="48.63417" lon="-2.90764">
        <ele>99</ele>
        <time>2025-02-28T19:35:28Z</time>
      </trkpt>
      <trkpt lat="48.63431" lon="-2.90772">
        <ele>99</ele>
        <time>2025-02-28T19:35:31Z</time>
      </trkpt>
      <trkpt lat="48.63463" lon="-2.90783">
        <ele>99</ele>
        <time>2025-02-28T19:35:37Z</time>
      </trkpt>
      <trkpt lat="48.63496" lon="-2.90785">
        <ele>99</ele>
        <time>2025-02-28T19:35:43Z</time>
      </trkpt>
      <trkpt lat="48.63521" lon="-2.90785">
        <ele>100</ele>
        <time>2025-02-28T19:35:47Z</time>
      </trkpt>
      <trkpt lat="48.63526" lon="-2.90781">
        <ele>100</ele>
        <time>2025-02-28T19:35:48Z</time>
      </trkpt>
      <trkpt lat="48.63531" lon="-2.90784">
        <ele>100</ele>
        <time>2025-02-28T19:35:49Z</time>
      </trkpt>
      <trkpt lat="48.63539" lon="-2.90899">
        <ele>100</ele>
        <time>2025-02-28T19:36:03Z</time>
      </trkpt>
      <trkpt lat="48.63554" lon="-2.91094">
        <ele>101</ele>
        <time>2025-02-28T19:36:26Z</time>
      </trkpt>
      <trkpt lat="48.63561" lon="-2.91219">
        <ele>100</ele>
        <time>2025-02-28T19:36:41Z</time>
      </trkpt>
      <trkpt lat="48.63562" lon="-2.91259">
        <ele>100</ele>
        <time>2025-02-28T19:36:45Z</time>
      </trkpt>
      <trkpt lat="48.63561" lon="-2.91296">
        <ele>101</ele>
        <time>2025-02-28T19:36:50Z</time>
      </trkpt>
      <trkpt lat="48.63558" lon="-2.91324">
        <ele>101</ele>
        <time>2025-02-28T19:36:53Z</time>
      </trkpt>
      <trkpt lat="48.63554" lon="-2.91352">
        <ele>100</ele>
        <time>2025-02-28T19:36:56Z</time>
      </trkpt>
      <trkpt lat="48.63537" lon="-2.91414">
        <ele>99</ele>
        <time>2025-02-28T19:37:04Z</time>
      </trkpt>
      <trkpt lat="48.63531" lon="-2.91431">
        <ele>99</ele>
        <time>2025-02-28T19:37:07Z</time>
      </trkpt>
      <trkpt lat="48.63511" lon="-2.91474">
        <ele>98</ele>
        <time>2025-02-28T19:37:13Z</time>
      </trkpt>
      <trkpt lat="48.6349" lon="-2.91517">
        <ele>98</ele>
        <time>2025-02-28T19:37:19Z</time>
      </trkpt>
      <trkpt lat="48.63474" lon="-2.91559">
        <ele>98</ele>
        <time>2025-02-28T19:37:25Z</time>
      </trkpt>
      <trkpt lat="48.63464" lon="-2.91595">
        <ele>98</ele>
        <time>2025-02-28T19:37:29Z</time>
      </trkpt>
      <trkpt lat="48.63456" lon="-2.91633">
        <ele>99</ele>
        <time>2025-02-28T19:37:34Z</time>
      </trkpt>
      <trkpt lat="48.63451" lon="-2.91676">
        <ele>99</ele>
        <time>2025-02-28T19:37:39Z</time>
      </trkpt>
      <trkpt lat="48.63433" lon="-2.91877">
        <ele>98</ele>
        <time>2025-02-28T19:38:03Z</time>
      </trkpt>
      <trkpt lat="48.63429" lon="-2.91939">
        <ele>97</ele>
        <time>2025-02-28T19:38:10Z</time>
      </trkpt>
      <trkpt lat="48.63429" lon="-2.9198">
        <ele>97</ele>
        <time>2025-02-28T19:38:15Z</time>
      </trkpt>
      <trkpt lat="48.63432" lon="-2.92105">
        <ele>97</ele>
        <time>2025-02-28T19:38:30Z</time>
      </trkpt>
      <trkpt lat="48.63436" lon="-2.92177">
        <ele>97</ele>
        <time>2025-02-28T19:38:38Z</time>
      </trkpt>
      <trkpt lat="48.63436" lon="-2.92213">
        <ele>98</ele>
        <time>2025-02-28T19:38:43Z</time>
      </trkpt>
      <trkpt lat="48.63431" lon="-2.92353">
        <ele>96</ele>
        <time>2025-02-28T19:38:59Z</time>
      </trkpt>
      <trkpt lat="48.63429" lon="-2.9242">
        <ele>95</ele>
        <time>2025-02-28T19:39:07Z</time>
      </trkpt>
      <trkpt lat="48.63432" lon="-2.92469">
        <ele>94</ele>
        <time>2025-02-28T19:39:13Z</time>
      </trkpt>
      <trkpt lat="48.63437" lon="-2.92491">
        <ele>94</ele>
        <time>2025-02-28T19:39:15Z</time>
      </trkpt>
      <trkpt lat="48.63445" lon="-2.92525">
        <ele>94</ele>
        <time>2025-02-28T19:39:20Z</time>
      </trkpt>
      <trkpt lat="48.63481" lon="-2.92649">
        <ele>92</ele>
        <time>2025-02-28T19:39:36Z</time>
      </trkpt>
      <trkpt lat="48.6349" lon="-2.92685">
        <ele>92</ele>
        <time>2025-02-28T19:39:40Z</time>
      </trkpt>
      <trkpt lat="48.63498" lon="-2.92728">
        <ele>91</ele>
        <time>2025-02-28T19:39:45Z</time>
      </trkpt>
      <trkpt lat="48.63505" lon="-2.92784">
        <ele>90</ele>
        <time>2025-02-28T19:39:52Z</time>
      </trkpt>
      <trkpt lat="48.6351" lon="-2.92848">
        <ele>90</ele>
        <time>2025-02-28T19:40:00Z</time>
      </trkpt>
      <trkpt lat="48.63573" lon="-2.92859">
        <ele>93</ele>
        <time>2025-02-28T19:40:11Z</time>
      </trkpt>
      <trkpt lat="48.63607" lon="-2.92873">
        <ele>94</ele>
        <time>2025-02-28T19:40:17Z</time>
      </trkpt>
      <trkpt lat="48.63804" lon="-2.9289">
        <ele>98</ele>
        <time>2025-02-28T19:40:52Z</time>
      </trkpt>
      <trkpt lat="48.63846" lon="-2.92889">
        <ele>99</ele>
        <time>2025-02-28T19:41:00Z</time>
      </trkpt>
      <trkpt lat="48.63864" lon="-2.92884">
        <ele>98</ele>
        <time>2025-02-28T19:41:03Z</time>
      </trkpt>
      <trkpt lat="48.63919" lon="-2.92879">
        <ele>98</ele>
        <time>2025-02-28T19:41:13Z</time>
      </trkpt>
      <trkpt lat="48.63931" lon="-2.92874">
        <ele>98</ele>
        <time>2025-02-28T19:41:15Z</time>
      </trkpt>
      <trkpt lat="48.63933" lon="-2.92874">
        <ele>98</ele>
        <time>2025-02-28T19:41:15Z</time>
      </trkpt>
      <trkpt lat="48.63938" lon="-2.92922">
        <ele>97</ele>
        <time>2025-02-28T19:41:21Z</time>
      </trkpt>
      <trkpt lat="48.63931" lon="-2.92998">
        <ele>98</ele>
        <time>2025-02-28T19:41:30Z</time>
      </trkpt>
      <trkpt lat="48.63921" lon="-2.93063">
        <ele>97</ele>
        <time>2025-02-28T19:41:38Z</time>
      </trkpt>
      <trkpt lat="48.63906" lon="-2.9314">
        <ele>95</ele>
        <time>2025-02-28T19:41:47Z</time>
      </trkpt>
      <trkpt lat="48.63891" lon="-2.93177">
        <ele>94</ele>
        <time>2025-02-28T19:41:53Z</time>
      </trkpt>
      <trkpt lat="48.63861" lon="-2.93211">
        <ele>94</ele>
        <time>2025-02-28T19:41:59Z</time>
      </trkpt>
      <trkpt lat="48.63838" lon="-2.93261">
        <ele>93</ele>
        <time>2025-02-28T19:42:06Z</time>
      </trkpt>
      <trkpt lat="48.63824" lon="-2.9332">
        <ele>93</ele>
        <time>2025-02-28T19:42:14Z</time>
      </trkpt>
      <trkpt lat="48.63822" lon="-2.93346">
        <ele>93</ele>
        <time>2025-02-28T19:42:17Z</time>
      </trkpt>
      <trkpt lat="48.63814" lon="-2.93383">
        <ele>92</ele>
        <time>2025-02-28T19:42:21Z</time>
      </trkpt>
      <trkpt lat="48.63798" lon="-2.93444">
        <ele>91</ele>
        <time>2025-02-28T19:42:29Z</time>
      </trkpt>
      <trkpt lat="48.63782" lon="-2.93485">
        <ele>91</ele>
        <time>2025-02-28T19:42:35Z</time>
      </trkpt>
      <trkpt lat="48.63767" lon="-2.9354">
        <ele>89</ele>
        <time>2025-02-28T19:42:42Z</time>
      </trkpt>
      <trkpt lat="48.63764" lon="-2.93568">
        <ele>88</ele>
        <time>2025-02-28T19:42:45Z</time>
      </trkpt>
      <trkpt lat="48.63761" lon="-2.93666">
        <ele>86</ele>
        <time>2025-02-28T19:42:57Z</time>
      </trkpt>
      <trkpt lat="48.63754" lon="-2.93751">
        <ele>86</ele>
        <time>2025-02-28T19:43:07Z</time>
      </trkpt>
      <trkpt lat="48.63744" lon="-2.93799">
        <ele>86</ele>
        <time>2025-02-28T19:43:13Z</time>
      </trkpt>
      <trkpt lat="48.6373" lon="-2.93838">
        <ele>86</ele>
        <time>2025-02-28T19:43:18Z</time>
      </trkpt>
      <trkpt lat="48.63674" lon="-2.93926">
        <ele>85</ele>
        <time>2025-02-28T19:43:32Z</time>
      </trkpt>
      <trkpt lat="48.63667" lon="-2.93943">
        <ele>85</ele>
        <time>2025-02-28T19:43:35Z</time>
      </trkpt>
      <trkpt lat="48.63671" lon="-2.93943">
        <ele>85</ele>
        <time>2025-02-28T19:43:35Z</time>
      </trkpt>
      <trkpt lat="48.63687" lon="-2.93952">
        <ele>85</ele>
        <time>2025-02-28T19:43:38Z</time>
      </trkpt>
      <trkpt lat="48.63703" lon="-2.93966">
        <ele>86</ele>
        <time>2025-02-28T19:43:42Z</time>
      </trkpt>
      <trkpt lat="48.63721" lon="-2.93974">
        <ele>86</ele>
        <time>2025-02-28T19:43:45Z</time>
      </trkpt>
      <trkpt lat="48.63832" lon="-2.9395">
        <ele>87</ele>
        <time>2025-02-28T19:44:05Z</time>
      </trkpt>
      <trkpt lat="48.63925" lon="-2.93952">
        <ele>88</ele>
        <time>2025-02-28T19:44:21Z</time>
      </trkpt>
      <trkpt lat="48.63956" lon="-2.93958">
        <ele>87</ele>
        <time>2025-02-28T19:44:27Z</time>
      </trkpt>
      <trkpt lat="48.64087" lon="-2.93991">
        <ele>86</ele>
        <time>2025-02-28T19:44:51Z</time>
      </trkpt>
      <trkpt lat="48.64094" lon="-2.93993">
        <ele>86</ele>
        <time>2025-02-28T19:44:52Z</time>
      </trkpt>
      <trkpt lat="48.64119" lon="-2.93999">
        <ele>88</ele>
        <time>2025-02-28T19:44:56Z</time>
      </trkpt>
      <trkpt lat="48.64187" lon="-2.93995">
        <ele>90</ele>
        <time>2025-02-28T19:45:08Z</time>
      </trkpt>
      <trkpt lat="48.64262" lon="-2.93979">
        <ele>91</ele>
        <time>2025-02-28T19:45:22Z</time>
      </trkpt>
      <trkpt lat="48.64321" lon="-2.93988">
        <ele>91</ele>
        <time>2025-02-28T19:45:32Z</time>
      </trkpt>
      <trkpt lat="48.64362" lon="-2.93975">
        <ele>91</ele>
        <time>2025-02-28T19:45:40Z</time>
      </trkpt>
      <trkpt lat="48.64507" lon="-2.93924">
        <ele>92</ele>
        <time>2025-02-28T19:46:06Z</time>
      </trkpt>
      <trkpt lat="48.64567" lon="-2.93898">
        <ele>91</ele>
        <time>2025-02-28T19:46:18Z</time>
      </trkpt>
      <trkpt lat="48.64607" lon="-2.93897">
        <ele>90</ele>
        <time>2025-02-28T19:46:25Z</time>
      </trkpt>
      <trkpt lat="48.64616" lon="-2.93894">
        <ele>90</ele>
        <time>2025-02-28T19:46:26Z</time>
      </trkpt>
      <trkpt lat="48.64721" lon="-2.93877">
        <ele>90</ele>
        <time>2025-02-28T19:46:45Z</time>
      </trkpt>
      <trkpt lat="48.6477" lon="-2.93858">
        <ele>90</ele>
        <time>2025-02-28T19:46:54Z</time>
      </trkpt>
      <trkpt lat="48.64836" lon="-2.93877">
        <ele>89</ele>
        <time>2025-02-28T19:47:06Z</time>
      </trkpt>
      <trkpt lat="48.64923" lon="-2.93906">
        <ele>88</ele>
        <time>2025-02-28T19:47:22Z</time>
      </trkpt>
      <trkpt lat="48.64947" lon="-2.93914">
        <ele>88</ele>
        <time>2025-02-28T19:47:26Z</time>
      </trkpt>
      <trkpt lat="48.65059" lon="-2.93925">
        <ele>90</ele>
        <time>2025-02-28T19:47:46Z</time>
      </trkpt>
      <trkpt lat="48.65118" lon="-2.93938">
        <ele>91</ele>
        <time>2025-02-28T19:47:57Z</time>
      </trkpt>
      <trkpt lat="48.65135" lon="-2.93937">
        <ele>91</ele>
        <time>2025-02-28T19:48:00Z</time>
      </trkpt>
      <trkpt lat="48.65144" lon="-2.93933">
        <ele>91</ele>
        <time>2025-02-28T19:48:02Z</time>
      </trkpt>
      <trkpt lat="48.65155" lon="-2.9392">
        <ele>92</ele>
        <time>2025-02-28T19:48:04Z</time>
      </trkpt>
      <trkpt lat="48.65165" lon="-2.93906">
        <ele>92</ele>
        <time>2025-02-28T19:48:06Z</time>
      </trkpt>
      <trkpt lat="48.65172" lon="-2.93884">
        <ele>93</ele>
        <time>2025-02-28T19:48:09Z</time>
      </trkpt>
      <trkpt lat="48.65175" lon="-2.93573">
        <ele>95</ele>
        <time>2025-02-28T19:48:46Z</time>
      </trkpt>
      <trkpt lat="48.65177" lon="-2.93536">
        <ele>95</ele>
        <time>2025-02-28T19:48:50Z</time>
      </trkpt>
      <trkpt lat="48.65187" lon="-2.93508">
        <ele>96</ele>
        <time>2025-02-28T19:48:54Z</time>
      </trkpt>
      <trkpt lat="48.65203" lon="-2.93495">
        <ele>96</ele>
        <time>2025-02-28T19:48:57Z</time>
      </trkpt>
      <trkpt lat="48.6538" lon="-2.93444">
        <ele>92</ele>
        <time>2025-02-28T19:49:29Z</time>
      </trkpt>
      <trkpt lat="48.65578" lon="-2.93387">
        <ele>87</ele>
        <time>2025-02-28T19:50:05Z</time>
      </trkpt>
      <trkpt lat="48.65613" lon="-2.93377">
        <ele>86</ele>
        <time>2025-02-28T19:50:11Z</time>
      </trkpt>
      <trkpt lat="48.65714" lon="-2.93388">
        <ele>84</ele>
        <time>2025-02-28T19:50:29Z</time>
      </trkpt>
      <trkpt lat="48.65835" lon="-2.93391">
        <ele>83</ele>
        <time>2025-02-28T19:50:51Z</time>
      </trkpt>
      <trkpt lat="48.65838" lon="-2.93391">
        <ele>83</ele>
        <time>2025-02-28T19:50:52Z</time>
      </trkpt>
      <trkpt lat="48.65894" lon="-2.93389">
        <ele>83</ele>
        <time>2025-02-28T19:51:02Z</time>
      </trkpt>
      <trkpt lat="48.65923" lon="-2.93383">
        <ele>83</ele>
        <time>2025-02-28T19:51:07Z</time>
      </trkpt>
      <trkpt lat="48.65971" lon="-2.93363">
        <ele>81</ele>
        <time>2025-02-28T19:51:16Z</time>
      </trkpt>
      <trkpt lat="48.66" lon="-2.93355">
        <ele>80</ele>
        <time>2025-02-28T19:51:21Z</time>
      </trkpt>
      <trkpt lat="48.66016" lon="-2.93353">
        <ele>80</ele>
        <time>2025-02-28T19:51:24Z</time>
      </trkpt>
      <trkpt lat="48.66072" lon="-2.93357">
        <ele>78</ele>
        <time>2025-02-28T19:51:34Z</time>
      </trkpt>
      <trkpt lat="48.66127" lon="-2.93342">
        <ele>76</ele>
        <time>2025-02-28T19:51:44Z</time>
      </trkpt>
      <trkpt lat="48.66211" lon="-2.93327">
        <ele>72</ele>
        <time>2025-02-28T19:51:59Z</time>
      </trkpt>
      <trkpt lat="48.66214" lon="-2.93326">
        <ele>72</ele>
        <time>2025-02-28T19:51:59Z</time>
      </trkpt>
      <trkpt lat="48.66257" lon="-2.93307">
        <ele>69</ele>
        <time>2025-02-28T19:52:07Z</time>
      </trkpt>
      <trkpt lat="48.6627" lon="-2.93306">
        <ele>68</ele>
        <time>2025-02-28T19:52:09Z</time>
      </trkpt>
      <trkpt lat="48.66307" lon="-2.9331">
        <ele>67</ele>
        <time>2025-02-28T19:52:16Z</time>
      </trkpt>
      <trkpt lat="48.66322" lon="-2.93307">
        <ele>66</ele>
        <time>2025-02-28T19:52:19Z</time>
      </trkpt>
      <trkpt lat="48.66344" lon="-2.93297">
        <ele>65</ele>
        <time>2025-02-28T19:52:23Z</time>
      </trkpt>
      <trkpt lat="48.66401" lon="-2.93247">
        <ele>63</ele>
        <time>2025-02-28T19:52:35Z</time>
      </trkpt>
      <trkpt lat="48.66435" lon="-2.93215">
        <ele>64</ele>
        <time>2025-02-28T19:52:42Z</time>
      </trkpt>
      <trkpt lat="48.66444" lon="-2.93204">
        <ele>65</ele>
        <time>2025-02-28T19:52:44Z</time>
      </trkpt>
      <trkpt lat="48.66491" lon="-2.93135">
        <ele>66</ele>
        <time>2025-02-28T19:52:55Z</time>
      </trkpt>
      <trkpt lat="48.66508" lon="-2.93118">
        <ele>67</ele>
        <time>2025-02-28T19:52:59Z</time>
      </trkpt>
      <trkpt lat="48.66514" lon="-2.93115">
        <ele>67</ele>
        <time>2025-02-28T19:53:00Z</time>
      </trkpt>
      <trkpt lat="48.66529" lon="-2.93114">
        <ele>68</ele>
        <time>2025-02-28T19:53:03Z</time>
      </trkpt>
      <trkpt lat="48.66628" lon="-2.93129">
        <ele>70</ele>
        <time>2025-02-28T19:53:21Z</time>
      </trkpt>
      <trkpt lat="48.6665" lon="-2.93134">
        <ele>70</ele>
        <time>2025-02-28T19:53:24Z</time>
      </trkpt>
      <trkpt lat="48.66687" lon="-2.93148">
        <ele>70</ele>
        <time>2025-02-28T19:53:31Z</time>
      </trkpt>
      <trkpt lat="48.66718" lon="-2.93154">
        <ele>69</ele>
        <time>2025-02-28T19:53:37Z</time>
      </trkpt>
      <trkpt lat="48.66734" lon="-2.93155">
        <ele>69</ele>
        <time>2025-02-28T19:53:40Z</time>
      </trkpt>
      <trkpt lat="48.66744" lon="-2.93154">
        <ele>69</ele>
        <time>2025-02-28T19:53:41Z</time>
      </trkpt>
      <trkpt lat="48.66788" lon="-2.93138">
        <ele>69</ele>
        <time>2025-02-28T19:53:50Z</time>
      </trkpt>
      <trkpt lat="48.66839" lon="-2.93126">
        <ele>68</ele>
        <time>2025-02-28T19:53:59Z</time>
      </trkpt>
      <trkpt lat="48.6686" lon="-2.93119">
        <ele>68</ele>
        <time>2025-02-28T19:54:03Z</time>
      </trkpt>
      <trkpt lat="48.66862" lon="-2.93132">
        <ele>68</ele>
        <time>2025-02-28T19:54:04Z</time>
      </trkpt>
      <trkpt lat="48.66858" lon="-2.93151">
        <ele>69</ele>
        <time>2025-02-28T19:54:06Z</time>
      </trkpt>
      <trkpt lat="48.66815" lon="-2.93273">
        <ele>70</ele>
        <time>2025-02-28T19:54:23Z</time>
      </trkpt>
      <trkpt lat="48.66789" lon="-2.93405">
        <ele>69</ele>
        <time>2025-02-28T19:54:39Z</time>
      </trkpt>
      <trkpt lat="48.6678" lon="-2.93436">
        <ele>69</ele>
        <time>2025-02-28T19:54:43Z</time>
      </trkpt>
      <trkpt lat="48.66753" lon="-2.93522">
        <ele>70</ele>
        <time>2025-02-28T19:54:54Z</time>
      </trkpt>
      <trkpt lat="48.66741" lon="-2.93553">
        <ele>71</ele>
        <time>2025-02-28T19:54:58Z</time>
      </trkpt>
      <trkpt lat="48.66706" lon="-2.93626">
        <ele>71</ele>
        <time>2025-02-28T19:55:09Z</time>
      </trkpt>
      <trkpt lat="48.66692" lon="-2.93661">
        <ele>71</ele>
        <time>2025-02-28T19:55:14Z</time>
      </trkpt>
      <trkpt lat="48.6669" lon="-2.9367">
        <ele>71</ele>
        <time>2025-02-28T19:55:15Z</time>
      </trkpt>
      <trkpt lat="48.6669" lon="-2.93694">
        <ele>71</ele>
        <time>2025-02-28T19:55:18Z</time>
      </trkpt>
      <trkpt lat="48.66693" lon="-2.93713">
        <ele>70</ele>
        <time>2025-02-28T19:55:20Z</time>
      </trkpt>
      <trkpt lat="48.66692" lon="-2.9373">
        <ele>70</ele>
        <time>2025-02-28T19:55:22Z</time>
      </trkpt>
      <trkpt lat="48.66688" lon="-2.93745">
        <ele>70</ele>
        <time>2025-02-28T19:55:24Z</time>
      </trkpt>
      <trkpt lat="48.66679" lon="-2.93768">
        <ele>69</ele>
        <time>2025-02-28T19:55:27Z</time>
      </trkpt>
      <trkpt lat="48.66643" lon="-2.93845">
        <ele>67</ele>
        <time>2025-02-28T19:55:38Z</time>
      </trkpt>
      <trkpt lat="48.66637" lon="-2.93862">
        <ele>67</ele>
        <time>2025-02-28T19:55:40Z</time>
      </trkpt>
      <trkpt lat="48.66636" lon="-2.93868">
        <ele>67</ele>
        <time>2025-02-28T19:55:41Z</time>
      </trkpt>
      <trkpt lat="48.66637" lon="-2.93884">
        <ele>67</ele>
        <time>2025-02-28T19:55:43Z</time>
      </trkpt>
      <trkpt lat="48.66658" lon="-2.93957">
        <ele>68</ele>
        <time>2025-02-28T19:55:52Z</time>
      </trkpt>
      <trkpt lat="48.66665" lon="-2.93991">
        <ele>68</ele>
        <time>2025-02-28T19:55:56Z</time>
      </trkpt>
      <trkpt lat="48.66669" lon="-2.94018">
        <ele>68</ele>
        <time>2025-02-28T19:56:00Z</time>
      </trkpt>
      <trkpt lat="48.66675" lon="-2.94105">
        <ele>70</ele>
        <time>2025-02-28T19:56:10Z</time>
      </trkpt>
      <trkpt lat="48.66673" lon="-2.94121">
        <ele>70</ele>
        <time>2025-02-28T19:56:12Z</time>
      </trkpt>
      <trkpt lat="48.66663" lon="-2.94146">
        <ele>70</ele>
        <time>2025-02-28T19:56:15Z</time>
      </trkpt>
      <trkpt lat="48.66644" lon="-2.94182">
        <ele>71</ele>
        <time>2025-02-28T19:56:21Z</time>
      </trkpt>
      <trkpt lat="48.66637" lon="-2.94204">
        <ele>72</ele>
        <time>2025-02-28T19:56:24Z</time>
      </trkpt>
      <trkpt lat="48.66633" lon="-2.94266">
        <ele>73</ele>
        <time>2025-02-28T19:56:31Z</time>
      </trkpt>
      <trkpt lat="48.66626" lon="-2.94335">
        <ele>76</ele>
        <time>2025-02-28T19:56:39Z</time>
      </trkpt>
      <trkpt lat="48.66626" lon="-2.9435">
        <ele>76</ele>
        <time>2025-02-28T19:56:41Z</time>
      </trkpt>
      <trkpt lat="48.66629" lon="-2.94376">
        <ele>76</ele>
        <time>2025-02-28T19:56:44Z</time>
      </trkpt>
      <trkpt lat="48.66643" lon="-2.94459">
        <ele>77</ele>
        <time>2025-02-28T19:56:54Z</time>
      </trkpt>
      <trkpt lat="48.66648" lon="-2.94482">
        <ele>77</ele>
        <time>2025-02-28T19:56:57Z</time>
      </trkpt>
      <trkpt lat="48.66685" lon="-2.94574">
        <ele>79</ele>
        <time>2025-02-28T19:57:10Z</time>
      </trkpt>
      <trkpt lat="48.66712" lon="-2.9467">
        <ele>83</ele>
        <time>2025-02-28T19:57:22Z</time>
      </trkpt>
      <trkpt lat="48.66718" lon="-2.94688">
        <ele>83</ele>
        <time>2025-02-28T19:57:24Z</time>
      </trkpt>
      <trkpt lat="48.66722" lon="-2.94696">
        <ele>83</ele>
        <time>2025-02-28T19:57:25Z</time>
      </trkpt>
      <trkpt lat="48.66723" lon="-2.94707">
        <ele>83</ele>
        <time>2025-02-28T19:57:27Z</time>
      </trkpt>
      <trkpt lat="48.66722" lon="-2.94715">
        <ele>83</ele>
        <time>2025-02-28T19:57:28Z</time>
      </trkpt>
      <trkpt lat="48.66717" lon="-2.9473">
        <ele>83</ele>
        <time>2025-02-28T19:57:30Z</time>
      </trkpt>
      <trkpt lat="48.66707" lon="-2.94753">
        <ele>83</ele>
        <time>2025-02-28T19:57:33Z</time>
      </trkpt>
      <trkpt lat="48.66698" lon="-2.94773">
        <ele>83</ele>
        <time>2025-02-28T19:57:36Z</time>
      </trkpt>
      <trkpt lat="48.66697" lon="-2.94782">
        <ele>83</ele>
        <time>2025-02-28T19:57:37Z</time>
      </trkpt>
      <trkpt lat="48.66704" lon="-2.94839">
        <ele>83</ele>
        <time>2025-02-28T19:57:44Z</time>
      </trkpt>
      <trkpt lat="48.66715" lon="-2.94909">
        <ele>83</ele>
        <time>2025-02-28T19:57:52Z</time>
      </trkpt>
      <trkpt lat="48.66719" lon="-2.94945">
        <ele>83</ele>
        <time>2025-02-28T19:57:56Z</time>
      </trkpt>
      <trkpt lat="48.66719" lon="-2.94966">
        <ele>84</ele>
        <time>2025-02-28T19:57:59Z</time>
      </trkpt>
      <trkpt lat="48.66707" lon="-2.95071">
        <ele>85</ele>
        <time>2025-02-28T19:58:11Z</time>
      </trkpt>
      <trkpt lat="48.66697" lon="-2.95132">
        <ele>85</ele>
        <time>2025-02-28T19:58:19Z</time>
      </trkpt>
      <trkpt lat="48.66698" lon="-2.95161">
        <ele>85</ele>
        <time>2025-02-28T19:58:22Z</time>
      </trkpt>
      <trkpt lat="48.66701" lon="-2.95173">
        <ele>86</ele>
        <time>2025-02-28T19:58:24Z</time>
      </trkpt>
      <trkpt lat="48.66709" lon="-2.95193">
        <ele>86</ele>
        <time>2025-02-28T19:58:26Z</time>
      </trkpt>
      <trkpt lat="48.66726" lon="-2.95219">
        <ele>87</ele>
        <time>2025-02-28T19:58:31Z</time>
      </trkpt>
      <trkpt lat="48.66776" lon="-2.95264">
        <ele>88</ele>
        <time>2025-02-28T19:58:41Z</time>
      </trkpt>
      <trkpt lat="48.6679" lon="-2.95279">
        <ele>88</ele>
        <time>2025-02-28T19:58:44Z</time>
      </trkpt>
      <trkpt lat="48.66797" lon="-2.9529">
        <ele>88</ele>
        <time>2025-02-28T19:58:46Z</time>
      </trkpt>
      <trkpt lat="48.668" lon="-2.95306">
        <ele>88</ele>
        <time>2025-02-28T19:58:48Z</time>
      </trkpt>
      <trkpt lat="48.66798" lon="-2.95342">
        <ele>88</ele>
        <time>2025-02-28T19:58:52Z</time>
      </trkpt>
      <trkpt lat="48.66803" lon="-2.9543">
        <ele>88</ele>
        <time>2025-02-28T19:59:02Z</time>
      </trkpt>
      <trkpt lat="48.66799" lon="-2.95469">
        <ele>87</ele>
        <time>2025-02-28T19:59:07Z</time>
      </trkpt>
      <trkpt lat="48.66792" lon="-2.95496">
        <ele>87</ele>
        <time>2025-02-28T19:59:11Z</time>
      </trkpt>
      <trkpt lat="48.66786" lon="-2.9552">
        <ele>87</ele>
        <time>2025-02-28T19:59:14Z</time>
      </trkpt>
      <trkpt lat="48.66776" lon="-2.95588">
        <ele>86</ele>
        <time>2025-02-28T19:59:22Z</time>
      </trkpt>
      <trkpt lat="48.6677" lon="-2.95637">
        <ele>86</ele>
        <time>2025-02-28T19:59:28Z</time>
      </trkpt>
      <trkpt lat="48.66772" lon="-2.95672">
        <ele>86</ele>
        <time>2025-02-28T19:59:32Z</time>
      </trkpt>
      <trkpt lat="48.6678" lon="-2.95714">
        <ele>87</ele>
        <time>2025-02-28T19:59:37Z</time>
      </trkpt>
      <trkpt lat="48.66806" lon="-2.95819">
        <ele>88</ele>
        <time>2025-02-28T19:59:50Z</time>
      </trkpt>
      <trkpt lat="48.66827" lon="-2.95862">
        <ele>89</ele>
        <time>2025-02-28T19:59:56Z</time>
      </trkpt>
      <trkpt lat="48.66845" lon="-2.95892">
        <ele>89</ele>
        <time>2025-02-28T20:00:01Z</time>
      </trkpt>
      <trkpt lat="48.66865" lon="-2.95919">
        <ele>90</ele>
        <time>2025-02-28T20:00:06Z</time>
      </trkpt>
      <trkpt lat="48.66885" lon="-2.95943">
        <ele>90</ele>
        <time>2025-02-28T20:00:10Z</time>
      </trkpt>
      <trkpt lat="48.66946" lon="-2.95996">
        <ele>93</ele>
        <time>2025-02-28T20:00:23Z</time>
      </trkpt>
      <trkpt lat="48.6697" lon="-2.96024">
        <ele>94</ele>
        <time>2025-02-28T20:00:28Z</time>
      </trkpt>
      <trkpt lat="48.66983" lon="-2.96047">
        <ele>94</ele>
        <time>2025-02-28T20:00:32Z</time>
      </trkpt>
      <trkpt lat="48.66998" lon="-2.96087">
        <ele>94</ele>
        <time>2025-02-28T20:00:37Z</time>
      </trkpt>
      <trkpt lat="48.67018" lon="-2.9617">
        <ele>93</ele>
        <time>2025-02-28T20:00:48Z</time>
      </trkpt>
      <trkpt lat="48.67021" lon="-2.96172">
        <ele>93</ele>
        <time>2025-02-28T20:00:48Z</time>
      </trkpt>
      <trkpt lat="48.67055" lon="-2.96193">
        <ele>94</ele>
        <time>2025-02-28T20:00:55Z</time>
      </trkpt>
      <trkpt lat="48.6706" lon="-2.96204">
        <ele>94</ele>
        <time>2025-02-28T20:00:56Z</time>
      </trkpt>
      <trkpt lat="48.67069" lon="-2.9622">
        <ele>94</ele>
        <time>2025-02-28T20:00:59Z</time>
      </trkpt>
      <trkpt lat="48.67081" lon="-2.96241">
        <ele>94</ele>
        <time>2025-02-28T20:01:02Z</time>
      </trkpt>
      <trkpt lat="48.67091" lon="-2.9626">
        <ele>94</ele>
        <time>2025-02-28T20:01:05Z</time>
      </trkpt>
      <trkpt lat="48.67097" lon="-2.96277">
        <ele>95</ele>
        <time>2025-02-28T20:01:07Z</time>
      </trkpt>
      <trkpt lat="48.6711" lon="-2.96344">
        <ele>96</ele>
        <time>2025-02-28T20:01:15Z</time>
      </trkpt>
      <trkpt lat="48.6712" lon="-2.9638">
        <ele>96</ele>
        <time>2025-02-28T20:01:20Z</time>
      </trkpt>
      <trkpt lat="48.67132" lon="-2.96415">
        <ele>96</ele>
        <time>2025-02-28T20:01:25Z</time>
      </trkpt>
      <trkpt lat="48.67135" lon="-2.96422">
        <ele>96</ele>
        <time>2025-02-28T20:01:26Z</time>
      </trkpt>
      <trkpt lat="48.6715" lon="-2.96462">
        <ele>97</ele>
        <time>2025-02-28T20:01:31Z</time>
      </trkpt>
      <trkpt lat="48.67154" lon="-2.96489">
        <ele>98</ele>
        <time>2025-02-28T20:01:34Z</time>
      </trkpt>
      <trkpt lat="48.67154" lon="-2.96518">
        <ele>98</ele>
        <time>2025-02-28T20:01:38Z</time>
      </trkpt>
      <trkpt lat="48.67147" lon="-2.96599">
        <ele>98</ele>
        <time>2025-02-28T20:01:47Z</time>
      </trkpt>
      <trkpt lat="48.67127" lon="-2.96744">
        <ele>95</ele>
        <time>2025-02-28T20:02:05Z</time>
      </trkpt>
      <trkpt lat="48.67114" lon="-2.96852">
        <ele>93</ele>
        <time>2025-02-28T20:02:18Z</time>
      </trkpt>
      <trkpt lat="48.67104" lon="-2.96887">
        <ele>92</ele>
        <time>2025-02-28T20:02:22Z</time>
      </trkpt>
      <trkpt lat="48.67083" lon="-2.96933">
        <ele>91</ele>
        <time>2025-02-28T20:02:29Z</time>
      </trkpt>
      <trkpt lat="48.67074" lon="-2.96966">
        <ele>90</ele>
        <time>2025-02-28T20:02:33Z</time>
      </trkpt>
      <trkpt lat="48.6707" lon="-2.97001">
        <ele>90</ele>
        <time>2025-02-28T20:02:37Z</time>
      </trkpt>
      <trkpt lat="48.67069" lon="-2.97027">
        <ele>89</ele>
        <time>2025-02-28T20:02:40Z</time>
      </trkpt>
      <trkpt lat="48.67069" lon="-2.97128">
        <ele>87</ele>
        <time>2025-02-28T20:02:52Z</time>
      </trkpt>
      <trkpt lat="48.67064" lon="-2.97158">
        <ele>87</ele>
        <time>2025-02-28T20:02:56Z</time>
      </trkpt>
      <trkpt lat="48.67058" lon="-2.97179">
        <ele>86</ele>
        <time>2025-02-28T20:02:58Z</time>
      </trkpt>
      <trkpt lat="48.67028" lon="-2.97286">
        <ele>85</ele>
        <time>2025-02-28T20:03:12Z</time>
      </trkpt>
      <trkpt lat="48.6702" lon="-2.97307">
        <ele>85</ele>
        <time>2025-02-28T20:03:15Z</time>
      </trkpt>
      <trkpt lat="48.67012" lon="-2.97323">
        <ele>85</ele>
        <time>2025-02-28T20:03:17Z</time>
      </trkpt>
      <trkpt lat="48.66999" lon="-2.97342">
        <ele>85</ele>
        <time>2025-02-28T20:03:20Z</time>
      </trkpt>
      <trkpt lat="48.66987" lon="-2.97367">
        <ele>83</ele>
        <time>2025-02-28T20:03:24Z</time>
      </trkpt>
      <trkpt lat="48.66977" lon="-2.97401">
        <ele>82</ele>
        <time>2025-02-28T20:03:28Z</time>
      </trkpt>
      <trkpt lat="48.66967" lon="-2.97442">
        <ele>81</ele>
        <time>2025-02-28T20:03:33Z</time>
      </trkpt>
      <trkpt lat="48.66963" lon="-2.97463">
        <ele>81</ele>
        <time>2025-02-28T20:03:36Z</time>
      </trkpt>
      <trkpt lat="48.66954" lon="-2.97494">
        <ele>81</ele>
        <time>2025-02-28T20:03:40Z</time>
      </trkpt>
      <trkpt lat="48.66945" lon="-2.97518">
        <ele>80</ele>
        <time>2025-02-28T20:03:43Z</time>
      </trkpt>
      <trkpt lat="48.66893" lon="-2.9761">
        <ele>76</ele>
        <time>2025-02-28T20:03:57Z</time>
      </trkpt>
      <trkpt lat="48.66875" lon="-2.97668">
        <ele>73</ele>
        <time>2025-02-28T20:04:05Z</time>
      </trkpt>
      <trkpt lat="48.66872" lon="-2.97777">
        <ele>72</ele>
        <time>2025-02-28T20:04:18Z</time>
      </trkpt>
      <trkpt lat="48.66859" lon="-2.97879">
        <ele>69</ele>
        <time>2025-02-28T20:04:30Z</time>
      </trkpt>
      <trkpt lat="48.6685" lon="-2.98029">
        <ele>68</ele>
        <time>2025-02-28T20:04:48Z</time>
      </trkpt>
      <trkpt lat="48.66828" lon="-2.98087">
        <ele>67</ele>
        <time>2025-02-28T20:04:56Z</time>
      </trkpt>
      <trkpt lat="48.6681" lon="-2.98115">
        <ele>65</ele>
        <time>2025-02-28T20:05:00Z</time>
      </trkpt>
      <trkpt lat="48.66799" lon="-2.98129">
        <ele>65</ele>
        <time>2025-02-28T20:05:03Z</time>
      </trkpt>
      <trkpt lat="48.66765" lon="-2.98159">
        <ele>64</ele>
        <time>2025-02-28T20:05:10Z</time>
      </trkpt>
      <trkpt lat="48.66682" lon="-2.9824">
        <ele>65</ele>
        <time>2025-02-28T20:05:27Z</time>
      </trkpt>
      <trkpt lat="48.66598" lon="-2.98323">
        <ele>64</ele>
        <time>2025-02-28T20:05:45Z</time>
      </trkpt>
      <trkpt lat="48.66562" lon="-2.9835">
        <ele>63</ele>
        <time>2025-02-28T20:05:52Z</time>
      </trkpt>
      <trkpt lat="48.66557" lon="-2.98356">
        <ele>63</ele>
        <time>2025-02-28T20:05:53Z</time>
      </trkpt>
      <trkpt lat="48.66553" lon="-2.98366">
        <ele>63</ele>
        <time>2025-02-28T20:05:55Z</time>
      </trkpt>
      <trkpt lat="48.66533" lon="-2.98418">
        <ele>61</ele>
        <time>2025-02-28T20:06:02Z</time>
      </trkpt>
      <trkpt lat="48.66525" lon="-2.98427">
        <ele>61</ele>
        <time>2025-02-28T20:06:04Z</time>
      </trkpt>
      <trkpt lat="48.66505" lon="-2.98441">
        <ele>60</ele>
        <time>2025-02-28T20:06:08Z</time>
      </trkpt>
      <trkpt lat="48.66427" lon="-2.98491">
        <ele>58</ele>
        <time>2025-02-28T20:06:23Z</time>
      </trkpt>
      <trkpt lat="48.66405" lon="-2.98511">
        <ele>58</ele>
        <time>2025-02-28T20:06:27Z</time>
      </trkpt>
      <trkpt lat="48.66324" lon="-2.98601">
        <ele>58</ele>
        <time>2025-02-28T20:06:45Z</time>
      </trkpt>
      <trkpt lat="48.663" lon="-2.98624">
        <ele>58</ele>
        <time>2025-02-28T20:06:50Z</time>
      </trkpt>
      <trkpt lat="48.66287" lon="-2.98634">
        <ele>57</ele>
        <time>2025-02-28T20:06:53Z</time>
      </trkpt>
      <trkpt lat="48.66283" lon="-2.98645">
        <ele>57</ele>
        <time>2025-02-28T20:06:54Z</time>
      </trkpt>
      <trkpt lat="48.66283" lon="-2.98649">
        <ele>57</ele>
        <time>2025-02-28T20:06:55Z</time>
      </trkpt>
      <trkpt lat="48.66236" lon="-2.98658">
        <ele>57</ele>
        <time>2025-02-28T20:07:03Z</time>
      </trkpt>
      <trkpt lat="48.66163" lon="-2.98674">
        <ele>57</ele>
        <time>2025-02-28T20:07:16Z</time>
      </trkpt>
      <trkpt lat="48.66113" lon="-2.98686">
        <ele>56</ele>
        <time>2025-02-28T20:07:25Z</time>
      </trkpt>
      <trkpt lat="48.66092" lon="-2.9869">
        <ele>55</ele>
        <time>2025-02-28T20:07:29Z</time>
      </trkpt>
      <trkpt lat="48.66052" lon="-2.98689">
        <ele>54</ele>
        <time>2025-02-28T20:07:36Z</time>
      </trkpt>
      <trkpt lat="48.65997" lon="-2.98685">
        <ele>54</ele>
        <time>2025-02-28T20:07:46Z</time>
      </trkpt>
      <trkpt lat="48.65939" lon="-2.98686">
        <ele>54</ele>
        <time>2025-02-28T20:07:56Z</time>
      </trkpt>
      <trkpt lat="48.65922" lon="-2.98683">
        <ele>53</ele>
        <time>2025-02-28T20:07:59Z</time>
      </trkpt>
      <trkpt lat="48.65907" lon="-2.98677">
        <ele>53</ele>
        <time>2025-02-28T20:08:02Z</time>
      </trkpt>
      <trkpt lat="48.65893" lon="-2.98665">
        <ele>54</ele>
        <time>2025-02-28T20:08:05Z</time>
      </trkpt>
      <trkpt lat="48.65876" lon="-2.98644">
        <ele>54</ele>
        <time>2025-02-28T20:08:09Z</time>
      </trkpt>
      <trkpt lat="48.65867" lon="-2.98632">
        <ele>54</ele>
        <time>2025-02-28T20:08:11Z</time>
      </trkpt>
      <trkpt lat="48.65853" lon="-2.98616">
        <ele>55</ele>
        <time>2025-02-28T20:08:14Z</time>
      </trkpt>
      <trkpt lat="48.6583" lon="-2.98589">
        <ele>55</ele>
        <time>2025-02-28T20:08:19Z</time>
      </trkpt>
      <trkpt lat="48.65813" lon="-2.98575">
        <ele>55</ele>
        <time>2025-02-28T20:08:23Z</time>
      </trkpt>
      <trkpt lat="48.6578" lon="-2.98553">
        <ele>55</ele>
        <time>2025-02-28T20:08:29Z</time>
      </trkpt>
      <trkpt lat="48.65719" lon="-2.98531">
        <ele>55</ele>
        <time>2025-02-28T20:08:40Z</time>
      </trkpt>
      <trkpt lat="48.65684" lon="-2.98523">
        <ele>56</ele>
        <time>2025-02-28T20:08:47Z</time>
      </trkpt>
      <trkpt lat="48.65583" lon="-2.98511">
        <ele>59</ele>
        <time>2025-02-28T20:09:05Z</time>
      </trkpt>
      <trkpt lat="48.65477" lon="-2.98503">
        <ele>63</ele>
        <time>2025-02-28T20:09:23Z</time>
      </trkpt>
      <trkpt lat="48.65405" lon="-2.98494">
        <ele>65</ele>
        <time>2025-02-28T20:09:36Z</time>
      </trkpt>
      <trkpt lat="48.65381" lon="-2.98494">
        <ele>66</ele>
        <time>2025-02-28T20:09:41Z</time>
      </trkpt>
      <trkpt lat="48.6536" lon="-2.98496">
        <ele>67</ele>
        <time>2025-02-28T20:09:44Z</time>
      </trkpt>
      <trkpt lat="48.65238" lon="-2.98531">
        <ele>70</ele>
        <time>2025-02-28T20:10:06Z</time>
      </trkpt>
      <trkpt lat="48.65192" lon="-2.98537">
        <ele>69</ele>
        <time>2025-02-28T20:10:15Z</time>
      </trkpt>
      <trkpt lat="48.65085" lon="-2.98532">
        <ele>67</ele>
        <time>2025-02-28T20:10:34Z</time>
      </trkpt>
      <trkpt lat="48.65057" lon="-2.98534">
        <ele>66</ele>
        <time>2025-02-28T20:10:39Z</time>
      </trkpt>
      <trkpt lat="48.65026" lon="-2.98542">
        <ele>65</ele>
        <time>2025-02-28T20:10:44Z</time>
      </trkpt>
      <trkpt lat="48.64935" lon="-2.98587">
        <ele>65</ele>
        <time>2025-02-28T20:11:01Z</time>
      </trkpt>
      <trkpt lat="48.64861" lon="-2.98628">
        <ele>62</ele>
        <time>2025-02-28T20:11:15Z</time>
      </trkpt>
      <trkpt lat="48.64832" lon="-2.98638">
        <ele>60</ele>
        <time>2025-02-28T20:11:21Z</time>
      </trkpt>
      <trkpt lat="48.64802" lon="-2.98645">
        <ele>61</ele>
        <time>2025-02-28T20:11:26Z</time>
      </trkpt>
      <trkpt lat="48.64753" lon="-2.98649">
        <ele>62</ele>
        <time>2025-02-28T20:11:35Z</time>
      </trkpt>
      <trkpt lat="48.64725" lon="-2.98645">
        <ele>63</ele>
        <time>2025-02-28T20:11:40Z</time>
      </trkpt>
      <trkpt lat="48.6465" lon="-2.98623">
        <ele>68</ele>
        <time>2025-02-28T20:11:53Z</time>
      </trkpt>
      <trkpt lat="48.64632" lon="-2.98623">
        <ele>68</ele>
        <time>2025-02-28T20:11:57Z</time>
      </trkpt>
      <trkpt lat="48.64586" lon="-2.98632">
        <ele>70</ele>
        <time>2025-02-28T20:12:05Z</time>
      </trkpt>
      <trkpt lat="48.64549" lon="-2.98635">
        <ele>71</ele>
        <time>2025-02-28T20:12:11Z</time>
      </trkpt>
      <trkpt lat="48.64521" lon="-2.9864">
        <ele>73</ele>
        <time>2025-02-28T20:12:16Z</time>
      </trkpt>
      <trkpt lat="48.64471" lon="-2.9864">
        <ele>75</ele>
        <time>2025-02-28T20:12:25Z</time>
      </trkpt>
      <trkpt lat="48.6442" lon="-2.98647">
        <ele>77</ele>
        <time>2025-02-28T20:12:34Z</time>
      </trkpt>
      <trkpt lat="48.64368" lon="-2.98656">
        <ele>78</ele>
        <time>2025-02-28T20:12:44Z</time>
      </trkpt>
      <trkpt lat="48.64312" lon="-2.98677">
        <ele>80</ele>
        <time>2025-02-28T20:12:54Z</time>
      </trkpt>
      <trkpt lat="48.64266" lon="-2.98693">
        <ele>81</ele>
        <time>2025-02-28T20:13:02Z</time>
      </trkpt>
      <trkpt lat="48.64234" lon="-2.987">
        <ele>82</ele>
        <time>2025-02-28T20:13:08Z</time>
      </trkpt>
      <trkpt lat="48.64206" lon="-2.98701">
        <ele>83</ele>
        <time>2025-02-28T20:13:13Z</time>
      </trkpt>
      <trkpt lat="48.64163" lon="-2.98698">
        <ele>84</ele>
        <time>2025-02-28T20:13:21Z</time>
      </trkpt>
      <trkpt lat="48.64055" lon="-2.98696">
        <ele>84</ele>
        <time>2025-02-28T20:13:40Z</time>
      </trkpt>
      <trkpt lat="48.64017" lon="-2.98698">
        <ele>85</ele>
        <time>2025-02-28T20:13:47Z</time>
      </trkpt>
      <trkpt lat="48.63954" lon="-2.98705">
        <ele>87</ele>
        <time>2025-02-28T20:13:58Z</time>
      </trkpt>
      <trkpt lat="48.63938" lon="-2.98707">
        <ele>88</ele>
        <time>2025-02-28T20:14:01Z</time>
      </trkpt>
      <trkpt lat="48.6393" lon="-2.9871">
        <ele>88</ele>
        <time>2025-02-28T20:14:02Z</time>
      </trkpt>
      <trkpt lat="48.63914" lon="-2.98731">
        <ele>89</ele>
        <time>2025-02-28T20:14:06Z</time>
      </trkpt>
      <trkpt lat="48.63914" lon="-2.98738">
        <ele>89</ele>
        <time>2025-02-28T20:14:07Z</time>
      </trkpt>
      <trkpt lat="48.63912" lon="-2.98744">
        <ele>89</ele>
        <time>2025-02-28T20:14:08Z</time>
      </trkpt>
      <trkpt lat="48.63909" lon="-2.98749">
        <ele>89</ele>
        <time>2025-02-28T20:14:08Z</time>
      </trkpt>
      <trkpt lat="48.63901" lon="-2.98756">
        <ele>90</ele>
        <time>2025-02-28T20:14:10Z</time>
      </trkpt>
      <trkpt lat="48.63891" lon="-2.98756">
        <ele>90</ele>
        <time>2025-02-28T20:14:12Z</time>
      </trkpt>
      <trkpt lat="48.63886" lon="-2.98752">
        <ele>90</ele>
        <time>2025-02-28T20:14:13Z</time>
      </trkpt>
      <trkpt lat="48.63882" lon="-2.98747">
        <ele>90</ele>
        <time>2025-02-28T20:14:14Z</time>
      </trkpt>
      <trkpt lat="48.63878" lon="-2.98733">
        <ele>90</ele>
        <time>2025-02-28T20:14:16Z</time>
      </trkpt>
      <trkpt lat="48.63868" lon="-2.98721">
        <ele>91</ele>
        <time>2025-02-28T20:14:18Z</time>
      </trkpt>
      <trkpt lat="48.63861" lon="-2.98719">
        <ele>91</ele>
        <time>2025-02-28T20:14:19Z</time>
      </trkpt>
      <trkpt lat="48.6383" lon="-2.98724">
        <ele>92</ele>
        <time>2025-02-28T20:14:25Z</time>
      </trkpt>
      <trkpt lat="48.63799" lon="-2.98726">
        <ele>92</ele>
        <time>2025-02-28T20:14:30Z</time>
      </trkpt>
      <trkpt lat="48.63744" lon="-2.98723">
        <ele>93</ele>
        <time>2025-02-28T20:14:40Z</time>
      </trkpt>
      <trkpt lat="48.63685" lon="-2.98712">
        <ele>93</ele>
        <time>2025-02-28T20:14:51Z</time>
      </trkpt>
      <trkpt lat="48.63679" lon="-2.98711">
        <ele>93</ele>
        <time>2025-02-28T20:14:52Z</time>
      </trkpt>
      <trkpt lat="48.63664" lon="-2.9871">
        <ele>93</ele>
        <time>2025-02-28T20:14:54Z</time>
      </trkpt>
      <trkpt lat="48.63643" lon="-2.98705">
        <ele>93</ele>
        <time>2025-02-28T20:14:58Z</time>
      </trkpt>
      <trkpt lat="48.63621" lon="-2.98705">
        <ele>93</ele>
        <time>2025-02-28T20:15:02Z</time>
      </trkpt>
      <trkpt lat="48.63609" lon="-2.987">
        <ele>93</ele>
        <time>2025-02-28T20:15:04Z</time>
      </trkpt>
      <trkpt lat="48.63543" lon="-2.98691">
        <ele>93</ele>
        <time>2025-02-28T20:15:16Z</time>
      </trkpt>
      <trkpt lat="48.63539" lon="-2.98692">
        <ele>93</ele>
        <time>2025-02-28T20:15:17Z</time>
      </trkpt>
      <trkpt lat="48.6344" lon="-2.98698">
        <ele>93</ele>
        <time>2025-02-28T20:15:34Z</time>
      </trkpt>
      <trkpt lat="48.6343" lon="-2.98698">
        <ele>94</ele>
        <time>2025-02-28T20:15:36Z</time>
      </trkpt>
      <trkpt lat="48.6342" lon="-2.98698">
        <ele>94</ele>
        <time>2025-02-28T20:15:38Z</time>
      </trkpt>
      <trkpt lat="48.63414" lon="-2.98698">
        <ele>94</ele>
        <time>2025-02-28T20:15:39Z</time>
      </trkpt>
      <trkpt lat="48.63412" lon="-2.98698">
        <ele>94</ele>
        <time>2025-02-28T20:15:39Z</time>
      </trkpt>
      <trkpt lat="48.6338" lon="-2.98696">
        <ele>94</ele>
        <time>2025-02-28T20:15:45Z</time>
      </trkpt>
      <trkpt lat="48.63372" lon="-2.98694">
        <ele>94</ele>
        <time>2025-02-28T20:15:47Z</time>
      </trkpt>
      <trkpt lat="48.63354" lon="-2.98691">
        <ele>94</ele>
        <time>2025-02-28T20:15:50Z</time>
      </trkpt>
      <trkpt lat="48.63326" lon="-2.98681">
        <ele>94</ele>
        <time>2025-02-28T20:15:55Z</time>
      </trkpt>
      <trkpt lat="48.63299" lon="-2.98667">
        <ele>94</ele>
        <time>2025-02-28T20:16:00Z</time>
      </trkpt>
      <trkpt lat="48.63279" lon="-2.9865">
        <ele>95</ele>
        <time>2025-02-28T20:16:04Z</time>
      </trkpt>
      <trkpt lat="48.63272" lon="-2.98648">
        <ele>95</ele>
        <time>2025-02-28T20:16:05Z</time>
      </trkpt>
      <trkpt lat="48.63252" lon="-2.98651">
        <ele>95</ele>
        <time>2025-02-28T20:16:09Z</time>
      </trkpt>
      <trkpt lat="48.63223" lon="-2.98638">
        <ele>94</ele>
        <time>2025-02-28T20:16:14Z</time>
      </trkpt>
      <trkpt lat="48.63214" lon="-2.9863">
        <ele>94</ele>
        <time>2025-02-28T20:16:16Z</time>
      </trkpt>
      <trkpt lat="48.63195" lon="-2.98614">
        <ele>94</ele>
        <time>2025-02-28T20:16:20Z</time>
      </trkpt>
      <trkpt lat="48.63184" lon="-2.98603">
        <ele>93</ele>
        <time>2025-02-28T20:16:22Z</time>
      </trkpt>
      <trkpt lat="48.63183" lon="-2.98603">
        <ele>93</ele>
        <time>2025-02-28T20:16:23Z</time>
      </trkpt>
      <trkpt lat="48.63168" lon="-2.98638">
        <ele>94</ele>
        <time>2025-02-28T20:16:27Z</time>
      </trkpt>
      <trkpt lat="48.63167" lon="-2.98638">
        <ele>94</ele>
        <time>2025-02-28T20:16:28Z</time>
      </trkpt>
      <trkpt lat="48.63146" lon="-2.98629">
        <ele>94</ele>
        <time>2025-02-28T20:16:31Z</time>
      </trkpt>
      <trkpt lat="48.63136" lon="-2.98626">
        <ele>94</ele>
        <time>2025-02-28T20:16:33Z</time>
      </trkpt>
      <trkpt lat="48.6312" lon="-2.9862">
        <ele>94</ele>
        <time>2025-02-28T20:16:36Z</time>
      </trkpt>
      <trkpt lat="48.63119" lon="-2.9862">
        <ele>94</ele>
        <time>2025-02-28T20:16:36Z</time>
      </trkpt>
      <trkpt lat="48.63105" lon="-2.98612">
        <ele>95</ele>
        <time>2025-02-28T20:16:39Z</time>
      </trkpt>
      <trkpt lat="48.63077" lon="-2.98605">
        <ele>95</ele>
        <time>2025-02-28T20:16:44Z</time>
      </trkpt>
      <trkpt lat="48.63068" lon="-2.98601">
        <ele>95</ele>
        <time>2025-02-28T20:16:46Z</time>
      </trkpt>
      <trkpt lat="48.63053" lon="-2.98587">
        <ele>95</ele>
        <time>2025-02-28T20:16:49Z</time>
      </trkpt>
      <trkpt lat="48.63029" lon="-2.98558">
        <ele>94</ele>
        <time>2025-02-28T20:16:54Z</time>
      </trkpt>
      <trkpt lat="48.6302" lon="-2.98552">
        <ele>94</ele>
        <time>2025-02-28T20:16:56Z</time>
      </trkpt>
      <trkpt lat="48.63019" lon="-2.98559">
        <ele>94</ele>
        <time>2025-02-28T20:16:57Z</time>
      </trkpt>
      <trkpt lat="48.63012" lon="-2.98563">
        <ele>94</ele>
        <time>2025-02-28T20:16:58Z</time>
      </trkpt>
      <trkpt lat="48.63007" lon="-2.98558">
        <ele>94</ele>
        <time>2025-02-28T20:16:59Z</time>
      </trkpt>
      <trkpt lat="48.63006" lon="-2.98552">
        <ele>94</ele>
        <time>2025-02-28T20:17:00Z</time>
      </trkpt>
      <trkpt lat="48.63008" lon="-2.98546">
        <ele>94</ele>
        <time>2025-02-28T20:17:01Z</time>
      </trkpt>
      <trkpt lat="48.63011" lon="-2.98543">
        <ele>94</ele>
        <time>2025-02-28T20:17:02Z</time>
      </trkpt>
      <trkpt lat="48.62988" lon="-2.98508">
        <ele>94</ele>
        <time>2025-02-28T20:17:07Z</time>
      </trkpt>
      <trkpt lat="48.62969" lon="-2.98489">
        <ele>93</ele>
        <time>2025-02-28T20:17:11Z</time>
      </trkpt>
      <trkpt lat="48.62953" lon="-2.98473">
        <ele>93</ele>
        <time>2025-02-28T20:17:15Z</time>
      </trkpt>
      <trkpt lat="48.62929" lon="-2.98442">
        <ele>91</ele>
        <time>2025-02-28T20:17:20Z</time>
      </trkpt>
      <trkpt lat="48.62908" lon="-2.98421">
        <ele>90</ele>
        <time>2025-02-28T20:17:25Z</time>
      </trkpt>
      <trkpt lat="48.62899" lon="-2.98413">
        <ele>89</ele>
        <time>2025-02-28T20:17:27Z</time>
      </trkpt>
      <trkpt lat="48.62884" lon="-2.98406">
        <ele>89</ele>
        <time>2025-02-28T20:17:30Z</time>
      </trkpt>
      <trkpt lat="48.6288" lon="-2.98405">
        <ele>89</ele>
        <time>2025-02-28T20:17:30Z</time>
      </trkpt>
      <trkpt lat="48.62872" lon="-2.98404">
        <ele>89</ele>
        <time>2025-02-28T20:17:32Z</time>
      </trkpt>
      <trkpt lat="48.62847" lon="-2.98414">
        <ele>88</ele>
        <time>2025-02-28T20:17:36Z</time>
      </trkpt>
      <trkpt lat="48.62834" lon="-2.98417">
        <ele>87</ele>
        <time>2025-02-28T20:17:39Z</time>
      </trkpt>
      <trkpt lat="48.62827" lon="-2.98417">
        <ele>87</ele>
        <time>2025-02-28T20:17:40Z</time>
      </trkpt>
      <trkpt lat="48.62816" lon="-2.98415">
        <ele>87</ele>
        <time>2025-02-28T20:17:42Z</time>
      </trkpt>
      <trkpt lat="48.62806" lon="-2.9841">
        <ele>88</ele>
        <time>2025-02-28T20:17:44Z</time>
      </trkpt>
      <trkpt lat="48.62796" lon="-2.98403">
        <ele>88</ele>
        <time>2025-02-28T20:17:46Z</time>
      </trkpt>
      <trkpt lat="48.62788" lon="-2.98398">
        <ele>88</ele>
        <time>2025-02-28T20:17:47Z</time>
      </trkpt>
      <trkpt lat="48.62786" lon="-2.98396">
        <ele>88</ele>
        <time>2025-02-28T20:17:48Z</time>
      </trkpt>
      <trkpt lat="48.62751" lon="-2.98368">
        <ele>90</ele>
        <time>2025-02-28T20:17:55Z</time>
      </trkpt>
      <trkpt lat="48.62736" lon="-2.98359">
        <ele>90</ele>
        <time>2025-02-28T20:17:58Z</time>
      </trkpt>
      <trkpt lat="48.62729" lon="-2.98355">
        <ele>90</ele>
        <time>2025-02-28T20:17:59Z</time>
      </trkpt>
      <trkpt lat="48.62719" lon="-2.98351">
        <ele>90</ele>
        <time>2025-02-28T20:18:01Z</time>
      </trkpt>
      <trkpt lat="48.62647" lon="-2.98329">
        <ele>91</ele>
        <time>2025-02-28T20:18:14Z</time>
      </trkpt>
      <trkpt lat="48.62626" lon="-2.98322">
        <ele>91</ele>
        <time>2025-02-28T20:18:18Z</time>
      </trkpt>
      <trkpt lat="48.62601" lon="-2.98306">
        <ele>91</ele>
        <time>2025-02-28T20:18:22Z</time>
      </trkpt>
      <trkpt lat="48.6259" lon="-2.98295">
        <ele>91</ele>
        <time>2025-02-28T20:18:25Z</time>
      </trkpt>
      <trkpt lat="48.62587" lon="-2.98289">
        <ele>92</ele>
        <time>2025-02-28T20:18:26Z</time>
      </trkpt>
      <trkpt lat="48.62582" lon="-2.98286">
        <ele>92</ele>
        <time>2025-02-28T20:18:27Z</time>
      </trkpt>
      <trkpt lat="48.62569" lon="-2.98272">
        <ele>92</ele>
        <time>2025-02-28T20:18:29Z</time>
      </trkpt>
      <trkpt lat="48.62567" lon="-2.98266">
        <ele>92</ele>
        <time>2025-02-28T20:18:30Z</time>
      </trkpt>
      <trkpt lat="48.62549" lon="-2.98246">
        <ele>92</ele>
        <time>2025-02-28T20:18:34Z</time>
      </trkpt>
      <trkpt lat="48.62531" lon="-2.98227">
        <ele>92</ele>
        <time>2025-02-28T20:18:38Z</time>
      </trkpt>
      <trkpt lat="48.62504" lon="-2.98204">
        <ele>93</ele>
        <time>2025-02-28T20:18:44Z</time>
      </trkpt>
      <trkpt lat="48.62473" lon="-2.9818">
        <ele>93</ele>
        <time>2025-02-28T20:18:50Z</time>
      </trkpt>
      <trkpt lat="48.62442" lon="-2.9815">
        <ele>93</ele>
        <time>2025-02-28T20:18:56Z</time>
      </trkpt>
      <trkpt lat="48.62416" lon="-2.98121">
        <ele>94</ele>
        <time>2025-02-28T20:19:02Z</time>
      </trkpt>
      <trkpt lat="48.62375" lon="-2.98062">
        <ele>94</ele>
        <time>2025-02-28T20:19:12Z</time>
      </trkpt>
      <trkpt lat="48.62366" lon="-2.98049">
        <ele>94</ele>
        <time>2025-02-28T20:19:14Z</time>
      </trkpt>
      <trkpt lat="48.62338" lon="-2.98009">
        <ele>96</ele>
        <time>2025-02-28T20:19:21Z</time>
      </trkpt>
      <trkpt lat="48.62308" lon="-2.97961">
        <ele>96</ele>
        <time>2025-02-28T20:19:29Z</time>
      </trkpt>
      <trkpt lat="48.6227" lon="-2.97876">
        <ele>97</ele>
        <time>2025-02-28T20:19:41Z</time>
      </trkpt>
      <trkpt lat="48.62216" lon="-2.97739">
        <ele>98</ele>
        <time>2025-02-28T20:20:00Z</time>
      </trkpt>
      <trkpt lat="48.62195" lon="-2.97696">
        <ele>97</ele>
        <time>2025-02-28T20:20:06Z</time>
      </trkpt>
      <trkpt lat="48.62171" lon="-2.97656">
        <ele>96</ele>
        <time>2025-02-28T20:20:13Z</time>
      </trkpt>
      <trkpt lat="48.62103" lon="-2.97559">
        <ele>97</ele>
        <time>2025-02-28T20:20:29Z</time>
      </trkpt>
      <trkpt lat="48.62087" lon="-2.9753">
        <ele>97</ele>
        <time>2025-02-28T20:20:34Z</time>
      </trkpt>
      <trkpt lat="48.62073" lon="-2.97493">
        <ele>97</ele>
        <time>2025-02-28T20:20:39Z</time>
      </trkpt>
      <trkpt lat="48.62072" lon="-2.97487">
        <ele>97</ele>
        <time>2025-02-28T20:20:39Z</time>
      </trkpt>
      <trkpt lat="48.62073" lon="-2.97493">
        <ele>97</ele>
        <time>2025-02-28T20:20:40Z</time>
      </trkpt>
      <trkpt lat="48.62043" lon="-2.97515">
        <ele>96</ele>
        <time>2025-02-28T20:20:46Z</time>
      </trkpt>
      <trkpt lat="48.62002" lon="-2.97548">
        <ele>94</ele>
        <time>2025-02-28T20:20:54Z</time>
      </trkpt>
      <trkpt lat="48.61986" lon="-2.97568">
        <ele>94</ele>
        <time>2025-02-28T20:20:58Z</time>
      </trkpt>
      <trkpt lat="48.61971" lon="-2.97591">
        <ele>94</ele>
        <time>2025-02-28T20:21:02Z</time>
      </trkpt>
      <trkpt lat="48.61937" lon="-2.97685">
        <ele>93</ele>
        <time>2025-02-28T20:21:14Z</time>
      </trkpt>
      <trkpt lat="48.61932" lon="-2.97693">
        <ele>93</ele>
        <time>2025-02-28T20:21:16Z</time>
      </trkpt>
      <trkpt lat="48.61917" lon="-2.97739">
        <ele>92</ele>
        <time>2025-02-28T20:21:22Z</time>
      </trkpt>
      <trkpt lat="48.61902" lon="-2.97779">
        <ele>92</ele>
        <time>2025-02-28T20:21:27Z</time>
      </trkpt>
      <trkpt lat="48.61885" lon="-2.97806">
        <ele>91</ele>
        <time>2025-02-28T20:21:31Z</time>
      </trkpt>
      <trkpt lat="48.6186" lon="-2.97837">
        <ele>90</ele>
        <time>2025-02-28T20:21:37Z</time>
      </trkpt>
      <trkpt lat="48.61837" lon="-2.97876">
        <ele>88</ele>
        <time>2025-02-28T20:21:43Z</time>
      </trkpt>
      <trkpt lat="48.61826" lon="-2.9791">
        <ele>87</ele>
        <time>2025-02-28T20:21:48Z</time>
      </trkpt>
      <trkpt lat="48.61799" lon="-2.98043">
        <ele>85</ele>
        <time>2025-02-28T20:22:04Z</time>
      </trkpt>
      <trkpt lat="48.61794" lon="-2.98064">
        <ele>85</ele>
        <time>2025-02-28T20:22:07Z</time>
      </trkpt>
      <trkpt lat="48.61757" lon="-2.98186">
        <ele>82</ele>
        <time>2025-02-28T20:22:23Z</time>
      </trkpt>
      <trkpt lat="48.61739" lon="-2.98239">
        <ele>80</ele>
        <time>2025-02-28T20:22:30Z</time>
      </trkpt>
      <trkpt lat="48.61732" lon="-2.9827">
        <ele>80</ele>
        <time>2025-02-28T20:22:33Z</time>
      </trkpt>
      <trkpt lat="48.61729" lon="-2.98296">
        <ele>79</ele>
        <time>2025-02-28T20:22:37Z</time>
      </trkpt>
      <trkpt lat="48.61728" lon="-2.98355">
        <ele>79</ele>
        <time>2025-02-28T20:22:44Z</time>
      </trkpt>
      <trkpt lat="48.61725" lon="-2.98375">
        <ele>78</ele>
        <time>2025-02-28T20:22:46Z</time>
      </trkpt>
      <trkpt lat="48.61701" lon="-2.98462">
        <ele>77</ele>
        <time>2025-02-28T20:22:57Z</time>
      </trkpt>
      <trkpt lat="48.61701" lon="-2.98462">
        <ele>77</ele>
        <time>2025-02-28T20:22:57Z</time>
      </trkpt>
      <trkpt lat="48.61701" lon="-2.98462">
        <ele>77</ele>
        <time>2025-02-28T20:22:57Z</time>
      </trkpt>
      <trkpt lat="48.61686" lon="-2.98447">
        <ele>77</ele>
        <time>2025-02-28T20:23:00Z</time>
      </trkpt>
      <trkpt lat="48.61633" lon="-2.98413">
        <ele>76</ele>
        <time>2025-02-28T20:23:10Z</time>
      </trkpt>
      <trkpt lat="48.61581" lon="-2.98395">
        <ele>75</ele>
        <time>2025-02-28T20:23:20Z</time>
      </trkpt>
      <trkpt lat="48.61473" lon="-2.98346">
        <ele>70</ele>
        <time>2025-02-28T20:23:40Z</time>
      </trkpt>
      <trkpt lat="48.61438" lon="-2.98333">
        <ele>67</ele>
        <time>2025-02-28T20:23:46Z</time>
      </trkpt>
      <trkpt lat="48.61294" lon="-2.98293">
        <ele>68</ele>
        <time>2025-02-28T20:24:12Z</time>
      </trkpt>
      <trkpt lat="48.61164" lon="-2.98288">
        <ele>71</ele>
        <time>2025-02-28T20:24:36Z</time>
      </trkpt>
      <trkpt lat="48.61136" lon="-2.98289">
        <ele>72</ele>
        <time>2025-02-28T20:24:41Z</time>
      </trkpt>
      <trkpt lat="48.61065" lon="-2.98304">
        <ele>74</ele>
        <time>2025-02-28T20:24:53Z</time>
      </trkpt>
      <trkpt lat="48.60972" lon="-2.98321">
        <ele>77</ele>
        <time>2025-02-28T20:25:10Z</time>
      </trkpt>
      <trkpt lat="48.60952" lon="-2.98319">
        <ele>77</ele>
        <time>2025-02-28T20:25:14Z</time>
      </trkpt>
      <trkpt lat="48.60883" lon="-2.98292">
        <ele>79</ele>
        <time>2025-02-28T20:25:26Z</time>
      </trkpt>
      <trkpt lat="48.60852" lon="-2.98284">
        <ele>80</ele>
        <time>2025-02-28T20:25:32Z</time>
      </trkpt>
      <trkpt lat="48.60817" lon="-2.98278">
        <ele>81</ele>
        <time>2025-02-28T20:25:38Z</time>
      </trkpt>
      <trkpt lat="48.60744" lon="-2.98282">
        <ele>82</ele>
        <time>2025-02-28T20:25:51Z</time>
      </trkpt>
      <trkpt lat="48.60715" lon="-2.98277">
        <ele>83</ele>
        <time>2025-02-28T20:25:56Z</time>
      </trkpt>
      <trkpt lat="48.60693" lon="-2.98272">
        <ele>84</ele>
        <time>2025-02-28T20:26:00Z</time>
      </trkpt>
      <trkpt lat="48.60673" lon="-2.98264">
        <ele>84</ele>
        <time>2025-02-28T20:26:04Z</time>
      </trkpt>
      <trkpt lat="48.60653" lon="-2.98253">
        <ele>85</ele>
        <time>2025-02-28T20:26:08Z</time>
      </trkpt>
      <trkpt lat="48.60595" lon="-2.98211">
        <ele>87</ele>
        <time>2025-02-28T20:26:19Z</time>
      </trkpt>
      <trkpt lat="48.60505" lon="-2.98168">
        <ele>89</ele>
        <time>2025-02-28T20:26:36Z</time>
      </trkpt>
      <trkpt lat="48.60485" lon="-2.98156">
        <ele>89</ele>
        <time>2025-02-28T20:26:40Z</time>
      </trkpt>
      <trkpt lat="48.6044" lon="-2.98123">
        <ele>88</ele>
        <time>2025-02-28T20:26:49Z</time>
      </trkpt>
      <trkpt lat="48.6043" lon="-2.98118">
        <ele>87</ele>
        <time>2025-02-28T20:26:51Z</time>
      </trkpt>
      <trkpt lat="48.60425" lon="-2.98115">
        <ele>87</ele>
        <time>2025-02-28T20:26:52Z</time>
      </trkpt>
      <trkpt lat="48.60358" lon="-2.98077">
        <ele>87</ele>
        <time>2025-02-28T20:27:04Z</time>
      </trkpt>
      <trkpt lat="48.60274" lon="-2.98037">
        <ele>87</ele>
        <time>2025-02-28T20:27:20Z</time>
      </trkpt>
      <trkpt lat="48.6022" lon="-2.98015">
        <ele>88</ele>
        <time>2025-02-28T20:27:30Z</time>
      </trkpt>
      <trkpt lat="48.60172" lon="-2.97992">
        <ele>88</ele>
        <time>2025-02-28T20:27:39Z</time>
      </trkpt>
      <trkpt lat="48.60094" lon="-2.97949">
        <ele>88</ele>
        <time>2025-02-28T20:27:54Z</time>
      </trkpt>
      <trkpt lat="48.60058" lon="-2.97922">
        <ele>87</ele>
        <time>2025-02-28T20:28:01Z</time>
      </trkpt>
      <trkpt lat="48.6004" lon="-2.97912">
        <ele>88</ele>
        <time>2025-02-28T20:28:04Z</time>
      </trkpt>
      <trkpt lat="48.60031" lon="-2.97908">
        <ele>88</ele>
        <time>2025-02-28T20:28:06Z</time>
      </trkpt>
      <trkpt lat="48.60007" lon="-2.97912">
        <ele>88</ele>
        <time>2025-02-28T20:28:10Z</time>
      </trkpt>
      <trkpt lat="48.59993" lon="-2.97922">
        <ele>88</ele>
        <time>2025-02-28T20:28:13Z</time>
      </trkpt>
      <trkpt lat="48.59983" lon="-2.97931">
        <ele>88</ele>
        <time>2025-02-28T20:28:15Z</time>
      </trkpt>
      <trkpt lat="48.59965" lon="-2.97964">
        <ele>88</ele>
        <time>2025-02-28T20:28:20Z</time>
      </trkpt>
      <trkpt lat="48.5994" lon="-2.9803">
        <ele>87</ele>
        <time>2025-02-28T20:28:29Z</time>
      </trkpt>
      <trkpt lat="48.5991" lon="-2.98085">
        <ele>85</ele>
        <time>2025-02-28T20:28:37Z</time>
      </trkpt>
      <trkpt lat="48.599" lon="-2.98115">
        <ele>85</ele>
        <time>2025-02-28T20:28:41Z</time>
      </trkpt>
      <trkpt lat="48.59893" lon="-2.98146">
        <ele>85</ele>
        <time>2025-02-28T20:28:45Z</time>
      </trkpt>
      <trkpt lat="48.59876" lon="-2.98268">
        <ele>83</ele>
        <time>2025-02-28T20:29:00Z</time>
      </trkpt>
      <trkpt lat="48.59874" lon="-2.98299">
        <ele>82</ele>
        <time>2025-02-28T20:29:04Z</time>
      </trkpt>
      <trkpt lat="48.5987" lon="-2.98414">
        <ele>77</ele>
        <time>2025-02-28T20:29:17Z</time>
      </trkpt>
      <trkpt lat="48.59864" lon="-2.98466">
        <ele>74</ele>
        <time>2025-02-28T20:29:23Z</time>
      </trkpt>
      <trkpt lat="48.59858" lon="-2.98488">
        <ele>73</ele>
        <time>2025-02-28T20:29:26Z</time>
      </trkpt>
      <trkpt lat="48.59826" lon="-2.98571">
        <ele>64</ele>
        <time>2025-02-28T20:29:37Z</time>
      </trkpt>
      <trkpt lat="48.59803" lon="-2.98654">
        <ele>61</ele>
        <time>2025-02-28T20:29:48Z</time>
      </trkpt>
      <trkpt lat="48.59798" lon="-2.9867">
        <ele>60</ele>
        <time>2025-02-28T20:29:50Z</time>
      </trkpt>
      <trkpt lat="48.59786" lon="-2.98698">
        <ele>60</ele>
        <time>2025-02-28T20:29:54Z</time>
      </trkpt>
      <trkpt lat="48.59772" lon="-2.98722">
        <ele>60</ele>
        <time>2025-02-28T20:29:58Z</time>
      </trkpt>
      <trkpt lat="48.59761" lon="-2.98739">
        <ele>60</ele>
        <time>2025-02-28T20:30:01Z</time>
      </trkpt>
      <trkpt lat="48.59745" lon="-2.98757">
        <ele>60</ele>
        <time>2025-02-28T20:30:04Z</time>
      </trkpt>
      <trkpt lat="48.59735" lon="-2.98767">
        <ele>61</ele>
        <time>2025-02-28T20:30:06Z</time>
      </trkpt>
      <trkpt lat="48.59728" lon="-2.98772">
        <ele>61</ele>
        <time>2025-02-28T20:30:08Z</time>
      </trkpt>
      <trkpt lat="48.59701" lon="-2.9878">
        <ele>61</ele>
        <time>2025-02-28T20:30:12Z</time>
      </trkpt>
      <trkpt lat="48.59686" lon="-2.98781">
        <ele>62</ele>
        <time>2025-02-28T20:30:15Z</time>
      </trkpt>
      <trkpt lat="48.59602" lon="-2.98771">
        <ele>66</ele>
        <time>2025-02-28T20:30:30Z</time>
      </trkpt>
      <trkpt lat="48.59519" lon="-2.98752">
        <ele>74</ele>
        <time>2025-02-28T20:30:45Z</time>
      </trkpt>
      <trkpt lat="48.59405" lon="-2.98713">
        <ele>80</ele>
        <time>2025-02-28T20:31:06Z</time>
      </trkpt>
      <trkpt lat="48.59376" lon="-2.98701">
        <ele>80</ele>
        <time>2025-02-28T20:31:11Z</time>
      </trkpt>
      <trkpt lat="48.59355" lon="-2.98688">
        <ele>81</ele>
        <time>2025-02-28T20:31:15Z</time>
      </trkpt>
      <trkpt lat="48.59276" lon="-2.98613">
        <ele>82</ele>
        <time>2025-02-28T20:31:32Z</time>
      </trkpt>
      <trkpt lat="48.5926" lon="-2.98604">
        <ele>83</ele>
        <time>2025-02-28T20:31:35Z</time>
      </trkpt>
      <trkpt lat="48.59209" lon="-2.98595">
        <ele>86</ele>
        <time>2025-02-28T20:31:44Z</time>
      </trkpt>
      <trkpt lat="48.59132" lon="-2.98548">
        <ele>88</ele>
        <time>2025-02-28T20:31:59Z</time>
      </trkpt>
      <trkpt lat="48.5911" lon="-2.9853">
        <ele>89</ele>
        <time>2025-02-28T20:32:03Z</time>
      </trkpt>
      <trkpt lat="48.59089" lon="-2.98507">
        <ele>89</ele>
        <time>2025-02-28T20:32:08Z</time>
      </trkpt>
      <trkpt lat="48.5905" lon="-2.98454">
        <ele>90</ele>
        <time>2025-02-28T20:32:17Z</time>
      </trkpt>
      <trkpt lat="48.5901" lon="-2.98407">
        <ele>90</ele>
        <time>2025-02-28T20:32:26Z</time>
      </trkpt>
      <trkpt lat="48.58981" lon="-2.98378">
        <ele>90</ele>
        <time>2025-02-28T20:32:32Z</time>
      </trkpt>
      <trkpt lat="48.58935" lon="-2.98349">
        <ele>90</ele>
        <time>2025-02-28T20:32:41Z</time>
      </trkpt>
      <trkpt lat="48.58919" lon="-2.98341">
        <ele>90</ele>
        <time>2025-02-28T20:32:44Z</time>
      </trkpt>
      <trkpt lat="48.58857" lon="-2.98327">
        <ele>91</ele>
        <time>2025-02-28T20:32:55Z</time>
      </trkpt>
      <trkpt lat="48.5884" lon="-2.98318">
        <ele>91</ele>
        <time>2025-02-28T20:32:59Z</time>
      </trkpt>
      <trkpt lat="48.58807" lon="-2.98292">
        <ele>92</ele>
        <time>2025-02-28T20:33:05Z</time>
      </trkpt>
      <trkpt lat="48.58798" lon="-2.98285">
        <ele>92</ele>
        <time>2025-02-28T20:33:07Z</time>
      </trkpt>
      <trkpt lat="48.58756" lon="-2.98255">
        <ele>92</ele>
        <time>2025-02-28T20:33:15Z</time>
      </trkpt>
      <trkpt lat="48.58734" lon="-2.98244">
        <ele>93</ele>
        <time>2025-02-28T20:33:19Z</time>
      </trkpt>
      <trkpt lat="48.58709" lon="-2.98238">
        <ele>94</ele>
        <time>2025-02-28T20:33:24Z</time>
      </trkpt>
      <trkpt lat="48.5865" lon="-2.98237">
        <ele>96</ele>
        <time>2025-02-28T20:33:34Z</time>
      </trkpt>
      <trkpt lat="48.58597" lon="-2.98233">
        <ele>96</ele>
        <time>2025-02-28T20:33:44Z</time>
      </trkpt>
      <trkpt lat="48.58547" lon="-2.98225">
        <ele>97</ele>
        <time>2025-02-28T20:33:53Z</time>
      </trkpt>
      <trkpt lat="48.58462" lon="-2.98207">
        <ele>98</ele>
        <time>2025-02-28T20:34:08Z</time>
      </trkpt>
      <trkpt lat="48.58443" lon="-2.98202">
        <ele>99</ele>
        <time>2025-02-28T20:34:12Z</time>
      </trkpt>
      <trkpt lat="48.58424" lon="-2.98194">
        <ele>99</ele>
        <time>2025-02-28T20:34:15Z</time>
      </trkpt>
      <trkpt lat="48.58361" lon="-2.98161">
        <ele>99</ele>
        <time>2025-02-28T20:34:27Z</time>
      </trkpt>
      <trkpt lat="48.58345" lon="-2.98155">
        <ele>99</ele>
        <time>2025-02-28T20:34:30Z</time>
      </trkpt>
      <trkpt lat="48.58279" lon="-2.98142">
        <ele>100</ele>
        <time>2025-02-28T20:34:42Z</time>
      </trkpt>
      <trkpt lat="48.58269" lon="-2.98142">
        <ele>100</ele>
        <time>2025-02-28T20:34:43Z</time>
      </trkpt>
      <trkpt lat="48.58253" lon="-2.98147">
        <ele>101</ele>
        <time>2025-02-28T20:34:46Z</time>
      </trkpt>
      <trkpt lat="48.58241" lon="-2.98148">
        <ele>101</ele>
        <time>2025-02-28T20:34:49Z</time>
      </trkpt>
      <trkpt lat="48.58221" lon="-2.98149">
        <ele>101</ele>
        <time>2025-02-28T20:34:52Z</time>
      </trkpt>
      <trkpt lat="48.58194" lon="-2.98143">
        <ele>100</ele>
        <time>2025-02-28T20:34:57Z</time>
      </trkpt>
      <trkpt lat="48.58148" lon="-2.98124">
        <ele>99</ele>
        <time>2025-02-28T20:35:05Z</time>
      </trkpt>
      <trkpt lat="48.58047" lon="-2.98069">
        <ele>99</ele>
        <time>2025-02-28T20:35:25Z</time>
      </trkpt>
      <trkpt lat="48.57977" lon="-2.98019">
        <ele>97</ele>
        <time>2025-02-28T20:35:38Z</time>
      </trkpt>
      <trkpt lat="48.5795" lon="-2.97994">
        <ele>97</ele>
        <time>2025-02-28T20:35:44Z</time>
      </trkpt>
      <trkpt lat="48.57895" lon="-2.9793">
        <ele>98</ele>
        <time>2025-02-28T20:35:56Z</time>
      </trkpt>
      <trkpt lat="48.57874" lon="-2.9791">
        <ele>99</ele>
        <time>2025-02-28T20:36:01Z</time>
      </trkpt>
      <trkpt lat="48.57854" lon="-2.97902">
        <ele>99</ele>
        <time>2025-02-28T20:36:04Z</time>
      </trkpt>
      <trkpt lat="48.57803" lon="-2.97897">
        <ele>101</ele>
        <time>2025-02-28T20:36:13Z</time>
      </trkpt>
      <trkpt lat="48.57784" lon="-2.97893">
        <ele>101</ele>
        <time>2025-02-28T20:36:17Z</time>
      </trkpt>
      <trkpt lat="48.57758" lon="-2.9788">
        <ele>101</ele>
        <time>2025-02-28T20:36:22Z</time>
      </trkpt>
      <trkpt lat="48.57669" lon="-2.97821">
        <ele>103</ele>
        <time>2025-02-28T20:36:39Z</time>
      </trkpt>
      <trkpt lat="48.5764" lon="-2.97801">
        <ele>102</ele>
        <time>2025-02-28T20:36:45Z</time>
      </trkpt>
      <trkpt lat="48.57564" lon="-2.97742">
        <ele>102</ele>
        <time>2025-02-28T20:37:00Z</time>
      </trkpt>
      <trkpt lat="48.57538" lon="-2.97729">
        <ele>102</ele>
        <time>2025-02-28T20:37:05Z</time>
      </trkpt>
      <trkpt lat="48.57524" lon="-2.97724">
        <ele>101</ele>
        <time>2025-02-28T20:37:07Z</time>
      </trkpt>
      <trkpt lat="48.57496" lon="-2.97721">
        <ele>101</ele>
        <time>2025-02-28T20:37:12Z</time>
      </trkpt>
      <trkpt lat="48.57467" lon="-2.97713">
        <ele>101</ele>
        <time>2025-02-28T20:37:18Z</time>
      </trkpt>
      <trkpt lat="48.57433" lon="-2.97694">
        <ele>101</ele>
        <time>2025-02-28T20:37:24Z</time>
      </trkpt>
      <trkpt lat="48.57423" lon="-2.97691">
        <ele>102</ele>
        <time>2025-02-28T20:37:26Z</time>
      </trkpt>
      <trkpt lat="48.57416" lon="-2.9769">
        <ele>102</ele>
        <time>2025-02-28T20:37:27Z</time>
      </trkpt>
      <trkpt lat="48.57405" lon="-2.97693">
        <ele>102</ele>
        <time>2025-02-28T20:37:29Z</time>
      </trkpt>
      <trkpt lat="48.57396" lon="-2.97701">
        <ele>101</ele>
        <time>2025-02-28T20:37:31Z</time>
      </trkpt>
      <trkpt lat="48.57391" lon="-2.97709">
        <ele>101</ele>
        <time>2025-02-28T20:37:32Z</time>
      </trkpt>
      <trkpt lat="48.57374" lon="-2.97742">
        <ele>101</ele>
        <time>2025-02-28T20:37:37Z</time>
      </trkpt>
      <trkpt lat="48.57364" lon="-2.97753">
        <ele>102</ele>
        <time>2025-02-28T20:37:39Z</time>
      </trkpt>
      <trkpt lat="48.57331" lon="-2.97773">
        <ele>102</ele>
        <time>2025-02-28T20:37:46Z</time>
      </trkpt>
      <trkpt lat="48.57314" lon="-2.97791">
        <ele>102</ele>
        <time>2025-02-28T20:37:49Z</time>
      </trkpt>
      <trkpt lat="48.57291" lon="-2.97828">
        <ele>103</ele>
        <time>2025-02-28T20:37:55Z</time>
      </trkpt>
      <trkpt lat="48.57259" lon="-2.9787">
        <ele>104</ele>
        <time>2025-02-28T20:38:03Z</time>
      </trkpt>
      <trkpt lat="48.5725" lon="-2.97885">
        <ele>104</ele>
        <time>2025-02-28T20:38:05Z</time>
      </trkpt>
      <trkpt lat="48.57211" lon="-2.97961">
        <ele>104</ele>
        <time>2025-02-28T20:38:17Z</time>
      </trkpt>
      <trkpt lat="48.57195" lon="-2.97978">
        <ele>104</ele>
        <time>2025-02-28T20:38:20Z</time>
      </trkpt>
      <trkpt lat="48.57177" lon="-2.97984">
        <ele>104</ele>
        <time>2025-02-28T20:38:23Z</time>
      </trkpt>
      <trkpt lat="48.57161" lon="-2.97982">
        <ele>103</ele>
        <time>2025-02-28T20:38:26Z</time>
      </trkpt>
      <trkpt lat="48.57126" lon="-2.97973">
        <ele>102</ele>
        <time>2025-02-28T20:38:33Z</time>
      </trkpt>
      <trkpt lat="48.57074" lon="-2.9799">
        <ele>101</ele>
        <time>2025-02-28T20:38:42Z</time>
      </trkpt>
      <trkpt lat="48.57038" lon="-2.98005">
        <ele>102</ele>
        <time>2025-02-28T20:38:49Z</time>
      </trkpt>
      <trkpt lat="48.57008" lon="-2.98016">
        <ele>103</ele>
        <time>2025-02-28T20:38:54Z</time>
      </trkpt>
      <trkpt lat="48.56971" lon="-2.98023">
        <ele>104</ele>
        <time>2025-02-28T20:39:01Z</time>
      </trkpt>
      <trkpt lat="48.56919" lon="-2.98029">
        <ele>105</ele>
        <time>2025-02-28T20:39:10Z</time>
      </trkpt>
      <trkpt lat="48.56846" lon="-2.98023">
        <ele>106</ele>
        <time>2025-02-28T20:39:23Z</time>
      </trkpt>
      <trkpt lat="48.56793" lon="-2.98031">
        <ele>107</ele>
        <time>2025-02-28T20:39:33Z</time>
      </trkpt>
      <trkpt lat="48.56766" lon="-2.98033">
        <ele>107</ele>
        <time>2025-02-28T20:39:37Z</time>
      </trkpt>
      <trkpt lat="48.56742" lon="-2.98026">
        <ele>108</ele>
        <time>2025-02-28T20:39:42Z</time>
      </trkpt>
      <trkpt lat="48.56713" lon="-2.98014">
        <ele>110</ele>
        <time>2025-02-28T20:39:47Z</time>
      </trkpt>
      <trkpt lat="48.56667" lon="-2.9799">
        <ele>112</ele>
        <time>2025-02-28T20:39:56Z</time>
      </trkpt>
      <trkpt lat="48.56635" lon="-2.97963">
        <ele>113</ele>
        <time>2025-02-28T20:40:02Z</time>
      </trkpt>
      <trkpt lat="48.56577" lon="-2.97905">
        <ele>115</ele>
        <time>2025-02-28T20:40:15Z</time>
      </trkpt>
      <trkpt lat="48.56544" lon="-2.97885">
        <ele>116</ele>
        <time>2025-02-28T20:40:21Z</time>
      </trkpt>
      <trkpt lat="48.56527" lon="-2.97879">
        <ele>117</ele>
        <time>2025-02-28T20:40:24Z</time>
      </trkpt>
      <trkpt lat="48.56509" lon="-2.97878">
        <ele>117</ele>
        <time>2025-02-28T20:40:27Z</time>
      </trkpt>
      <trkpt lat="48.56479" lon="-2.97889">
        <ele>117</ele>
        <time>2025-02-28T20:40:33Z</time>
      </trkpt>
      <trkpt lat="48.56437" lon="-2.97913">
        <ele>117</ele>
        <time>2025-02-28T20:40:41Z</time>
      </trkpt>
      <trkpt lat="48.56421" lon="-2.97919">
        <ele>117</ele>
        <time>2025-02-28T20:40:44Z</time>
      </trkpt>
      <trkpt lat="48.56404" lon="-2.9792">
        <ele>117</ele>
        <time>2025-02-28T20:40:47Z</time>
      </trkpt>
      <trkpt lat="48.56388" lon="-2.97912">
        <ele>118</ele>
        <time>2025-02-28T20:40:50Z</time>
      </trkpt>
      <trkpt lat="48.56337" lon="-2.97876">
        <ele>119</ele>
        <time>2025-02-28T20:41:00Z</time>
      </trkpt>
      <trkpt lat="48.56308" lon="-2.97864">
        <ele>120</ele>
        <time>2025-02-28T20:41:05Z</time>
      </trkpt>
      <trkpt lat="48.56259" lon="-2.9785">
        <ele>120</ele>
        <time>2025-02-28T20:41:14Z</time>
      </trkpt>
      <trkpt lat="48.56233" lon="-2.97844">
        <ele>121</ele>
        <time>2025-02-28T20:41:19Z</time>
      </trkpt>
      <trkpt lat="48.56209" lon="-2.97845">
        <ele>121</ele>
        <time>2025-02-28T20:41:23Z</time>
      </trkpt>
      <trkpt lat="48.5619" lon="-2.97849">
        <ele>121</ele>
        <time>2025-02-28T20:41:26Z</time>
      </trkpt>
      <trkpt lat="48.56166" lon="-2.97861">
        <ele>122</ele>
        <time>2025-02-28T20:41:31Z</time>
      </trkpt>
      <trkpt lat="48.56149" lon="-2.97872">
        <ele>122</ele>
        <time>2025-02-28T20:41:34Z</time>
      </trkpt>
      <trkpt lat="48.56107" lon="-2.97918">
        <ele>123</ele>
        <time>2025-02-28T20:41:43Z</time>
      </trkpt>
      <trkpt lat="48.56039" lon="-2.9797">
        <ele>122</ele>
        <time>2025-02-28T20:41:57Z</time>
      </trkpt>
      <trkpt lat="48.56009" lon="-2.97995">
        <ele>121</ele>
        <time>2025-02-28T20:42:03Z</time>
      </trkpt>
      <trkpt lat="48.55962" lon="-2.98025">
        <ele>121</ele>
        <time>2025-02-28T20:42:12Z</time>
      </trkpt>
      <trkpt lat="48.5583" lon="-2.98072">
        <ele>122</ele>
        <time>2025-02-28T20:42:36Z</time>
      </trkpt>
      <trkpt lat="48.55799" lon="-2.98075">
        <ele>121</ele>
        <time>2025-02-28T20:42:42Z</time>
      </trkpt>
      <trkpt lat="48.5578" lon="-2.98072">
        <ele>120</ele>
        <time>2025-02-28T20:42:45Z</time>
      </trkpt>
      <trkpt lat="48.55767" lon="-2.98069">
        <ele>120</ele>
        <time>2025-02-28T20:42:47Z</time>
      </trkpt>
      <trkpt lat="48.55641" lon="-2.98016">
        <ele>118</ele>
        <time>2025-02-28T20:43:11Z</time>
      </trkpt>
      <trkpt lat="48.55582" lon="-2.97989">
        <ele>117</ele>
        <time>2025-02-28T20:43:22Z</time>
      </trkpt>
      <trkpt lat="48.55567" lon="-2.97986">
        <ele>116</ele>
        <time>2025-02-28T20:43:24Z</time>
      </trkpt>
      <trkpt lat="48.55548" lon="-2.97992">
        <ele>116</ele>
        <time>2025-02-28T20:43:28Z</time>
      </trkpt>
      <trkpt lat="48.55535" lon="-2.98001">
        <ele>116</ele>
        <time>2025-02-28T20:43:30Z</time>
      </trkpt>
      <trkpt lat="48.55515" lon="-2.98018">
        <ele>116</ele>
        <time>2025-02-28T20:43:34Z</time>
      </trkpt>
      <trkpt lat="48.55475" lon="-2.98043">
        <ele>117</ele>
        <time>2025-02-28T20:43:42Z</time>
      </trkpt>
      <trkpt lat="48.55459" lon="-2.98055">
        <ele>117</ele>
        <time>2025-02-28T20:43:45Z</time>
      </trkpt>
      <trkpt lat="48.55427" lon="-2.98092">
        <ele>118</ele>
        <time>2025-02-28T20:43:53Z</time>
      </trkpt>
      <trkpt lat="48.55388" lon="-2.98128">
        <ele>120</ele>
        <time>2025-02-28T20:44:01Z</time>
      </trkpt>
      <trkpt lat="48.5537" lon="-2.98142">
        <ele>120</ele>
        <time>2025-02-28T20:44:04Z</time>
      </trkpt>
      <trkpt lat="48.55348" lon="-2.98149">
        <ele>120</ele>
        <time>2025-02-28T20:44:08Z</time>
      </trkpt>
      <trkpt lat="48.55322" lon="-2.98149">
        <ele>120</ele>
        <time>2025-02-28T20:44:13Z</time>
      </trkpt>
      <trkpt lat="48.55278" lon="-2.98134">
        <ele>119</ele>
        <time>2025-02-28T20:44:21Z</time>
      </trkpt>
      <trkpt lat="48.5512" lon="-2.98128">
        <ele>116</ele>
        <time>2025-02-28T20:44:49Z</time>
      </trkpt>
      <trkpt lat="48.55069" lon="-2.98124">
        <ele>116</ele>
        <time>2025-02-28T20:44:58Z</time>
      </trkpt>
      <trkpt lat="48.54996" lon="-2.9809">
        <ele>117</ele>
        <time>2025-02-28T20:45:12Z</time>
      </trkpt>
      <trkpt lat="48.54951" lon="-2.98078">
        <ele>115</ele>
        <time>2025-02-28T20:45:20Z</time>
      </trkpt>
      <trkpt lat="48.54937" lon="-2.98078">
        <ele>115</ele>
        <time>2025-02-28T20:45:22Z</time>
      </trkpt>
      <trkpt lat="48.54916" lon="-2.98083">
        <ele>114</ele>
        <time>2025-02-28T20:45:26Z</time>
      </trkpt>
      <trkpt lat="48.54874" lon="-2.98106">
        <ele>114</ele>
        <time>2025-02-28T20:45:34Z</time>
      </trkpt>
      <trkpt lat="48.54856" lon="-2.98112">
        <ele>114</ele>
        <time>2025-02-28T20:45:37Z</time>
      </trkpt>
      <trkpt lat="48.54836" lon="-2.98113">
        <ele>114</ele>
        <time>2025-02-28T20:45:41Z</time>
      </trkpt>
      <trkpt lat="48.54816" lon="-2.98109">
        <ele>114</ele>
        <time>2025-02-28T20:45:44Z</time>
      </trkpt>
      <trkpt lat="48.5478" lon="-2.9809">
        <ele>115</ele>
        <time>2025-02-28T20:45:51Z</time>
      </trkpt>
      <trkpt lat="48.54736" lon="-2.98061">
        <ele>114</ele>
        <time>2025-02-28T20:46:00Z</time>
      </trkpt>
      <trkpt lat="48.54712" lon="-2.98041">
        <ele>114</ele>
        <time>2025-02-28T20:46:05Z</time>
      </trkpt>
      <trkpt lat="48.54685" lon="-2.98006">
        <ele>114</ele>
        <time>2025-02-28T20:46:11Z</time>
      </trkpt>
      <trkpt lat="48.54642" lon="-2.97941">
        <ele>115</ele>
        <time>2025-02-28T20:46:22Z</time>
      </trkpt>
      <trkpt lat="48.54627" lon="-2.97921">
        <ele>117</ele>
        <time>2025-02-28T20:46:25Z</time>
      </trkpt>
      <trkpt lat="48.54615" lon="-2.97908">
        <ele>118</ele>
        <time>2025-02-28T20:46:28Z</time>
      </trkpt>
      <trkpt lat="48.54597" lon="-2.97896">
        <ele>120</ele>
        <time>2025-02-28T20:46:32Z</time>
      </trkpt>
      <trkpt lat="48.5457" lon="-2.97888">
        <ele>121</ele>
        <time>2025-02-28T20:46:36Z</time>
      </trkpt>
      <trkpt lat="48.54554" lon="-2.97882">
        <ele>121</ele>
        <time>2025-02-28T20:46:39Z</time>
      </trkpt>
      <trkpt lat="48.54495" lon="-2.97869">
        <ele>119</ele>
        <time>2025-02-28T20:46:50Z</time>
      </trkpt>
      <trkpt lat="48.54388" lon="-2.9785">
        <ele>114</ele>
        <time>2025-02-28T20:47:09Z</time>
      </trkpt>
      <trkpt lat="48.54372" lon="-2.9784">
        <ele>114</ele>
        <time>2025-02-28T20:47:12Z</time>
      </trkpt>
      <trkpt lat="48.5435" lon="-2.97821">
        <ele>114</ele>
        <time>2025-02-28T20:47:17Z</time>
      </trkpt>
      <trkpt lat="48.54325" lon="-2.97797">
        <ele>114</ele>
        <time>2025-02-28T20:47:22Z</time>
      </trkpt>
      <trkpt lat="48.5431" lon="-2.97777">
        <ele>114</ele>
        <time>2025-02-28T20:47:26Z</time>
      </trkpt>
      <trkpt lat="48.54275" lon="-2.97719">
        <ele>115</ele>
        <time>2025-02-28T20:47:35Z</time>
      </trkpt>
      <trkpt lat="48.5426" lon="-2.97696">
        <ele>114</ele>
        <time>2025-02-28T20:47:39Z</time>
      </trkpt>
      <trkpt lat="48.5419" lon="-2.97615">
        <ele>113</ele>
        <time>2025-02-28T20:47:54Z</time>
      </trkpt>
      <trkpt lat="48.54174" lon="-2.97599">
        <ele>112</ele>
        <time>2025-02-28T20:47:58Z</time>
      </trkpt>
      <trkpt lat="48.54162" lon="-2.97592">
        <ele>111</ele>
        <time>2025-02-28T20:48:00Z</time>
      </trkpt>
      <trkpt lat="48.54152" lon="-2.97712">
        <ele>115</ele>
        <time>2025-02-28T20:48:14Z</time>
      </trkpt>
      <trkpt lat="48.54134" lon="-2.97884">
        <ele>118</ele>
        <time>2025-02-28T20:48:35Z</time>
      </trkpt>
      <trkpt lat="48.54127" lon="-2.97931">
        <ele>118</ele>
        <time>2025-02-28T20:48:40Z</time>
      </trkpt>
      <trkpt lat="48.54115" lon="-2.97991">
        <ele>118</ele>
        <time>2025-02-28T20:48:48Z</time>
      </trkpt>
      <trkpt lat="48.54088" lon="-2.98098">
        <ele>117</ele>
        <time>2025-02-28T20:49:01Z</time>
      </trkpt>
      <trkpt lat="48.5407" lon="-2.98175">
        <ele>117</ele>
        <time>2025-02-28T20:49:11Z</time>
      </trkpt>
      <trkpt lat="48.54067" lon="-2.98187">
        <ele>117</ele>
        <time>2025-02-28T20:49:12Z</time>
      </trkpt>
      <trkpt lat="48.54052" lon="-2.98246">
        <ele>118</ele>
        <time>2025-02-28T20:49:20Z</time>
      </trkpt>
      <trkpt lat="48.5401" lon="-2.98415">
        <ele>121</ele>
        <time>2025-02-28T20:49:41Z</time>
      </trkpt>
      <trkpt lat="48.53931" lon="-2.98732">
        <ele>123</ele>
        <time>2025-02-28T20:50:21Z</time>
      </trkpt>
      <trkpt lat="48.53906" lon="-2.9884">
        <ele>125</ele>
        <time>2025-02-28T20:50:35Z</time>
      </trkpt>
      <trkpt lat="48.53902" lon="-2.98858">
        <ele>125</ele>
        <time>2025-02-28T20:50:37Z</time>
      </trkpt>
      <trkpt lat="48.53898" lon="-2.98879">
        <ele>125</ele>
        <time>2025-02-28T20:50:39Z</time>
      </trkpt>
      <trkpt lat="48.53904" lon="-2.98888">
        <ele>125</ele>
        <time>2025-02-28T20:50:41Z</time>
      </trkpt>
      <trkpt lat="48.53906" lon="-2.989">
        <ele>125</ele>
        <time>2025-02-28T20:50:42Z</time>
      </trkpt>
      <trkpt lat="48.53903" lon="-2.98913">
        <ele>125</ele>
        <time>2025-02-28T20:50:44Z</time>
      </trkpt>
      <trkpt lat="48.539" lon="-2.98918">
        <ele>125</ele>
        <time>2025-02-28T20:50:45Z</time>
      </trkpt>
      <trkpt lat="48.53891" lon="-2.98922">
        <ele>125</ele>
        <time>2025-02-28T20:50:46Z</time>
      </trkpt>
      <trkpt lat="48.53887" lon="-2.98921">
        <ele>125</ele>
        <time>2025-02-28T20:50:47Z</time>
      </trkpt>
      <trkpt lat="48.53877" lon="-2.9896">
        <ele>126</ele>
        <time>2025-02-28T20:50:52Z</time>
      </trkpt>
      <trkpt lat="48.53843" lon="-2.99083">
        <ele>130</ele>
        <time>2025-02-28T20:51:08Z</time>
      </trkpt>
      <trkpt lat="48.53811" lon="-2.99216">
        <ele>131</ele>
        <time>2025-02-28T20:51:24Z</time>
      </trkpt>
      <trkpt lat="48.53804" lon="-2.99244">
        <ele>131</ele>
        <time>2025-02-28T20:51:28Z</time>
      </trkpt>
      <trkpt lat="48.53793" lon="-2.99289">
        <ele>131</ele>
        <time>2025-02-28T20:51:34Z</time>
      </trkpt>
      <trkpt lat="48.53771" lon="-2.99378">
        <ele>130</ele>
        <time>2025-02-28T20:51:45Z</time>
      </trkpt>
      <trkpt lat="48.53755" lon="-2.99442">
        <ele>131</ele>
        <time>2025-02-28T20:51:53Z</time>
      </trkpt>
      <trkpt lat="48.53745" lon="-2.99488">
        <ele>133</ele>
        <time>2025-02-28T20:51:59Z</time>
      </trkpt>
      <trkpt lat="48.53718" lon="-2.996">
        <ele>136</ele>
        <time>2025-02-28T20:52:13Z</time>
      </trkpt>
      <trkpt lat="48.53723" lon="-2.99605">
        <ele>136</ele>
        <time>2025-02-28T20:52:14Z</time>
      </trkpt>
      <trkpt lat="48.53725" lon="-2.99609">
        <ele>136</ele>
        <time>2025-02-28T20:52:14Z</time>
      </trkpt>
      <trkpt lat="48.53726" lon="-2.99614">
        <ele>136</ele>
        <time>2025-02-28T20:52:15Z</time>
      </trkpt>
      <trkpt lat="48.53725" lon="-2.99624">
        <ele>136</ele>
        <time>2025-02-28T20:52:16Z</time>
      </trkpt>
      <trkpt lat="48.5372" lon="-2.99631">
        <ele>137</ele>
        <time>2025-02-28T20:52:17Z</time>
      </trkpt>
      <trkpt lat="48.53713" lon="-2.99633">
        <ele>137</ele>
        <time>2025-02-28T20:52:19Z</time>
      </trkpt>
      <trkpt lat="48.53709" lon="-2.99631">
        <ele>137</ele>
        <time>2025-02-28T20:52:19Z</time>
      </trkpt>
      <trkpt lat="48.53694" lon="-2.99686">
        <ele>138</ele>
        <time>2025-02-28T20:52:26Z</time>
      </trkpt>
      <trkpt lat="48.53687" lon="-2.99703">
        <ele>139</ele>
        <time>2025-02-28T20:52:29Z</time>
      </trkpt>
      <trkpt lat="48.53673" lon="-2.99769">
        <ele>140</ele>
        <time>2025-02-28T20:52:37Z</time>
      </trkpt>
      <trkpt lat="48.53657" lon="-2.99829">
        <ele>141</ele>
        <time>2025-02-28T20:52:44Z</time>
      </trkpt>
      <trkpt lat="48.5365" lon="-2.99855">
        <ele>141</ele>
        <time>2025-02-28T20:52:48Z</time>
      </trkpt>
      <trkpt lat="48.53634" lon="-2.99923">
        <ele>143</ele>
        <time>2025-02-28T20:52:56Z</time>
      </trkpt>
      <trkpt lat="48.53632" lon="-2.99935">
        <ele>143</ele>
        <time>2025-02-28T20:52:58Z</time>
      </trkpt>
      <trkpt lat="48.5363" lon="-2.99974">
        <ele>143</ele>
        <time>2025-02-28T20:53:02Z</time>
      </trkpt>
      <trkpt lat="48.53629" lon="-3.00008">
        <ele>144</ele>
        <time>2025-02-28T20:53:06Z</time>
      </trkpt>
      <trkpt lat="48.53629" lon="-3.00016">
        <ele>143</ele>
        <time>2025-02-28T20:53:07Z</time>
      </trkpt>
      <trkpt lat="48.53628" lon="-3.00095">
        <ele>141</ele>
        <time>2025-02-28T20:53:17Z</time>
      </trkpt>
      <trkpt lat="48.53628" lon="-3.00127">
        <ele>141</ele>
        <time>2025-02-28T20:53:20Z</time>
      </trkpt>
      <trkpt lat="48.53626" lon="-3.00152">
        <ele>140</ele>
        <time>2025-02-28T20:53:23Z</time>
      </trkpt>
      <trkpt lat="48.53622" lon="-3.00165">
        <ele>140</ele>
        <time>2025-02-28T20:53:25Z</time>
      </trkpt>
      <trkpt lat="48.53615" lon="-3.00181">
        <ele>139</ele>
        <time>2025-02-28T20:53:27Z</time>
      </trkpt>
      <trkpt lat="48.53613" lon="-3.00191">
        <ele>139</ele>
        <time>2025-02-28T20:53:28Z</time>
      </trkpt>
      <trkpt lat="48.53619" lon="-3.00195">
        <ele>139</ele>
        <time>2025-02-28T20:53:30Z</time>
      </trkpt>
      <trkpt lat="48.53623" lon="-3.00202">
        <ele>139</ele>
        <time>2025-02-28T20:53:31Z</time>
      </trkpt>
      <trkpt lat="48.53626" lon="-3.00212">
        <ele>139</ele>
        <time>2025-02-28T20:53:32Z</time>
      </trkpt>
      <trkpt lat="48.53627" lon="-3.00222">
        <ele>139</ele>
        <time>2025-02-28T20:53:33Z</time>
      </trkpt>
      <trkpt lat="48.53624" lon="-3.00232">
        <ele>139</ele>
        <time>2025-02-28T20:53:35Z</time>
      </trkpt>
      <trkpt lat="48.5362" lon="-3.0024">
        <ele>139</ele>
        <time>2025-02-28T20:53:36Z</time>
      </trkpt>
      <trkpt lat="48.53612" lon="-3.00245">
        <ele>139</ele>
        <time>2025-02-28T20:53:37Z</time>
      </trkpt>
      <trkpt lat="48.53607" lon="-3.0027">
        <ele>139</ele>
        <time>2025-02-28T20:53:40Z</time>
      </trkpt>
      <trkpt lat="48.53619" lon="-3.00296">
        <ele>139</ele>
        <time>2025-02-28T20:53:44Z</time>
      </trkpt>
      <trkpt lat="48.53623" lon="-3.00311">
        <ele>139</ele>
        <time>2025-02-28T20:53:46Z</time>
      </trkpt>
      <trkpt lat="48.53621" lon="-3.00527">
        <ele>140</ele>
        <time>2025-02-28T20:54:11Z</time>
      </trkpt>
      <trkpt lat="48.5362" lon="-3.00586">
        <ele>140</ele>
        <time>2025-02-28T20:54:18Z</time>
      </trkpt>
      <trkpt lat="48.5362" lon="-3.00662">
        <ele>139</ele>
        <time>2025-02-28T20:54:27Z</time>
      </trkpt>
      <trkpt lat="48.5362" lon="-3.00678">
        <ele>139</ele>
        <time>2025-02-28T20:54:29Z</time>
      </trkpt>
      <trkpt lat="48.53618" lon="-3.00806">
        <ele>137</ele>
        <time>2025-02-28T20:54:44Z</time>
      </trkpt>
      <trkpt lat="48.53616" lon="-3.01059">
        <ele>140</ele>
        <time>2025-02-28T20:55:14Z</time>
      </trkpt>
      <trkpt lat="48.53618" lon="-3.01629">
        <ele>136</ele>
        <time>2025-02-28T20:56:21Z</time>
      </trkpt>
      <trkpt lat="48.5362" lon="-3.01821">
        <ele>136</ele>
        <time>2025-02-28T20:56:44Z</time>
      </trkpt>
      <trkpt lat="48.53623" lon="-3.01868">
        <ele>136</ele>
        <time>2025-02-28T20:56:49Z</time>
      </trkpt>
      <trkpt lat="48.5363" lon="-3.01928">
        <ele>135</ele>
        <time>2025-02-28T20:56:57Z</time>
      </trkpt>
      <trkpt lat="48.53639" lon="-3.01983">
        <ele>135</ele>
        <time>2025-02-28T20:57:03Z</time>
      </trkpt>
      <trkpt lat="48.53651" lon="-3.02073">
        <ele>134</ele>
        <time>2025-02-28T20:57:14Z</time>
      </trkpt>
      <trkpt lat="48.53667" lon="-3.0229">
        <ele>134</ele>
        <time>2025-02-28T20:57:40Z</time>
      </trkpt>
      <trkpt lat="48.53676" lon="-3.02451">
        <ele>135</ele>
        <time>2025-02-28T20:57:59Z</time>
      </trkpt>
      <trkpt lat="48.53682" lon="-3.02589">
        <ele>137</ele>
        <time>2025-02-28T20:58:15Z</time>
      </trkpt>
      <trkpt lat="48.53683" lon="-3.02662">
        <ele>137</ele>
        <time>2025-02-28T20:58:24Z</time>
      </trkpt>
      <trkpt lat="48.53658" lon="-3.03082">
        <ele>142</ele>
        <time>2025-02-28T20:59:13Z</time>
      </trkpt>
      <trkpt lat="48.53639" lon="-3.03372">
        <ele>149</ele>
        <time>2025-02-28T20:59:48Z</time>
      </trkpt>
      <trkpt lat="48.5364" lon="-3.03418">
        <ele>149</ele>
        <time>2025-02-28T20:59:53Z</time>
      </trkpt>
      <trkpt lat="48.53644" lon="-3.0347">
        <ele>150</ele>
        <time>2025-02-28T20:59:59Z</time>
      </trkpt>
      <trkpt lat="48.53653" lon="-3.03521">
        <ele>151</ele>
        <time>2025-02-28T21:00:06Z</time>
      </trkpt>
      <trkpt lat="48.53662" lon="-3.03554">
        <ele>151</ele>
        <time>2025-02-28T21:00:10Z</time>
      </trkpt>
      <trkpt lat="48.53678" lon="-3.03601">
        <ele>152</ele>
        <time>2025-02-28T21:00:16Z</time>
      </trkpt>
      <trkpt lat="48.53712" lon="-3.0369">
        <ele>153</ele>
        <time>2025-02-28T21:00:28Z</time>
      </trkpt>
      <trkpt lat="48.53722" lon="-3.0372">
        <ele>153</ele>
        <time>2025-02-28T21:00:32Z</time>
      </trkpt>
      <trkpt lat="48.5373" lon="-3.03754">
        <ele>152</ele>
        <time>2025-02-28T21:00:36Z</time>
      </trkpt>
      <trkpt lat="48.53737" lon="-3.03799">
        <ele>152</ele>
        <time>2025-02-28T21:00:42Z</time>
      </trkpt>
      <trkpt lat="48.5374" lon="-3.03837">
        <ele>151</ele>
        <time>2025-02-28T21:00:46Z</time>
      </trkpt>
      <trkpt lat="48.53742" lon="-3.03892">
        <ele>150</ele>
        <time>2025-02-28T21:00:53Z</time>
      </trkpt>
      <trkpt lat="48.5374" lon="-3.03926">
        <ele>149</ele>
        <time>2025-02-28T21:00:57Z</time>
      </trkpt>
      <trkpt lat="48.53736" lon="-3.03957">
        <ele>150</ele>
        <time>2025-02-28T21:01:01Z</time>
      </trkpt>
      <trkpt lat="48.53702" lon="-3.04143">
        <ele>150</ele>
        <time>2025-02-28T21:01:23Z</time>
      </trkpt>
      <trkpt lat="48.53644" lon="-3.04448">
        <ele>152</ele>
        <time>2025-02-28T21:02:01Z</time>
      </trkpt>
      <trkpt lat="48.53636" lon="-3.04486">
        <ele>152</ele>
        <time>2025-02-28T21:02:05Z</time>
      </trkpt>
      <trkpt lat="48.53618" lon="-3.0448">
        <ele>153</ele>
        <time>2025-02-28T21:02:09Z</time>
      </trkpt>
      <trkpt lat="48.53606" lon="-3.04472">
        <ele>153</ele>
        <time>2025-02-28T21:02:11Z</time>
      </trkpt>
      <trkpt lat="48.53583" lon="-3.04453">
        <ele>155</ele>
        <time>2025-02-28T21:02:16Z</time>
      </trkpt>
      <trkpt lat="48.53543" lon="-3.04422">
        <ele>155</ele>
        <time>2025-02-28T21:02:24Z</time>
      </trkpt>
      <trkpt lat="48.53478" lon="-3.04368">
        <ele>155</ele>
        <time>2025-02-28T21:02:37Z</time>
      </trkpt>
      <trkpt lat="48.53486" lon="-3.04319">
        <ele>156</ele>
        <time>2025-02-28T21:02:43Z</time>
      </trkpt>
      <trkpt lat="48.5352" lon="-3.04102">
        <ele>153</ele>
        <time>2025-02-28T21:03:09Z</time>
      </trkpt>
      <trkpt lat="48.53531" lon="-3.04007">
        <ele>153</ele>
        <time>2025-02-28T21:03:20Z</time>
      </trkpt>
      <trkpt lat="48.53537" lon="-3.03885">
        <ele>154</ele>
        <time>2025-02-28T21:03:35Z</time>
      </trkpt>
      <trkpt lat="48.5354" lon="-3.03861">
        <ele>154</ele>
        <time>2025-02-28T21:03:38Z</time>
      </trkpt>
      <trkpt lat="48.53511" lon="-3.03836">
        <ele>156</ele>
        <time>2025-02-28T21:03:44Z</time>
      </trkpt>
      <trkpt lat="48.53402" lon="-3.03721">
        <ele>156</ele>
        <time>2025-02-28T21:04:07Z</time>
      </trkpt>
    </trkseg>
  </trk>
</gpx>